Date StartTime U_cm/s V_cm/s W_cm/s Ustd_cm/s Vstd_cm/s Wstd_cm/s Uvar_(cm/s)^2 Vvar_(cm/s)^2 Wvar_(cm/s)^2 KE_(m/s)^2 TurbulentKE_(m/s)^2 HorizWindSpeed_cm/s FrictionSpeec_cm/s DragCoef SpeedOfSound_m/s SonicTemperature_C Pressure_mb 
10/24/2013  00:00:00      -77.543      -49.696       -3.398       21.862       19.603       14.648      477.940      384.261      214.550        0.479        0.054       92.101        9.459        0.011      337.522        9.554      862.089
10/24/2013  00:01:00      -51.612      -43.297       -1.369       30.502       23.611       15.481      930.376      557.483      239.648        0.313        0.086       67.367       15.877        0.056      337.531        9.566      862.093
10/24/2013  00:02:00      -52.576      -57.016       -7.470       33.470       18.484       15.367     1120.232      341.655      236.137        0.388        0.085       77.557        6.354        0.007      337.618        9.714      862.099
10/24/2013  00:03:00      -79.797      -64.716       -3.161       27.057       22.483       17.611      732.074      505.493      310.152        0.606        0.077      102.742       14.933        0.021      337.604        9.691      862.102
10/24/2013  00:04:00      -76.799      -55.708       -6.961       45.469       29.434       20.356     2067.424      866.388      414.347        0.620        0.167       94.876        9.994        0.011      337.596        9.677      862.100
10/24/2013  00:05:00      -70.317      -65.237       -0.365       37.748       27.419       24.790     1424.878      751.826      614.540        0.600        0.140       95.919       18.247        0.036      337.564        9.623      862.101
10/24/2013  00:06:00      -46.818      -53.635       13.143       41.093       36.065       25.262     1688.671     1300.671      638.179        0.443        0.181       71.194       27.612        0.150      337.553        9.605      862.118
10/24/2013  00:07:00      -78.198      -64.301       -0.920       57.108       45.813       33.887     3261.295     2098.869     1148.327        0.838        0.325      101.240       35.463        0.123      337.618        9.714      862.130
10/24/2013  00:08:00      -93.820      -93.780      -10.644       42.864       45.958       21.449     1837.330     2112.143      460.056        1.106        0.220      132.653       22.730        0.029      337.681        9.818      862.142
10/24/2013  00:09:00     -116.048      -79.175       -8.917       32.850       40.074       25.306     1079.153     1605.933      640.408        1.157        0.166      140.484       16.497        0.014      337.625        9.724      862.141
10/24/2013  00:10:00     -136.896      -99.448       -0.888       30.993       45.338       25.999      960.594     2055.562      675.936        1.616        0.185      169.205       19.013        0.013      337.516        9.542      862.148
10/24/2013  00:11:00     -110.896     -104.736       -5.801       56.563       47.839       31.601     3199.406     2288.582      998.609        1.489        0.324      152.537       26.461        0.030      337.472        9.467      862.160
10/24/2013  00:12:00      -97.941      -93.386        4.677       52.784       47.295       29.605     2786.106     2236.782      876.470        1.212        0.295      135.327       30.379        0.050      337.428        9.394      862.172
10/24/2013  00:13:00     -113.719      -80.700       -6.504       42.432       45.754       24.555     1800.476     2093.446      602.925        1.199        0.225      139.444       23.343        0.028      337.433        9.402      862.181
10/24/2013  00:14:00     -129.558      -77.904       -9.263       39.634       49.839       31.512     1570.833     2483.887      993.013        1.399        0.252      151.177       27.579        0.033      337.445        9.423      862.190
10/24/2013  00:15:00     -126.733      -75.060       -6.436       49.012       36.284       29.477     2402.221     1316.540      868.900        1.316        0.229      147.293       24.093        0.027      337.439        9.413      862.192
10/24/2013  00:16:00     -113.456      -80.584       -6.098       43.011       37.907       22.023     1849.917     1436.923      485.018        1.159        0.189      139.162       19.985        0.021      337.396        9.341      862.191
10/24/2013  00:17:00      -93.546      -59.688        0.765       64.161       36.135       29.712     4116.576     1305.713      882.804        0.931        0.315      110.966       36.004        0.105      337.370        9.297      862.193
10/24/2013  00:18:00      -80.535      -80.849        3.901       45.246       48.483       28.291     2047.225     2350.594      800.368        0.912        0.260      114.116       30.836        0.073      337.389        9.329      862.206
10/24/2013  00:19:00      -61.234      -54.345        1.874       40.880       35.468       19.871     1671.171     1257.956      394.865        0.501        0.166       81.871       24.011        0.086      337.359        9.280      862.216
10/24/2013  00:20:00      -29.774      -40.789        8.517       34.242       24.204       21.154     1172.509      585.846      447.501        0.241        0.110       50.499       22.402        0.197      337.381        9.316      862.218
10/24/2013  00:21:00      -41.013      -42.167        6.659       33.447       30.498       22.066     1118.709      930.123      486.892        0.302        0.127       58.822       21.405        0.132      337.307        9.195      862.227
10/24/2013  00:22:00      -53.434      -45.580        7.376       44.085       32.677       22.829     1943.449     1067.781      521.155        0.426        0.177       70.234       24.778        0.124      337.303        9.186      862.225
10/24/2013  00:23:00      -42.785      -51.164        6.836       42.674       42.404       24.471     1821.092     1798.122      598.850        0.436        0.211       66.696       23.563        0.125      337.248        9.094      862.224
10/24/2013  00:24:00      -81.453      -61.295       -2.423       48.195       30.677       21.055     2322.799      941.071      443.309        0.705        0.185      101.940       23.003        0.051      337.296        9.175      862.231
10/24/2013  00:25:00      -65.427      -46.875       10.271       50.908       43.869       27.260     2591.597     1924.508      743.105        0.592        0.263       80.486       28.318        0.124      337.266        9.124      862.240
10/24/2013  00:26:00      -30.301      -26.032        7.640       36.560       20.451       21.506     1336.625      418.234      462.519        0.194        0.111       39.948       17.241        0.186      337.237        9.076      862.247
10/24/2013  00:27:00      -68.476      -28.773        3.173       32.983       20.291       17.478     1087.908      411.710      305.494        0.367        0.090       74.276       16.852        0.051      337.137        8.909      862.257
10/24/2013  00:28:00      -68.572      -47.115       -0.683       31.076       29.411       19.725      965.738      865.001      389.095        0.457        0.111       83.199       14.367        0.030      337.160        8.947      862.262
10/24/2013  00:29:00      -81.943      -35.331        1.869       28.138       21.710       15.359      791.758      471.314      235.910        0.473        0.075       89.235       13.272        0.022      337.147        8.926      862.259
10/24/2013  00:30:00      -61.434      -33.659        6.735       45.863       20.409       19.461     2103.405      416.526      378.744        0.393        0.145       70.050       24.742        0.125      337.169        8.963      862.261
10/24/2013  00:31:00      -41.884      -33.181        5.877       34.831       17.243       17.151     1213.215      297.308      294.160        0.235        0.090       53.435       17.667        0.109      337.167        8.957      862.273
10/24/2013  00:32:00      -46.435      -31.468       -1.215       29.532       20.351       16.890      872.124      414.166      285.287        0.236        0.079       56.093       17.725        0.100      337.188        8.993      862.281
10/24/2013  00:33:00      -50.289      -21.454        4.728       33.183       19.594       15.879     1101.123      383.920      252.158        0.237        0.087       54.674       11.783        0.046      337.115        8.871      862.279
10/24/2013  00:34:00      -51.282      -39.790       -0.480       21.969       20.359       14.928      482.649      414.478      222.837        0.267        0.056       64.908       12.646        0.038      337.146        8.923      862.290
10/24/2013  00:35:00      -52.116      -22.978        2.413       21.276       15.306       13.804      452.662      234.269      190.543        0.206        0.044       56.956       13.083        0.053      337.052        8.765      862.295
10/24/2013  00:36:00      -80.957      -33.888       -7.030       16.530       13.233       13.054      273.236      175.121      170.397        0.419        0.031       87.764        9.715        0.012      337.028        8.724      862.292
10/24/2013  00:37:00      -87.802      -38.680       -2.670       17.525       16.338       11.866      307.111      266.927      140.793        0.496        0.036       95.945        7.472        0.006      336.982        8.647      862.292
10/24/2013  00:38:00      -76.190      -42.462       -9.677       31.208       17.940       11.692      973.947      321.855      136.693        0.457        0.072       87.223        8.382        0.009      336.992        8.665      862.303
10/24/2013  00:39:00     -101.074      -57.208      -10.552       27.648       16.690       11.860      764.435      278.566      140.648        0.739        0.059      116.141        8.237        0.005      336.945        8.587      862.303
10/24/2013  00:40:00     -108.678      -56.267       -6.115       17.134       13.762       12.768      293.558      189.391      163.028        0.783        0.032      122.380       10.341        0.007      336.866        8.456      862.298
10/24/2013  00:41:00     -120.128      -46.330       -7.508       13.845       17.234       11.011      191.683      297.009      121.240        0.862        0.030      128.752        8.699        0.005      336.930        8.562      862.294
10/24/2013  00:42:00      -99.417      -52.015       -5.816       20.455       17.217       14.240      418.409      296.417      202.769        0.677        0.046      112.202       11.672        0.011      336.922        8.548      862.295
10/24/2013  00:43:00      -91.321      -41.671        2.396       33.879       16.155       16.308     1147.766      260.991      265.953        0.588        0.084      100.379       16.272        0.026      336.901        8.511      862.295
10/24/2013  00:44:00     -113.448      -38.525       -1.785       16.928       17.491       12.917      286.562      305.918      166.843        0.756        0.038      119.810        8.976        0.006      336.906        8.521      862.289
10/24/2013  00:45:00     -116.696      -57.718       -7.434       13.736       10.855       12.135      188.684      117.824      147.269        0.873        0.023      130.190        8.148        0.004      336.925        8.553      862.289
10/24/2013  00:46:00     -113.682      -52.870      -15.154       10.596       12.937        8.306      112.278      167.369       68.982        0.815        0.017      125.375        2.835        0.001      336.977        8.640      862.280
10/24/2013  00:47:00     -123.040      -46.772      -20.523       13.654       15.656        9.185      186.434      245.126       84.362        0.913        0.026      131.630        5.423        0.002      336.953        8.600      862.262
10/24/2013  00:48:00     -130.517      -52.998      -11.216       13.856       12.931        9.690      191.997      167.220       93.892        1.021        0.023      140.867        7.261        0.003      336.953        8.599      862.261
10/24/2013  00:49:00     -124.388      -45.554      -13.414       24.006       19.231       13.186      576.286      369.842      173.864        0.942        0.056      132.467       11.399        0.007      336.898        8.508      862.268
10/24/2013  00:50:00     -132.378      -38.848      -18.010       17.413       16.549       14.810      303.224      273.860      219.346        1.008        0.040      137.961        9.714        0.005      336.835        8.405      862.263
10/24/2013  00:51:00     -147.256      -29.266      -22.148       22.606       16.561       17.117      511.037      274.279      293.008        1.205        0.054      150.136       14.393        0.009      336.760        8.278      862.257
10/24/2013  00:52:00     -116.831      -54.404      -11.058       18.224       14.797       14.450      332.104      218.961      208.790        0.875        0.038      128.877        8.838        0.005      336.739        8.244      862.251
10/24/2013  00:53:00     -100.175      -58.857      -18.691       22.582       20.595       14.580      509.944      424.171      212.576        0.750        0.057      116.186       10.062        0.008      336.722        8.215      862.248
10/24/2013  00:54:00      -56.427      -66.259        1.481       47.248       34.950       27.993     2232.369     1221.485      783.582        0.591        0.212       87.030       29.782        0.117      336.751        8.263      862.239
10/24/2013  00:55:00      -66.294      -67.180       -6.185       44.974       33.989       23.982     2022.681     1155.266      575.150        0.635        0.188       94.382       21.584        0.052      336.736        8.238      862.236
10/24/2013  00:56:00      -79.849      -56.816       -0.430       42.645       36.104       21.801     1818.554     1303.465      475.282        0.660        0.180       98.000       24.638        0.063      336.723        8.218      862.238
10/24/2013  00:57:00      -77.256      -55.178       -3.707       51.359       33.225       28.433     2637.743     1103.929      808.431        0.679        0.228       94.937       26.465        0.078      336.701        8.181      862.236
10/24/2013  00:58:00     -109.118      -47.747       -1.699       33.902       34.860       22.098     1149.376     1215.248      488.311        0.852        0.143      119.107       18.884        0.025      336.706        8.189      862.240
10/24/2013  00:59:00     -115.882      -38.831       -5.657       43.070       37.692       24.399     1855.000     1420.718      595.293        0.942        0.194      122.215       22.731        0.035      336.764        8.284      862.244
10/24/2013  01:00:00     -118.133      -32.262       -7.897       28.435       26.754       21.919      808.568      715.783      480.421        0.853        0.100      122.460       16.823        0.019      336.728        8.226      862.229
10/24/2013  01:01:00     -107.662      -14.864      -11.839       28.613       31.681       21.318      818.714     1003.712      454.468        0.711        0.114      108.683       17.286        0.025      336.739        8.244      862.222
10/24/2013  01:02:00     -126.861      -28.342      -18.417       36.892       34.149       22.646     1361.005     1166.169      512.837        1.014        0.152      129.988       21.155        0.026      336.822        8.380      862.222
10/24/2013  01:03:00     -119.125       -1.538      -10.342       58.584       42.333       29.435     3432.088     1792.052      866.427        1.019        0.305      119.135       32.745        0.076      336.807        8.357      862.214
10/24/2013  01:04:00     -153.543       27.641       -5.050       64.653       43.066       27.201     4180.009     1854.651      739.902        1.557        0.339      156.011       32.218        0.043      337.001        8.678      862.215
10/24/2013  01:05:00     -134.322        1.484       -9.539       40.671       42.592       21.670     1654.129     1814.049      469.598        1.104        0.197      134.330       16.473        0.015      337.019        8.709      862.228
10/24/2013  01:06:00     -150.556       10.319      -12.184       41.760       41.699       23.854     1743.859     1738.793      569.029        1.349        0.203      150.909       18.954        0.016      337.095        8.837      862.229
10/24/2013  01:07:00     -117.508      -36.845       -5.333       29.385       27.661       16.453      863.475      765.154      270.692        0.855        0.095      123.149       13.846        0.013      336.990        8.661      862.238
10/24/2013  01:08:00     -116.977      -13.302       -6.266       40.489       26.481       20.844     1639.336      701.263      434.488        0.834        0.139      117.731       22.381        0.036      336.914        8.535      862.250
10/24/2013  01:09:00     -161.978       -7.673       -8.991       36.867       23.367       15.445     1359.199      546.017      238.549        1.426        0.107      162.159       11.163        0.005      337.046        8.756      862.248
10/24/2013  01:10:00     -129.263       -7.225       -9.548       42.393       29.499       22.076     1797.142      870.167      487.342        1.000        0.158      129.465       21.826        0.028      336.915        8.536      862.249
10/24/2013  01:11:00     -103.565       -5.214       -1.624       47.042       33.783       24.551     2212.987     1141.320      602.747        0.736        0.198      103.696       23.869        0.053      336.895        8.504      862.256
10/24/2013  01:12:00     -129.228      -10.113      -10.778       41.325       25.503       19.582     1707.756      650.392      383.443        0.983        0.137      129.623       14.977        0.013      336.906        8.522      862.247
10/24/2013  01:13:00     -127.077      -47.298       -9.064       30.370       28.856       16.552      922.316      832.655      273.967        1.025        0.101      135.594       18.057        0.018      337.024        8.719      862.248
10/24/2013  01:14:00      -94.476      -64.386       -6.327       29.558       17.242       11.829      873.658      297.295      139.935        0.721        0.066      114.330       10.347        0.008      336.911        8.529      862.257
10/24/2013  01:15:00      -72.660      -39.295        6.936       46.698       26.494       16.634     2180.690      701.951      276.674        0.501        0.158       82.605       24.209        0.086      336.799        8.343      862.259
10/24/2013  01:16:00      -58.899      -36.738        3.479       27.486       24.429       19.760      755.454      596.766      390.462        0.329        0.087       69.417       17.321        0.062      336.796        8.339      862.251
10/24/2013  01:17:00      -79.579      -63.783        4.776       34.996       23.889       20.798     1224.719      570.671      432.577        0.633        0.111      101.985       17.776        0.030      336.785        8.320      862.265
10/24/2013  01:18:00      -81.809      -56.268       -2.526       44.766       27.266       21.727     2003.993      743.443      472.065        0.654        0.161       99.292       22.494        0.051      336.767        8.291      862.266
10/24/2013  01:19:00     -102.945      -63.909       -0.611       46.034       29.802       18.569     2119.175      888.153      344.790        0.902        0.168      121.169       24.060        0.039      336.741        8.246      862.259
10/24/2013  01:20:00      -87.359      -49.624       -5.163       36.251       22.859       17.820     1314.156      522.518      317.561        0.614        0.108      100.469        8.636        0.007      336.700        8.180      862.259
10/24/2013  01:21:00      -82.969      -48.674        2.066       38.919       26.121       19.776     1514.670      682.287      391.084        0.592        0.129       96.193       23.986        0.062      336.760        8.279      862.273
10/24/2013  01:22:00      -56.254      -27.903        5.042       37.982       29.866       18.653     1442.667      891.987      347.923        0.333        0.134       62.794       21.130        0.113      336.666        8.121      862.276
10/24/2013  01:23:00      -33.826      -29.831        6.930       40.232       24.121       18.370     1618.601      581.840      337.449        0.231        0.127       45.101       19.615        0.189      336.645        8.086      862.269
10/24/2013  01:24:00      -76.103      -47.103        3.473       30.233       23.169       17.344      914.044      536.817      300.797        0.489        0.088       89.501       16.841        0.035      336.669        8.128      862.275
10/24/2013  01:25:00      -13.265       -7.237       14.071       29.640       16.246       18.232      878.528      263.938      332.412        0.095        0.074       15.111       17.587        1.355      336.607        8.023      862.290
10/24/2013  01:26:00      -51.194      -28.961       11.091       43.339       24.063       18.934     1878.280      579.011      358.507        0.320        0.141       58.818       21.429        0.133      336.571        7.962      862.294
10/24/2013  01:27:00      -81.145      -36.258        6.120       35.031       27.425       21.779     1227.164      752.118      474.333        0.519        0.123       88.877       22.678        0.065      336.646        8.088      862.286
10/24/2013  01:28:00      -70.246      -40.922       -1.911       38.026       20.212       17.091     1445.990      408.542      292.089        0.438        0.107       81.296       19.587        0.058      336.631        8.064      862.293
10/24/2013  01:29:00      -63.903      -31.719        8.138       36.865       21.940       17.492     1359.019      481.354      305.984        0.365        0.107       71.342       18.794        0.069      336.624        8.051      862.302
10/24/2013  01:30:00      -50.279      -25.901        2.983       30.169       19.893       17.489      910.167      395.733      305.852        0.241        0.081       56.559       18.910        0.112      336.612        8.032      862.316
10/24/2013  01:31:00      -63.482      -26.709        2.779       18.845       12.993       12.339      355.128      168.806      152.244        0.271        0.034       68.871       10.213        0.022      336.603        8.017      862.323
10/24/2013  01:32:00      -88.295      -24.571      -10.245        9.337        9.572        8.989       87.187       91.627       80.805        0.438        0.013       91.650        4.750        0.003      336.658        8.109      862.324
10/24/2013  01:33:00      -94.057      -36.801      -10.421       10.837       10.686        9.152      117.431      114.182       83.767        0.531        0.016      101.000        5.474        0.003      336.630        8.061      862.343
10/24/2013  01:34:00      -87.473      -30.321       -5.525       10.131       12.597        8.339      102.634      158.690       69.542        0.447        0.017       92.579        4.252        0.002      336.613        8.033      862.361
10/24/2013  01:35:00      -72.786      -33.706       -6.561       14.933       11.309        7.331      222.987      127.884       53.738        0.344        0.020       80.211        3.671        0.002      336.629        8.060      862.370
10/24/2013  01:36:00      -63.752      -20.654       -4.059        7.174        6.281        6.493       51.472       39.454       42.154        0.232        0.007       67.014        3.711        0.003      336.638        8.074      862.376
10/24/2013  01:37:00      -40.417      -17.912        0.171       14.462        9.602        7.385      209.164       92.193       54.545        0.116        0.018       44.208        1.948        0.002      336.603        8.017      862.392
10/24/2013  01:38:00      -17.539      -11.958       -1.626       16.139       11.827        7.739      260.482      139.869       59.892        0.046        0.023       21.227        3.674        0.030      336.709        8.193      862.401
10/24/2013  01:39:00      -57.912      -19.139       -3.302       17.726        8.973        8.834      314.206       80.516       78.035        0.210        0.024       60.993       10.350        0.029      336.635        8.069      862.400
10/24/2013  01:40:00      -70.367      -26.121       -5.264        9.916       10.978        9.402       98.323      120.510       88.393        0.298        0.015       75.059        3.703        0.002      336.477        7.804      862.401
10/24/2013  01:41:00      -84.520      -27.043       -5.153       11.048       10.282        6.542      122.057      105.717       42.802        0.409        0.014       88.741        4.317        0.002      336.411        7.695      862.403
10/24/2013  01:42:00      -85.548      -23.128       -5.914       12.419       13.474        7.378      154.230      181.553       54.434        0.414        0.020       88.620        4.428        0.002      336.415        7.701      862.407
10/24/2013  01:43:00      -98.329      -31.652       -9.495        7.953       10.645        4.925       63.248      113.324       24.254        0.548        0.010      103.298        1.561        0.000      336.450        7.759      862.409
10/24/2013  01:44:00      -99.466      -32.759       -9.267       13.233       12.433        7.848      175.109      154.587       61.586        0.572        0.020      104.721        6.391        0.004      336.411        7.694      862.409
10/24/2013  01:45:00     -106.890      -25.544       -8.773       10.369       13.004        8.724      107.519      169.100       76.111        0.625        0.018      109.900        5.079        0.002      336.403        7.680      862.410
10/24/2013  01:46:00     -105.272      -25.374      -12.108        6.839        8.185        8.020       46.769       66.992       64.325        0.603        0.009      108.287        3.693        0.001      336.403        7.681      862.419
10/24/2013  01:47:00     -122.410      -23.364      -17.929       13.875       10.207       10.510      192.507      104.189      110.463        0.813        0.020      124.619        6.638        0.003      336.401        7.677      862.424
10/24/2013  01:48:00     -103.963      -16.547      -12.355       29.053       15.338       12.335      844.089      235.250      152.149        0.623        0.062      105.271       12.873        0.015      336.347        7.588      862.429
10/24/2013  01:49:00     -110.594       -1.471      -13.343       24.435       12.125       12.007      597.084      147.006      144.171        0.665        0.044      110.604       12.578        0.013      336.398        7.672      862.421
10/24/2013  01:50:00     -115.690      -14.195      -14.061       15.237       14.755       10.385      232.176      217.715      107.839        0.717        0.028      116.558        8.477        0.005      336.501        7.846      862.417
10/24/2013  01:51:00      -79.536      -25.778      -11.364       14.331       22.172       11.613      205.377      491.581      134.854        0.398        0.042       83.609       11.594        0.019      336.362        7.612      862.428
10/24/2013  01:52:00      -96.964      -25.739      -13.963       11.461       13.150        7.546      131.365      172.923       56.942        0.531        0.018      100.322        6.406        0.004      336.436        7.736      862.423
10/24/2013  01:53:00     -102.787      -28.867      -13.794       14.038       13.080       11.117      197.057      171.081      123.577        0.604        0.025      106.764        5.825        0.003      336.303        7.514      862.420
10/24/2013  01:54:00     -102.868      -33.972      -15.975        9.618       13.064        8.620       92.513      170.677       74.301        0.616        0.017      108.333        6.074        0.003      336.217        7.371      862.410
10/24/2013  01:55:00      -97.508      -37.812      -10.873       19.015       17.534       12.534      361.585      307.435      157.098        0.594        0.041      104.583        6.623        0.004      336.239        7.408      862.416
10/24/2013  01:56:00      -87.103      -25.742      -10.061       19.483       19.607       13.260      379.607      384.422      175.841        0.465        0.047       90.827        8.593        0.009      336.137        7.235      862.428
10/24/2013  01:57:00      -74.441      -27.014       -3.623       20.301       20.427       14.715      412.120      417.251      216.519        0.366        0.052       79.191       10.684        0.018      336.118        7.205      862.431
10/24/2013  01:58:00     -112.993      -43.077      -16.156       17.605       12.578       10.285      309.954      158.218      105.788        0.773        0.029      120.926        5.595        0.002      336.027        7.053      862.432
10/24/2013  01:59:00     -114.757      -47.326      -10.365       11.157       11.598        8.248      124.469      134.512       68.024        0.792        0.016      124.133        4.724        0.001      336.088        7.156      862.446
10/24/2013  02:00:00     -101.715      -46.791      -11.770       12.544       13.447        8.396      157.353      180.820       70.492        0.654        0.020      111.961        6.137        0.003      336.147        7.254      862.453
10/24/2013  02:01:00     -114.878      -40.703      -12.402       12.362       15.903        8.332      152.824      252.916       69.420        0.774        0.024      121.876        5.331        0.002      336.252        7.428      862.458
10/24/2013  02:02:00      -89.705      -47.873      -12.159       12.981       12.039       10.236      168.496      144.936      104.774        0.545        0.021      101.680        9.159        0.008      336.264        7.448      862.460
10/24/2013  02:03:00     -102.985      -35.984      -12.364       13.495       10.978        9.796      182.115      120.524       95.969        0.623        0.020      109.090        6.224        0.003      336.331        7.559      862.478
10/24/2013  02:04:00     -115.720      -45.237      -15.299       14.508       10.679       10.812      210.473      114.037      116.897        0.806        0.022      124.247        7.996        0.004      336.301        7.512      862.482
10/24/2013  02:05:00     -113.841      -24.038      -14.720       16.015       16.191       13.638      256.474      262.133      185.993        0.723        0.035      116.351       10.389        0.008      336.222        7.380      862.484
10/24/2013  02:06:00     -128.272      -37.787      -12.858       14.741       13.549       11.074      217.286      183.577      122.626        0.929        0.026      133.722        9.460        0.005      336.202        7.345      862.491
10/24/2013  02:07:00     -103.572      -24.552       -4.895       24.469       19.431       14.820      598.721      377.577      219.628        0.627        0.060      106.442       14.044        0.017      336.114        7.196      862.509
10/24/2013  02:08:00     -119.897      -29.032      -11.040       26.236       20.456       16.815      688.305      418.437      282.761        0.836        0.069      123.362       13.400        0.012      336.151        7.261      862.514
10/24/2013  02:09:00     -132.463      -34.311      -19.753       18.333       14.673       10.607      336.102      215.300      112.503        0.989        0.033      136.834        8.282        0.004      336.097        7.170      862.508
10/24/2013  02:10:00     -127.117      -26.483      -17.675       24.446       16.814       14.316      597.593      282.712      204.961        0.913        0.054      129.846       13.081        0.010      336.132        7.227      862.507
10/24/2013  02:11:00     -138.651      -27.885      -17.470       12.126       12.367        9.993      147.039      152.935       99.855        1.035        0.020      141.427        9.114        0.004      336.033        7.063      862.506
10/24/2013  02:12:00     -120.107      -51.646       -7.939       13.960       15.391        9.983      194.868      236.882       99.651        0.884        0.027      130.740        6.438        0.002      335.940        6.909      862.511
10/24/2013  02:13:00     -132.947      -31.607      -15.762        9.940       14.458       10.885       98.794      209.038      118.482        0.967        0.021      136.652        5.424        0.002      335.958        6.936      862.516
10/24/2013  02:14:00     -117.442      -48.922      -12.987       13.421       14.664       11.138      180.121      215.047      124.055        0.844        0.026      127.225        7.665        0.004      336.046        7.085      862.530
10/24/2013  02:15:00     -116.036      -59.339      -14.460       12.653       11.361        9.209      160.111      129.081       84.811        0.878        0.019      130.329        3.878        0.001      336.135        7.234      862.531
10/24/2013  02:16:00     -130.279      -50.535      -13.230       13.270       13.286        9.950      176.087      176.516       99.006        1.008        0.023      139.737        8.494        0.004      335.984        6.981      862.539
10/24/2013  02:17:00     -146.454      -36.076      -17.737       10.417       12.919       10.645      108.506      166.895      113.313        1.173        0.019      150.832        5.093        0.001      336.049        7.090      862.549
10/24/2013  02:18:00     -136.113      -35.442       -9.503       17.580       14.912       13.665      309.067      222.373      186.729        1.030        0.036      140.652       11.712        0.007      336.001        7.008      862.553
10/24/2013  02:19:00     -118.298      -29.148        2.105       36.367       22.440       18.057     1322.547      503.541      326.056        0.850        0.108      121.836       18.527        0.023      335.877        6.804      862.561
10/24/2013  02:20:00     -120.546      -52.358       -4.521       20.387       18.601       11.889      415.647      346.006      141.347        0.910        0.045      131.426       10.243        0.006      336.008        7.022      862.575
10/24/2013  02:21:00     -115.663      -48.277       -5.910        9.141       11.099        9.145       83.553      123.181       83.640        0.802        0.015      125.334        6.041        0.002      336.024        7.048      862.574
10/24/2013  02:22:00      -95.565      -42.324       -0.488       18.315       16.217       14.116      335.443      262.995      199.269        0.586        0.040      104.518       10.064        0.009      335.969        6.957      862.568
10/24/2013  02:23:00     -107.011      -43.149       -0.802       27.156       18.130       11.621      737.440      328.701      135.050        0.726        0.060      115.383       11.129        0.009      335.895        6.833      862.583
10/24/2013  02:24:00     -119.057      -43.089       -6.449       14.804       15.540        9.831      219.148      241.502       96.640        0.831        0.028      126.614        9.129        0.005      335.929        6.889      862.579
10/24/2013  02:25:00     -117.412      -40.257       -7.122       18.548       16.271        9.374      344.016      264.737       87.869        0.808        0.035      124.122        8.282        0.004      336.016        7.036      862.575
10/24/2013  02:26:00     -125.528      -36.696      -15.938        9.552       12.201        8.698       91.237      148.863       75.654        0.884        0.016      130.782        6.100        0.002      335.941        6.910      862.583
10/24/2013  02:27:00     -128.039      -26.406       -6.252       19.090       14.966       13.347      364.431      223.973      178.153        0.895        0.038      130.734        8.018        0.004      335.896        6.835      862.581
10/24/2013  02:28:00     -132.881      -41.234       -8.010       22.671       15.629       13.694      513.989      244.263      187.529        1.018        0.047      139.132       13.340        0.009      335.888        6.823      862.571
10/24/2013  02:29:00     -139.048      -42.174       -4.437       28.831       16.518       15.097      831.211      272.838      227.908        1.123        0.067      145.303       15.038        0.011      335.984        6.982      862.568
10/24/2013  02:30:00     -131.054      -39.406       -9.771       19.921       15.399       13.819      396.854      237.118      190.963        0.982        0.041      136.850        8.485        0.004      335.998        7.005      862.574
10/24/2013  02:31:00     -139.732      -42.172      -13.134       20.376       12.511       12.352      415.172      156.514      152.563        1.110        0.036      145.957        8.699        0.004      335.964        6.948      862.575
10/24/2013  02:32:00     -123.805      -42.437      -15.440       22.401       12.925       13.946      501.782      167.068      194.479        0.911        0.043      130.876       12.441        0.009      335.908        6.854      862.573
10/24/2013  02:33:00     -132.206      -49.509      -20.491       10.333       12.525       10.791      106.775      156.864      116.444        1.036        0.019      141.172        7.085        0.003      335.971        6.958      862.576
10/24/2013  02:34:00     -140.542      -69.973      -12.875       10.225       10.353        9.922      104.543      107.184       98.444        1.256        0.016      156.997        6.440        0.002      336.022        7.044      862.570
10/24/2013  02:35:00     -144.726      -59.383      -19.409        9.704       16.047       10.044       94.164      257.506      100.890        1.265        0.023      156.435        5.779        0.001      336.007        7.020      862.567
10/24/2013  02:36:00     -138.536      -55.038      -18.264       12.881       16.023        9.364      165.932      256.735       87.675        1.153        0.026      149.068        4.847        0.001      335.862        6.779      862.565
10/24/2013  02:37:00     -139.132      -51.290      -16.207       12.481       12.631       10.702      155.770      159.554      114.534        1.134        0.021      148.285        6.752        0.002      335.777        6.637      862.573
10/24/2013  02:38:00     -140.137      -55.715      -11.175       14.013       14.815       10.031      196.371      219.493      100.621        1.169        0.026      150.807        6.903        0.002      335.833        6.731      862.574
10/24/2013  02:39:00     -118.109      -66.312        1.558       34.987       24.770       19.350     1224.100      613.543      374.411        1.028        0.111      135.451       16.882        0.016      335.784        6.648      862.572
10/24/2013  02:40:00     -125.523      -40.080        2.300       41.859       26.576       17.902     1752.167      706.285      320.489        1.007        0.139      131.766       17.949        0.019      335.822        6.713      862.572
10/24/2013  02:41:00     -112.417      -55.546       -5.045       35.737       21.278       15.348     1277.141      452.750      235.563        0.886        0.098      125.392       16.016        0.016      335.769        6.623      862.585
10/24/2013  02:42:00     -127.037      -36.212      -11.484       19.900       15.771       14.377      396.006      248.712      206.695        0.922        0.043      132.098        9.642        0.005      335.797        6.670      862.580
10/24/2013  02:43:00     -117.968      -59.558       -6.854       26.042       20.632       15.704      678.184      425.696      246.618        0.943        0.068      132.150       14.787        0.013      335.773        6.629      862.573
10/24/2013  02:44:00     -134.942      -71.413       -2.991       21.327       20.686       16.822      454.841      427.907      282.994        1.224        0.058      152.674       10.408        0.005      335.763        6.614      862.572
10/24/2013  02:45:00     -131.229      -63.273        0.555       30.228       26.106       17.966      913.754      681.543      322.775        1.157        0.096      145.686        8.520        0.003      335.784        6.649      862.568
10/24/2013  02:46:00     -134.434      -50.806       -4.606       31.601       18.677       17.275      998.601      348.815      298.433        1.116        0.082      143.714       17.218        0.014      335.834        6.731      862.559
10/24/2013  02:47:00     -121.828      -55.664        3.687       37.821       27.955       18.357     1430.451      781.466      336.982        1.025        0.127      133.942       20.738        0.024      335.812        6.695      862.552
10/24/2013  02:48:00      -78.293      -42.080        3.704       56.630       27.402       24.697     3206.948      750.865      609.922        0.624        0.228       88.885       29.340        0.109      335.892        6.827      862.555
10/24/2013  02:49:00     -110.113      -49.800        3.182       38.181       25.919       19.808     1457.780      671.809      392.350        0.857        0.126      120.851       19.326        0.026      335.925        6.883      862.546
10/24/2013  02:50:00     -128.611      -59.385       -5.048       20.875       20.051       16.568      435.777      402.050      274.510        1.060        0.056      141.659       14.215        0.010      335.834        6.732      862.544
10/24/2013  02:51:00     -124.433      -62.464      -11.067       22.468       16.550       13.483      504.807      273.909      181.795        1.023        0.048      139.231       10.966        0.006      335.789        6.658      862.554
10/24/2013  02:52:00     -103.300      -50.506       -7.527       32.920       23.892       14.508     1083.740      570.825      210.492        0.757        0.093      114.986       14.425        0.016      335.734        6.567      862.560
10/24/2013  02:53:00     -147.603      -56.278      -12.905       16.245       15.467       12.850      263.916      239.216      165.113        1.289        0.033      157.968        8.741        0.003      335.740        6.576      862.562
10/24/2013  02:54:00     -160.199      -43.921      -12.225       14.111       18.296       12.607      199.115      334.732      158.934        1.422        0.035      166.111        5.550        0.001      335.729        6.556      862.563
10/24/2013  02:55:00     -144.674      -55.438       -8.563       26.770       19.652       17.403      716.632      386.193      302.877        1.274        0.070      154.932       16.762        0.012      335.691        6.494      862.562
10/24/2013  02:56:00     -140.106      -87.059       -1.943       31.285       30.890       21.911      978.734      954.210      480.093        1.481        0.121      164.951       19.433        0.014      335.617        6.370      862.549
10/24/2013  02:57:00     -157.391      -40.505        2.902       41.111       32.003       25.280     1690.152     1024.174      639.100        1.489        0.168      162.519       24.457        0.023      335.604        6.350      862.541
10/24/2013  02:58:00     -139.003      -37.394       -3.250       37.249       26.806       19.747     1387.515      718.557      389.946        1.161        0.125      143.945       18.100        0.016      335.738        6.570      862.544
10/24/2013  02:59:00     -152.230      -78.609      -13.625       26.801       22.180       16.861      718.306      491.968      284.284        1.552        0.075      171.328       12.471        0.005      335.709        6.525      862.543
10/24/2013  03:00:00     -142.263      -70.997      -15.218       19.798       25.429       18.242      391.949      646.610      332.788        1.344        0.069      158.995        9.179        0.003      335.722        6.545      862.546
10/24/2013  03:01:00     -112.738      -48.370       -2.290       45.411       22.613       15.222     2062.187      511.332      231.699        0.893        0.140      122.677       15.369        0.016      335.710        6.528      862.556
10/24/2013  03:02:00     -130.604      -48.584       -7.220       23.217       22.574       14.481      539.041      509.594      209.713        1.036        0.063      139.348       12.363        0.008      335.741        6.577      862.556
10/24/2013  03:03:00     -106.015      -57.013      -10.884       23.617       16.036       11.641      557.764      257.143      135.515        0.778        0.048      120.373        1.575        0.000      335.812        6.696      862.552
10/24/2013  03:04:00      -91.255      -62.440       -7.694       26.655       21.066       13.072      710.508      443.778      170.869        0.681        0.066      110.572        8.528        0.006      335.723        6.548      862.557
10/24/2013  03:05:00      -88.840      -46.727        2.082       33.529       24.672       19.667     1124.208      608.684      386.797        0.610        0.106      100.379       19.309        0.037      335.717        6.536      862.567
10/24/2013  03:06:00      -61.672      -44.192        0.974       43.522       24.510       15.637     1894.123      600.718      244.530        0.425        0.137       75.871       13.498        0.032      335.712        6.529      862.569
10/24/2013  03:07:00      -50.073      -34.788       -1.363       28.257       18.649       17.001      798.476      347.802      289.020        0.258        0.072       60.971       16.290        0.071      335.755        6.601      862.571
10/24/2013  03:08:00      -79.038      -35.801       -3.350       22.412       17.172       12.938      502.302      294.861      167.394        0.425        0.048       86.768       10.588        0.015      335.733        6.564      862.578
10/24/2013  03:09:00      -71.869      -44.626      -10.624       17.418       13.049       10.395      303.371      170.282      108.062        0.393        0.029       84.597        5.680        0.005      335.839        6.740      862.579
10/24/2013  03:10:00      -88.233      -53.052       -9.460       18.670       17.834       10.852      348.579      318.042      117.775        0.574        0.039      102.955        9.823        0.009      335.882        6.812      862.575
10/24/2013  03:11:00      -48.444      -41.030        2.989       34.019       28.326       19.735     1157.284      802.345      389.461        0.319        0.117       63.485       16.374        0.067      335.854        6.765      862.568
10/24/2013  03:12:00      -62.210      -49.933        3.544       41.186       28.470       18.965     1696.308      810.554      359.663        0.462        0.143       79.771       13.984        0.031      335.978        6.971      862.569
10/24/2013  03:13:00      -79.920      -46.063       -0.229       22.031       29.173       17.611      485.355      851.065      310.160        0.508        0.082       92.244       14.945        0.026      336.061        7.110      862.572
10/24/2013  03:14:00      -73.614      -48.640       -4.710       29.734       23.273       14.334      884.098      541.627      205.450        0.472        0.082       88.231       10.069        0.013      335.982        6.978      862.566
10/24/2013  03:15:00      -86.630      -52.043        1.756       34.691       23.105       19.436     1203.464      533.819      377.764        0.617        0.106      101.061       17.906        0.031      335.917        6.870      862.567
10/24/2013  03:16:00     -124.121      -66.684       -2.930       39.041       23.849       22.816     1524.206      568.782      520.577        1.124        0.131      140.900       13.201        0.009      335.914        6.865      862.557
10/24/2013  03:17:00     -118.750      -54.937       -0.607       25.125       28.076       14.373      631.276      788.275      206.587        0.937        0.081      130.842       11.071        0.007      335.888        6.822      862.555
10/24/2013  03:18:00      -89.502      -34.257        1.060       29.649       23.605       18.833      879.072      557.218      354.666        0.549        0.090       95.834       17.402        0.033      335.827        6.721      862.559
10/24/2013  03:19:00      -79.687      -32.415        4.481       26.364       24.398       17.525      695.037      595.243      307.133        0.451        0.080       86.027       13.491        0.025      335.758        6.606      862.565
10/24/2013  03:20:00      -95.546      -39.514        1.574       25.065       30.316       17.733      628.259      919.032      314.456        0.628        0.093      103.394       13.538        0.017      335.644        6.415      862.563
10/24/2013  03:21:00      -97.372      -40.135       -1.736       24.271       18.182       15.607      589.085      330.589      243.588        0.613        0.058      105.319       14.612        0.019      335.606        6.352      862.563
10/24/2013  03:22:00     -112.358      -35.061       -5.123       28.670       18.992       16.389      821.958      360.684      268.598        0.767        0.073      117.701       12.344        0.011      335.640        6.409      862.568
10/24/2013  03:23:00      -91.695      -34.784       -1.765       30.251       23.442       17.092      915.123      549.536      292.134        0.569        0.088       98.071       16.096        0.027      335.588        6.322      862.583
10/24/2013  03:24:00     -109.704      -35.307       -3.762       25.092       18.366       12.868      629.602      337.324      165.580        0.721        0.057      115.246        9.482        0.007      335.575        6.301      862.595
10/24/2013  03:25:00      -94.426      -16.400       -2.503       29.078       22.944       16.104      845.545      526.427      259.338        0.541        0.082       95.840       16.898        0.031      335.492        6.161      862.600
10/24/2013  03:26:00     -121.399      -13.296       -6.167       27.349       20.541       15.768      747.976      421.917      248.621        0.819        0.071      122.125       15.848        0.017      335.481        6.144      862.590
10/24/2013  03:27:00     -128.586       -2.674      -11.159       34.697       15.534       16.856     1203.876      241.290      284.116        0.920        0.086      128.614       18.303        0.020      335.479        6.140      862.589
10/24/2013  03:28:00     -135.916      -13.298      -15.792       16.454       13.204       12.933      270.734      174.335      167.257        0.976        0.031      136.565        7.853        0.003      335.559        6.273      862.584
10/24/2013  03:29:00      -82.861      -10.432       -1.087       34.793       22.580       18.934     1210.570      509.877      358.514        0.453        0.104       83.515       22.142        0.070      335.576        6.301      862.578
10/24/2013  03:30:00      -97.234      -40.150       -2.474       26.649       16.343       13.618      710.188      267.102      185.456        0.612        0.058      105.197       13.210        0.016      335.656        6.435      862.566
10/24/2013  03:31:00      -97.001      -40.268        0.574       37.181       21.587       14.927     1382.423      465.991      222.813        0.655        0.104      105.027       17.855        0.029      335.629        6.391      862.559
10/24/2013  03:32:00      -63.253      -58.403        2.332       48.051       35.378       21.713     2308.870     1251.610      471.461        0.572        0.202       86.092       25.263        0.086      335.641        6.411      862.553
10/24/2013  03:33:00      -98.427      -50.525        0.197       41.070       25.177       17.244     1686.737      633.863      297.367        0.743        0.131      110.638       19.247        0.030      335.780        6.641      862.565
10/24/2013  03:34:00     -110.143      -66.092        2.189       37.379       22.672       20.937     1397.181      514.014      438.347        0.943        0.117      128.450       20.674        0.026      335.688        6.489      862.558
10/24/2013  03:35:00     -102.926      -47.772        2.232       34.340       28.137       17.402     1179.247      791.683      302.826        0.758        0.114      113.472       16.622        0.021      335.716        6.536      862.552
10/24/2013  03:36:00      -75.989      -53.342        7.304       46.680       30.966       21.612     2179.001      958.886      467.089        0.614        0.180       92.842       22.853        0.061      335.674        6.465      862.541
10/24/2013  03:37:00      -82.524      -45.112        4.826       42.740       23.363       18.331     1826.669      545.817      336.033        0.579        0.135       94.050       19.450        0.043      335.624        6.383      862.528
10/24/2013  03:38:00      -67.914      -30.444        6.012       37.533       28.235       20.222     1408.718      797.218      408.911        0.409        0.131       74.426       18.435        0.061      335.518        6.205      862.534
10/24/2013  03:39:00     -100.535      -45.456        0.439       25.390       21.674       14.624      644.634      469.748      213.871        0.675        0.066      110.334       13.481        0.015      335.535        6.233      862.531
10/24/2013  03:40:00      -81.678      -44.483        3.419       38.373       24.584       18.513     1472.481      604.388      342.731        0.554        0.121       93.005       18.186        0.038      335.644        6.416      862.518
10/24/2013  03:41:00      -95.144      -42.888        3.128       31.194       23.316       17.238      973.095      543.638      297.144        0.636        0.091      104.363       18.238        0.031      335.631        6.394      862.512
10/24/2013  03:42:00     -100.185      -39.643        3.646       37.874       19.973       17.712     1434.464      398.932      313.714        0.688        0.107      107.744       18.706        0.030      335.583        6.313      862.513
10/24/2013  03:43:00     -120.125      -49.765        0.149       29.347       22.035       17.854      861.219      485.524      318.761        0.929        0.083      130.025       13.747        0.011      335.630        6.393      862.507
10/24/2013  03:44:00      -66.059      -31.941        7.301       49.494       20.325       17.702     2449.620      413.109      313.374        0.431        0.159       73.376       20.265        0.076      335.614        6.365      862.497
10/24/2013  03:45:00      -79.625      -32.305        0.854       26.924       17.160       15.105      724.925      294.468      228.146        0.432        0.062       85.929       15.851        0.034      335.553        6.264      862.507
10/24/2013  03:46:00     -101.376      -44.983       -0.359       24.558       15.589       13.946      603.106      243.007      194.501        0.667        0.052      110.908        9.987        0.008      335.544        6.249      862.504
10/24/2013  03:47:00      -83.655      -43.554       -2.033       40.068       22.390       17.345     1605.406      501.333      300.865        0.565        0.120       94.314       18.272        0.038      335.513        6.198      862.502
10/24/2013  03:48:00      -81.350      -61.292       -0.550       41.455       31.354       20.546     1718.479      983.081      422.120        0.675        0.156      101.856       18.454        0.033      335.538        6.238      862.494
10/24/2013  03:49:00      -95.063      -44.728       -3.813       23.460       16.866       15.746      550.371      284.449      247.928        0.607        0.054      105.060       15.807        0.023      335.386        5.985      862.501
10/24/2013  03:50:00      -76.879      -37.729        1.932       24.686       22.062       18.460      609.419      486.753      340.775        0.439        0.072       85.638       14.551        0.029      335.413        6.029      862.512
10/24/2013  03:51:00      -47.665      -33.849        6.504       39.840       28.623       21.352     1587.187      819.304      455.899        0.316        0.143       58.461       18.203        0.097      335.377        5.970      862.516
10/24/2013  03:52:00      -48.788      -37.623        5.346       32.333       23.828       15.575     1045.432      567.788      242.585        0.284        0.093       61.610       16.315        0.070      335.420        6.041      862.516
10/24/2013  03:53:00      -86.251      -56.683        5.410       38.089       25.625       19.955     1450.767      656.635      398.198        0.659        0.125      103.210       17.505        0.029      335.392        5.995      862.509
10/24/2013  03:54:00      -44.603      -35.055        7.814       35.710       23.296       17.863     1275.178      542.690      319.103        0.271        0.107       56.730       14.859        0.069      335.425        6.050      862.524
10/24/2013  03:55:00      -19.942      -36.227       10.913       29.788       21.032       16.346      887.345      442.330      267.186        0.171        0.080       41.353       17.827        0.186      335.576        6.303      862.527
10/24/2013  03:56:00      -39.843      -32.985       15.398       52.806       22.796       20.189     2788.442      519.646      407.607        0.331        0.186       51.725       25.977        0.252      335.487        6.154      862.526
10/24/2013  03:57:00      -23.142      -24.522       -3.011       29.721       21.776       19.785      883.328      474.183      391.455        0.145        0.087       33.718       19.413        0.331      335.507        6.187      862.525
10/24/2013  03:58:00      -27.595      -26.715        3.737       16.220       15.932       13.819      263.089      253.813      190.952        0.110        0.035       38.408       10.867        0.080      335.536        6.234      862.534
10/24/2013  03:59:00      -43.459      -35.993        0.097       30.227       17.687       12.665      913.693      312.827      160.398        0.229        0.069       56.428       11.701        0.043      335.527        6.220      862.536
10/24/2013  04:00:00      -68.029      -43.567       -2.760       36.219       22.148       16.874     1311.792      490.525      284.747        0.431        0.104       80.784       18.304        0.051      335.523        6.214      862.539
10/24/2013  04:01:00      -79.317      -70.047       -2.801       38.236       31.697       18.246     1462.026     1004.706      332.907        0.700        0.140      105.820       22.057        0.043      335.539        6.240      862.539
10/24/2013  04:02:00      -70.819      -41.939       -1.127       42.111       27.539       15.344     1773.348      758.414      235.450        0.477        0.138       82.306       17.781        0.047      335.527        6.220      862.544
10/24/2013  04:03:00      -47.687      -35.423       -0.297       23.386       18.797       15.478      546.923      353.310      239.559        0.233        0.057       59.404       12.879        0.047      335.535        6.233      862.542
10/24/2013  04:04:00      -68.327      -39.860        1.787       25.075       17.677       17.702      628.762      312.478      313.363        0.376        0.063       79.104       15.266        0.037      335.418        6.038      862.551
10/24/2013  04:05:00     -100.693      -38.153       -4.728       12.477       15.623        7.963      155.667      244.073       63.408        0.604        0.023      107.679        7.379        0.005      335.466        6.117      862.557
10/24/2013  04:06:00     -102.380      -36.440       -7.551       13.543       16.754        9.604      183.419      280.681       92.233        0.621        0.028      108.672        4.989        0.002      335.438        6.071      862.550
10/24/2013  04:07:00      -89.017      -20.668       -3.039       24.018       14.885       11.969      576.867      221.569      143.253        0.465        0.047       91.385        8.192        0.008      335.390        5.990      862.545
10/24/2013  04:08:00      -73.073      -14.765       -1.101       16.284       15.557       10.269      265.155      242.030      105.452        0.309        0.031       74.550        7.604        0.010      335.416        6.036      862.543
10/24/2013  04:09:00     -104.508      -30.929       -4.423       28.987       14.171        9.297      840.262      200.813       86.434        0.651        0.056      108.989        9.688        0.008      335.421        6.044      862.555
10/24/2013  04:10:00     -127.264      -33.158       -5.214       48.055       23.500       17.376     2309.297      552.257      301.917        1.024        0.158      131.513       22.890        0.030      335.348        5.920      862.554
10/24/2013  04:11:00     -108.381      -17.196       -5.600       33.763       22.728       17.366     1139.940      516.541      301.570        0.702        0.098      109.737       19.059        0.030      335.312        5.860      862.550
10/24/2013  04:12:00     -118.117      -29.069       -8.998       27.731       14.125       17.088      769.022      199.513      291.986        0.807        0.063      121.641        3.282        0.001      335.216        5.701      862.543
10/24/2013  04:13:00     -101.631      -24.055       -6.719       34.145       24.272       17.572     1165.890      589.119      308.772        0.651        0.103      104.439       16.078        0.024      335.208        5.689      862.541
10/24/2013  04:14:00     -111.407      -39.648       -4.782       27.783       32.398       20.173      771.870     1049.641      406.939        0.812        0.111      118.252       15.125        0.016      335.092        5.498      862.548
10/24/2013  04:15:00     -114.855      -39.906       -4.565       20.537       20.867       16.525      421.775      435.427      273.074        0.797        0.057      121.590       14.509        0.014      335.086        5.487      862.553
10/24/2013  04:16:00     -108.473      -35.112       -6.394       14.169       13.764       12.524      200.747      189.446      156.863        0.679        0.027      114.014        5.716        0.003      335.097        5.504      862.539
10/24/2013  04:17:00     -120.833      -37.192       -9.739       13.567       17.126       10.696      184.054      293.286      114.411        0.834        0.030      126.427        6.146        0.002      335.078        5.474      862.543
10/24/2013  04:18:00     -103.136      -22.988      -14.905       15.418       12.392        9.116      237.710      153.573       83.101        0.593        0.024      105.666        8.146        0.006      335.140        5.575      862.545
10/24/2013  04:19:00      -94.085      -37.931       -9.527       13.657       15.291       10.266      186.517      233.823      105.397        0.545        0.026      101.444        5.500        0.003      335.282        5.812      862.545
10/24/2013  04:20:00     -112.094      -39.145      -10.617       16.436       12.271       11.712      270.149      150.588      137.172        0.738        0.028      118.732        8.933        0.006      335.249        5.756      862.535
10/24/2013  04:21:00     -140.934      -34.868      -14.140       10.431       11.274        9.390      108.796      127.110       88.176        1.080        0.016      145.183        4.210        0.001      335.236        5.736      862.533
10/24/2013  04:22:00     -132.219      -38.585      -13.242       13.694       15.813       10.515      187.535      250.062      110.573        0.985        0.027      137.734        6.724        0.002      335.203        5.679      862.539
10/24/2013  04:23:00     -120.307      -29.042       -9.311        9.822       12.809        9.180       96.481      164.060       84.272        0.787        0.017      123.762        4.521        0.001      335.142        5.581      862.546
10/24/2013  04:24:00      -81.534      -41.252        1.500       30.415       22.532       15.207      925.094      507.673      231.243        0.501        0.083       91.375       16.667        0.033      335.169        5.624      862.552
10/24/2013  04:25:00     -102.219      -54.353       -6.047       13.589       14.925       10.318      184.662      222.754      106.456        0.698        0.026      115.771        4.850        0.002      335.262        5.778      862.554
10/24/2013  04:26:00     -110.400      -52.978       -7.691       15.809       16.028       14.866      249.915      256.905      220.991        0.789        0.036      122.454       10.193        0.007      335.205        5.684      862.561
10/24/2013  04:27:00     -110.494      -48.897       -1.705       19.518       18.080       11.588      380.949      326.903      134.271        0.772        0.042      120.830       10.641        0.008      335.180        5.641      862.570
10/24/2013  04:28:00     -121.361      -43.195       -6.599       16.645       10.197        9.694      277.051      103.982       93.980        0.856        0.024      128.819        8.648        0.005      335.123        5.549      862.582
10/24/2013  04:29:00     -109.835      -29.480      -13.925       19.486       13.823       12.356      379.716      191.079      152.668        0.692        0.036      113.722       10.323        0.008      335.153        5.597      862.585
10/24/2013  04:30:00     -125.023      -42.956      -15.484       18.935       15.933       13.283      358.534      253.856      176.448        0.925        0.039      132.197        5.606        0.002      335.120        5.544      862.592
10/24/2013  04:31:00      -86.143      -36.086       -3.933       20.732       20.271       13.960      429.825      410.927      194.872        0.489        0.052       93.396       10.480        0.013      335.014        5.368      862.598
10/24/2013  04:32:00      -94.836      -28.199       -8.142       20.007       20.084       15.346      400.270      403.355      235.514        0.545        0.052       98.939        9.803        0.010      334.979        5.309      862.603
10/24/2013  04:33:00      -91.978      -43.316      -10.780       24.192       22.579       15.999      585.231      509.816      255.978        0.590        0.068      101.667        9.387        0.009      335.014        5.367      862.610
10/24/2013  04:34:00      -65.754      -61.174       -5.082       26.046       21.376       17.904      678.417      456.926      320.549        0.477        0.073       89.810       13.142        0.021      335.010        5.360      862.609
10/24/2013  04:35:00      -92.770      -54.427      -12.793       37.861       20.751       16.291     1433.443      430.624      265.410        0.693        0.106      107.558       20.520        0.036      334.996        5.337      862.608
10/24/2013  04:36:00     -118.019      -34.196      -18.881       14.905       12.425       10.535      222.159      154.380      110.993        0.797        0.024      122.873        3.799        0.001      334.995        5.337      862.605
10/24/2013  04:37:00      -98.900      -38.372      -18.797        8.336       11.687        6.592       69.484      136.595       43.453        0.593        0.012      106.084        4.266        0.002      335.049        5.425      862.606
10/24/2013  04:38:00      -87.775      -39.422      -14.724        6.738        8.669        8.619       45.403       75.155       74.292        0.484        0.010       96.221        3.450        0.001      335.073        5.466      862.615
10/24/2013  04:39:00     -103.909      -47.713      -18.255        8.933        8.402        9.047       79.806       70.591       81.856        0.682        0.012      114.340        4.909        0.002      335.140        5.576      862.626
10/24/2013  04:40:00      -92.809      -48.606      -15.047       11.497        8.299        9.684      132.191       68.870       93.773        0.575        0.015      104.767        4.619        0.002      335.141        5.579      862.632
10/24/2013  04:41:00      -75.427      -49.323      -15.644       12.092        8.287        9.023      146.211       68.667       81.420        0.433        0.015       90.122        3.455        0.001      335.177        5.638      862.628
10/24/2013  04:42:00      -92.805      -31.465      -12.871       11.288       22.195        9.191      127.424      492.624       84.473        0.524        0.035       97.994        7.762        0.006      335.304        5.846      862.634
10/24/2013  04:43:00     -117.512      -23.577      -12.470       11.611       13.810        9.179      134.825      190.714       84.252        0.747        0.020      119.854        4.206        0.001      335.261        5.776      862.633
10/24/2013  04:44:00     -106.295      -35.973      -10.330       13.287       13.517       11.520      176.553      182.711      132.702        0.660        0.025      112.217        7.526        0.004      335.310        5.858      862.627
10/24/2013  04:45:00      -97.273      -33.224      -11.631       12.389       16.077        8.853      153.499      258.461       78.368        0.560        0.025      102.790        1.618        0.000      335.319        5.872      862.622
10/24/2013  04:46:00     -101.962      -43.065      -16.261        9.382       10.227        8.180       88.022      104.591       66.918        0.639        0.013      110.683        4.670        0.002      335.243        5.747      862.636
10/24/2013  04:47:00      -98.484      -20.845      -12.294       14.009       12.718       11.991      196.240      161.754      143.787        0.539        0.025      100.666        7.681        0.006      335.210        5.692      862.650
10/24/2013  04:48:00      -90.705      -34.189      -13.459       15.706       11.874        9.785      246.686      140.994       95.748        0.503        0.024       96.935        8.879        0.008      335.185        5.649      862.655
10/24/2013  04:49:00      -88.493      -35.441       -8.973        9.109        8.413        6.894       82.968       70.786       47.527        0.468        0.010       95.327        1.598        0.000      335.192        5.664      862.661
10/24/2013  04:50:00      -94.353      -36.542      -12.859       12.482       13.801        9.743      155.794      190.467       94.928        0.542        0.022      101.181        5.523        0.003      335.200        5.676      862.660
10/24/2013  04:51:00     -100.690      -38.210      -12.168       11.461       12.978        9.005      131.353      168.428       81.087        0.606        0.019      107.696        7.540        0.005      335.164        5.616      862.675
10/24/2013  04:52:00      -87.992      -35.049       -9.797        9.522       13.015        8.594       90.668      169.395       73.853        0.470        0.017       94.716        4.210        0.002      335.176        5.636      862.681
10/24/2013  04:53:00      -91.109      -39.478      -13.811       13.488       12.668        7.480      181.931      160.485       55.954        0.522        0.020       99.294        4.249        0.002      335.233        5.731      862.680
10/24/2013  04:54:00      -91.797      -42.078      -16.022        7.978        7.285        6.350       63.643       53.078       40.326        0.531        0.008      100.982        3.949        0.002      335.179        5.641      862.676
10/24/2013  04:55:00      -96.059      -49.943      -11.038        6.780        9.279        5.498       45.963       86.108       30.225        0.600        0.008      108.266        3.925        0.001      335.233        5.729      862.682
10/24/2013  04:56:00      -88.394      -45.717      -12.802        4.930        6.546        4.007       24.302       42.856       16.058        0.508        0.004       99.517        1.435        0.000      335.319        5.871      862.680
10/24/2013  04:57:00     -108.436      -45.415      -11.566       14.228       14.773        9.581      202.439      218.240       91.803        0.723        0.026      117.563        5.294        0.002      335.377        5.968      862.677
10/24/2013  04:58:00     -101.665      -45.057       -7.402       14.989       13.511       10.143      224.683      182.549      102.870        0.647        0.026      111.202        7.902        0.005      335.277        5.803      862.679
10/24/2013  04:59:00      -94.007      -18.207      -11.765        9.704        8.446        9.136       94.165       71.343       83.461        0.478        0.012       95.754        3.345        0.001      335.269        5.790      862.679
10/24/2013  05:00:00      -91.111      -18.704      -10.408       10.229       10.860        7.863      104.627      117.943       61.825        0.452        0.014       93.011        4.773        0.003      335.296        5.833      862.685
10/24/2013  05:01:00      -85.082      -29.109      -12.770        8.538       15.507        8.863       72.900      240.463       78.559        0.432        0.020       89.924        3.526        0.002      335.297        5.835      862.688
10/24/2013  05:02:00     -108.157      -49.704       -2.627       28.482       14.136       12.400      811.200      199.823      153.770        0.767        0.058      119.032       10.517        0.008      335.197        5.669      862.692
10/24/2013  05:03:00      -67.411      -25.429       -3.851       17.395       12.345       14.647      302.583      152.395      214.525        0.294        0.033       72.047       12.935        0.032      335.252        5.760      862.697
10/24/2013  05:04:00      -86.969      -20.510      -12.997       15.385       12.385        7.110      236.703      153.400       50.552        0.430        0.022       89.355        3.553        0.002      335.283        5.814      862.704
10/24/2013  05:05:00     -112.169      -24.624      -13.523       14.171       15.942       11.452      200.811      254.142      131.158        0.698        0.029      114.840        7.535        0.004      335.176        5.637      862.721
10/24/2013  05:06:00      -92.195       -8.487       -8.392       23.917       12.872       12.575      572.006      165.678      158.125        0.477        0.045       92.584       13.157        0.020      335.101        5.512      862.728
10/24/2013  05:07:00      -96.098      -21.558      -11.428       12.702       13.017        7.936      161.351      169.446       62.987        0.511        0.020       98.486        3.952        0.002      335.191        5.661      862.725
10/24/2013  05:08:00     -126.682      -47.058       -6.145       22.211       21.672       13.635      493.313      469.658      185.902        0.972        0.057      135.140       11.197        0.007      335.093        5.499      862.730
10/24/2013  05:09:00     -100.545      -61.219        4.248       32.796       22.938       19.852     1075.574      526.159      394.115        0.794        0.100      117.716       16.519        0.020      335.061        5.445      862.737
10/24/2013  05:10:00     -109.759      -61.560       -7.837       28.805       22.534       17.440      829.700      507.760      304.164        0.877        0.082      125.844       10.026        0.006      335.090        5.495      862.739
10/24/2013  05:11:00     -135.557      -46.348      -10.360       21.779       18.018       11.734      474.320      324.650      137.684        1.078        0.047      143.261       10.055        0.005      335.008        5.359      862.739
10/24/2013  05:12:00     -101.124      -21.447       -8.307       22.622       16.266       13.235      511.777      264.583      175.169        0.585        0.048      103.373       13.099        0.016      334.994        5.334      862.750
10/24/2013  05:13:00     -112.717      -45.384       -9.338       19.750       16.207       10.526      390.062      262.664      110.800        0.781        0.038      121.511        6.629        0.003      335.195        5.667      862.751
10/24/2013  05:14:00      -99.894      -36.924      -12.040       18.898       16.119       11.452      357.118      259.818      131.156        0.612        0.037      106.500        9.555        0.008      335.133        5.565      862.748
10/24/2013  05:15:00      -70.022      -49.765       -8.863       13.959       12.248        8.367      194.863      150.005       70.012        0.394        0.021       85.904        5.234        0.004      335.174        5.632      862.749
10/24/2013  05:16:00      -99.217      -46.432      -11.834       15.060       14.249        9.667      226.803      203.021       93.457        0.633        0.026      109.544       11.303        0.011      335.209        5.689      862.746
10/24/2013  05:17:00     -103.437       -9.587      -15.246       19.015       15.386       14.306      361.587      236.737      204.653        0.591        0.040      103.880       12.660        0.015      335.148        5.589      862.748
10/24/2013  05:18:00      -80.112      -13.533       -9.562       20.182       12.612        9.621      407.301      159.069       92.564        0.368        0.033       81.247        4.559        0.003      335.121        5.545      862.763
10/24/2013  05:19:00      -94.921      -19.122      -17.340        8.887       10.316        7.310       78.972      106.423       53.432        0.496        0.012       96.828        2.844        0.001      335.143        5.581      862.762
10/24/2013  05:20:00     -103.988      -35.380      -11.615       12.557       12.291        9.019      157.674      151.073       81.336        0.630        0.020      109.842        7.784        0.005      335.161        5.611      862.765
10/24/2013  05:21:00     -105.408      -33.016      -13.792        6.725        6.440        5.451       45.232       41.470       29.713        0.625        0.006      110.457        4.600        0.002      335.231        5.727      862.763
10/24/2013  05:22:00      -89.676      -31.421      -15.266       11.841       11.364        8.991      140.198      129.135       80.844        0.481        0.018       95.021        5.523        0.003      335.232        5.728      862.763
10/24/2013  05:23:00      -97.006      -38.905       -9.652       11.485        9.049        5.884      131.902       81.882       34.620        0.563        0.012      104.517        3.995        0.001      335.221        5.711      862.765
10/24/2013  05:24:00     -107.390      -40.633       -6.705       14.573       25.491       10.237      212.382      649.771      104.802        0.710        0.048      114.820        5.901        0.003      335.207        5.687      862.779
10/24/2013  05:25:00     -105.667      -19.288      -14.445       18.277       16.075       13.386      334.058      258.405      179.191        0.626        0.039      107.412        9.495        0.008      335.080        5.477      862.776
10/24/2013  05:26:00     -106.449      -35.207      -14.002       18.192       14.109       11.136      330.932      199.076      124.020        0.671        0.033      112.121        5.672        0.003      335.001        5.345      862.779
10/24/2013  05:27:00     -102.518      -20.096      -16.759       27.265       15.625       13.003      743.354      244.144      169.079        0.618        0.058      104.469       11.578        0.012      335.008        5.358      862.772
10/24/2013  05:28:00      -85.955      -32.092       -9.665       26.477       23.495       19.051      701.025      552.000      362.925        0.506        0.081       91.750       16.875        0.034      335.051        5.430      862.776
10/24/2013  05:29:00     -103.855      -39.427       -8.362       30.612       25.312       14.671      937.070      640.701      215.230        0.710        0.090      111.087       11.355        0.010      334.993        5.332      862.778
10/24/2013  05:30:00     -127.266      -39.424      -19.365       19.363       14.145       10.029      374.918      200.074      100.573        0.940        0.034      133.233        7.803        0.003      334.931        5.228      862.780
10/24/2013  05:31:00     -132.972      -33.666      -13.515       12.311       14.184        9.342      151.549      201.196       87.273        0.972        0.022      137.167        5.903        0.002      334.911        5.196      862.789
10/24/2013  05:32:00     -123.391      -30.190      -16.170       17.451       14.752       11.631      304.546      217.609      135.269        0.853        0.033      127.030       10.656        0.007      334.923        5.215      862.796
10/24/2013  05:33:00     -121.018      -26.327      -13.199       28.904       19.126       18.655      835.441      365.790      348.023        0.853        0.077      123.849       14.485        0.014      334.980        5.311      862.795
10/24/2013  05:34:00     -111.057      -38.721      -11.274       40.987       21.960       20.077     1679.911      482.259      403.095        0.826        0.128      117.614       23.649        0.040      334.924        5.217      862.799
10/24/2013  05:35:00     -127.048      -39.230      -14.755       17.633       15.677       14.734      310.927      245.774      217.100        0.934        0.039      132.967        7.946        0.004      334.939        5.242      862.799
10/24/2013  05:36:00     -113.806      -33.834      -16.180       17.292       14.212        9.122      299.020      201.994       83.216        0.747        0.029      118.729        2.622        0.000      334.845        5.085      862.799
10/24/2013  05:37:00     -100.345      -31.336       -4.512       28.474       17.503       14.626      810.781      306.344      213.929        0.620        0.067      105.124       14.888        0.020      334.784        4.987      862.798
10/24/2013  05:38:00      -92.689      -49.541       -6.733       17.921       25.910       14.950      321.161      671.307      223.497        0.615        0.061      105.098        9.351        0.008      334.873        5.133      862.796
10/24/2013  05:39:00     -105.733      -39.839      -15.572       14.749       11.668       13.235      217.541      136.144      175.156        0.677        0.026      112.989        4.071        0.001      334.798        5.007      862.799
10/24/2013  05:40:00      -99.803      -27.108      -12.099       18.228       20.542       13.030      332.272      421.974      169.778        0.588        0.046      103.419        8.594        0.007      334.879        5.142      862.801
10/24/2013  05:41:00     -105.196      -33.694       -8.467       18.860       26.339       16.624      355.699      693.719      276.367        0.680        0.066      110.461       11.901        0.012      334.817        5.041      862.806
10/24/2013  05:42:00      -89.781      -31.903      -11.609       19.510       28.674       18.008      380.622      822.206      324.278        0.537        0.076       95.281       12.884        0.018      334.738        4.909      862.805
10/24/2013  05:43:00     -101.523      -42.218      -11.660       23.901       22.657       17.555      571.254      513.327      308.171        0.681        0.070      109.951       14.752        0.018      334.693        4.832      862.805
10/24/2013  05:44:00      -87.322      -55.465      -14.676       25.641       24.396       12.543      657.457      595.158      157.337        0.616        0.070      103.448        7.861        0.006      334.693        4.835      862.804
10/24/2013  05:45:00      -63.333      -39.285      -10.899       28.905       24.082       19.232      835.513      579.920      369.877        0.373        0.089       74.527       18.276        0.060      334.711        4.865      862.804
10/24/2013  05:46:00      -85.018      -48.683      -11.241       24.328       21.227       16.011      591.829      450.567      256.347        0.551        0.065       97.970       11.730        0.014      334.676        4.807      862.798
10/24/2013  05:47:00      -98.841      -30.208      -16.238       25.311       18.368       15.747      640.651      337.369      247.953        0.609        0.061      103.354       13.980        0.018      334.670        4.795      862.796
10/24/2013  05:48:00      -92.946      -34.077      -14.772       20.828       21.991       16.020      433.789      483.624      256.651        0.560        0.059       98.996        8.603        0.008      334.747        4.923      862.798
10/24/2013  05:49:00      -85.168      -33.000      -16.621       18.755       20.524       12.585      351.735      421.254      158.371        0.477        0.047       91.337       11.187        0.015      334.737        4.908      862.804
10/24/2013  05:50:00     -108.475       -6.207      -12.657       15.548       13.277       15.080      241.747      176.269      227.392        0.631        0.032      108.652        9.750        0.008      334.782        4.981      862.811
10/24/2013  05:51:00     -106.421       -2.354      -15.173       20.784       25.712       10.937      431.982      661.093      119.609        0.639        0.061      106.447       10.213        0.009      334.759        4.942      862.814
10/24/2013  05:52:00      -80.104      -25.359      -10.421       13.240       17.537       10.071      175.304      307.562      101.431        0.388        0.029       84.022        9.732        0.013      334.755        4.937      862.814
10/24/2013  05:53:00      -78.350      -29.528       -7.977       16.757       24.390       12.297      280.787      594.892      151.208        0.405        0.051       83.729        7.859        0.009      334.719        4.878      862.820
10/24/2013  05:54:00      -92.667      -32.473      -15.748        8.690        9.711        7.510       75.523       94.295       56.393        0.506        0.011       98.192        1.765        0.000      334.748        4.926      862.835
10/24/2013  05:55:00     -101.175      -38.128      -14.379       20.902       14.994       10.031      436.894      224.827      100.611        0.633        0.038      108.121        5.656        0.003      334.780        4.977      862.850
10/24/2013  05:56:00     -105.554      -49.247       -5.007       11.547       10.976        8.643      133.330      120.472       74.694        0.696        0.016      116.477        3.307        0.001      334.809        5.028      862.867
10/24/2013  05:57:00     -118.145      -46.844       -3.848       18.695       17.850       13.397      349.492      318.617      179.475        0.851        0.042      127.093       11.271        0.008      334.838        5.074      862.874
10/24/2013  05:58:00      -82.433      -40.311        2.610       33.141       22.437       15.234     1098.312      503.426      232.075        0.513        0.092       91.762       17.209        0.035      334.865        5.120      862.882
10/24/2013  05:59:00      -65.641      -46.821       -2.645       30.989       24.802       15.980      960.287      615.150      255.349        0.417        0.092       80.628       17.579        0.048      334.857        5.107      862.890
10/24/2013  06:00:00      -67.297      -46.094       -5.802       25.377       19.800       12.731      643.994      392.044      162.067        0.394        0.060       81.570       11.543        0.020      334.856        5.104      862.884
10/24/2013  06:01:00     -119.908      -60.742      -11.136       25.140       16.993       11.104      632.010      288.757      123.304        0.962        0.052      134.416        6.119        0.002      334.804        5.019      862.888
10/24/2013  06:02:00     -127.540      -74.099       -6.447       26.688       27.054       19.364      712.276      731.913      374.951        1.181        0.091      147.503       15.732        0.011      334.684        4.818      862.901
10/24/2013  06:03:00     -111.052      -43.497       -6.642       39.188       23.882       17.178     1535.722      570.338      295.085        0.833        0.120      119.267       14.369        0.015      334.662        4.782      862.915
10/24/2013  06:04:00     -114.970      -34.799       -1.665       25.479       19.006       13.819      649.184      361.219      190.970        0.782        0.060      120.121       13.762        0.013      334.603        4.683      862.918
10/24/2013  06:05:00      -94.978      -34.832       -1.670       37.634       29.703       19.820     1416.334      882.264      392.842        0.646        0.135      101.164       16.755        0.027      334.620        4.713      862.924
10/24/2013  06:06:00     -103.462      -43.365       -5.102       33.355       20.240       21.826     1112.582      409.661      476.379        0.730        0.100      112.183       19.389        0.030      334.599        4.678      862.917
10/24/2013  06:07:00      -84.118      -31.787        2.221       26.866       23.121       16.552      721.785      534.584      273.960        0.481        0.077       89.923       11.496        0.016      334.670        4.797      862.913
10/24/2013  06:08:00      -94.683      -35.444        4.107       29.294       24.711       18.754      858.152      610.618      351.707        0.603        0.091      101.099       15.835        0.025      334.755        4.936      862.904
10/24/2013  06:09:00      -99.533      -38.581       -4.376       29.728       21.121       15.015      883.763      446.118      225.438        0.648        0.078      106.749       12.433        0.014      334.765        4.953      862.902
10/24/2013  06:10:00     -125.025      -38.428       -8.341       18.490       25.083       13.801      341.872      629.164      190.460        0.917        0.058      130.798       10.738        0.007      334.703        4.849      862.897
10/24/2013  06:11:00     -115.365      -28.263       -7.537       24.042       20.686       14.311      578.020      427.911      204.818        0.769        0.061      118.776       12.236        0.011      334.651        4.764      862.903
10/24/2013  06:12:00     -129.740      -49.251       -7.804       34.391       18.734       17.458     1182.712      350.952      304.769        1.058        0.092      138.774       18.053        0.017      334.635        4.737      862.908
10/24/2013  06:13:00      -94.716      -43.108       -4.440       22.333       23.878       13.603      498.742      570.149      185.032        0.605        0.063      104.064       10.032        0.009      334.673        4.800      862.904
10/24/2013  06:14:00     -141.278      -27.896      -16.483       27.407       24.610       21.531      751.118      605.656      463.592        1.141        0.091      144.006       15.985        0.012      334.595        4.670      862.904
10/24/2013  06:15:00     -115.030      -37.608       -8.510       29.499       24.910       16.003      870.185      620.532      256.107        0.823        0.087      121.021        9.665        0.006      334.578        4.642      862.906
10/24/2013  06:16:00     -147.183      -25.708      -16.661       21.166       20.418       15.394      447.991      416.882      236.989        1.185        0.055      149.411       14.117        0.009      334.500        4.514      862.903
10/24/2013  06:17:00     -116.262      -15.139       -3.836       34.919       31.012       22.589     1219.342      961.766      510.258        0.823        0.135      117.244       20.618        0.031      334.516        4.541      862.903
10/24/2013  06:18:00      -91.575       -6.378       -1.238       45.429       39.597       25.363     2063.811     1567.919      643.275        0.635        0.214       91.797       24.860        0.073      334.527        4.559      862.903
10/24/2013  06:19:00      -87.643        6.389        0.482       50.893       45.762       25.948     2590.093     2094.198      673.274        0.654        0.268       87.875       24.988        0.081      334.530        4.564      862.901
10/24/2013  06:20:00      -40.369      -13.832        3.884       30.079       36.617       22.973      904.747     1340.834      527.764        0.230        0.139       42.673       17.484        0.168      334.570        4.629      862.900
10/24/2013  06:21:00      -98.582      -38.540       -0.576       31.738       33.999       20.532     1007.272     1155.917      421.566        0.689        0.129      105.847       16.849        0.025      334.624        4.718      862.898
10/24/2013  06:22:00     -108.707      -32.337       -6.603       30.885       24.821       19.159      953.887      616.105      367.076        0.742        0.097      113.414       18.087        0.025      334.652        4.766      862.891
10/24/2013  06:23:00      -96.064      -81.196       -3.060       28.145       24.179       20.489      792.114      584.624      419.788        0.881        0.090      125.782       16.826        0.018      334.594        4.669      862.888
10/24/2013  06:24:00     -103.188      -50.300      -10.433       36.593       18.892       17.189     1339.029      356.894      295.455        0.764        0.100      114.795       18.575        0.026      334.573        4.633      862.888
10/24/2013  06:25:00      -91.799      -31.645        0.012       16.566       28.942       15.166      274.420      837.668      229.995        0.539        0.067       97.100        7.318        0.006      334.564        4.621      862.888
10/24/2013  06:26:00     -120.900      -60.181       -2.514       20.078       23.334       14.323      403.141      544.457      205.155        0.970        0.058      135.051       10.701        0.006      334.611        4.697      862.898
10/24/2013  06:27:00      -58.080      -42.691        6.455       49.856       31.436       25.672     2485.664      988.212      659.057        0.468        0.207       72.082       28.282        0.154      334.631        4.731      862.909
10/24/2013  06:28:00      -76.974      -46.889        2.547       43.755       26.438       21.287     1914.490      698.982      453.155        0.560        0.153       90.131       19.259        0.046      334.574        4.636      862.918
10/24/2013  06:29:00     -104.951      -61.866       -1.482       31.226       26.617       20.004      975.041      708.483      400.148        0.846        0.104      121.828       14.287        0.014      334.578        4.642      862.921
10/24/2013  06:30:00     -109.692      -50.446       -0.359       35.955       29.626       21.025     1292.774      877.680      442.041        0.859        0.131      120.736       17.283        0.020      334.544        4.585      862.926
10/24/2013  06:31:00      -77.882      -52.233        7.434       36.947       30.536       21.241     1365.090      932.443      451.189        0.580        0.137       93.776       22.136        0.056      334.730        4.896      862.939
10/24/2013  06:32:00      -88.626      -52.520        0.529       35.824       25.111       17.103     1283.371      630.551      292.529        0.641        0.110      103.019       17.697        0.030      334.818        5.041      862.945
10/24/2013  06:33:00     -106.481      -50.153        1.318       29.469       21.042       17.770      868.451      442.764      315.764        0.774        0.081      117.701       15.175        0.017      334.697        4.841      862.949
10/24/2013  06:34:00      -64.005      -49.802        4.888       49.871       25.752       19.894     2487.068      663.170      395.784        0.507        0.177       81.098       24.541        0.092      334.766        4.956      862.966
10/24/2013  06:35:00      -63.641      -48.850        3.114       34.124       24.439       19.921     1164.459      597.288      396.829        0.430        0.108       80.228       19.339        0.058      334.801        5.015      862.978
10/24/2013  06:36:00      -79.812      -53.213       -0.977       39.053       25.113       20.473     1525.109      630.641      419.145        0.589        0.129       95.924       16.307        0.029      334.833        5.066      862.989
10/24/2013  06:37:00     -114.956      -34.697       -1.202       28.391       21.025       14.487      806.067      442.061      209.861        0.794        0.073      120.078       12.524        0.011      334.739        4.911      863.001
10/24/2013  06:38:00      -83.705      -56.516       -6.209       29.641       22.639       17.333      878.565      512.513      300.434        0.597        0.085      100.998       15.296        0.023      334.813        5.032      863.013
10/24/2013  06:39:00      -71.750      -54.263       -0.050       27.731       21.997       14.900      768.992      483.858      222.022        0.478        0.074       89.959       12.873        0.020      334.829        5.059      863.006
10/24/2013  06:40:00      -67.669      -45.010        5.722       32.033       22.798       19.060     1026.124      519.746      363.274        0.427        0.095       81.271       17.662        0.047      334.868        5.124      863.010
10/24/2013  06:41:00      -78.477      -43.446       -1.923       25.379       21.356       17.715      644.118      456.093      313.812        0.473        0.071       89.700       11.748        0.017      334.774        4.968      863.009
10/24/2013  06:42:00      -89.922      -41.183       -8.161       16.071       18.172        9.795      258.281      330.233       95.949        0.527        0.034       98.904        5.797        0.003      334.767        4.957      863.013
10/24/2013  06:43:00      -89.427      -41.991       -2.558       19.498       18.569       12.542      380.163      344.809      157.312        0.532        0.044       98.795        8.731        0.008      334.810        5.028      863.010
10/24/2013  06:44:00      -70.863      -32.401        2.123       30.815       25.312       15.160      949.573      640.675      229.823        0.395        0.091       77.919       16.858        0.047      334.751        4.930      863.013
10/24/2013  06:45:00      -68.914      -32.485       -0.842       23.771       21.114       11.717      565.070      445.818      137.290        0.348        0.057       76.187        8.327        0.012      334.738        4.909      863.015
10/24/2013  06:46:00      -77.849      -30.231        0.624       16.480       14.351        9.961      271.593      205.943       99.224        0.378        0.029       83.513       10.087        0.015      334.752        4.932      863.013
10/24/2013  06:47:00      -66.417      -36.183        0.875       28.497       19.621       13.395      812.056      385.001      179.426        0.355        0.069       75.633       12.055        0.025      334.753        4.935      863.008
10/24/2013  06:48:00      -50.449      -32.580        8.186       35.691       21.842       18.551     1273.867      477.090      344.139        0.288        0.105       60.054       18.575        0.096      334.686        4.821      863.007
10/24/2013  06:49:00      -59.091      -38.113        2.996       25.547       19.074       19.091      652.663      363.825      364.459        0.317        0.069       70.315       17.801        0.064      334.652        4.767      863.004
10/24/2013  06:50:00      -79.251      -45.521       -1.952       21.199       20.006       13.364      449.385      400.247      178.591        0.469        0.051       91.394       11.552        0.016      334.692        4.833      863.005
10/24/2013  06:51:00     -102.566      -27.967       -2.380       16.692       16.348       11.945      278.636      267.259      142.691        0.600        0.034      106.310       10.128        0.009      334.729        4.893      863.003
10/24/2013  06:52:00      -89.167      -35.424        1.976       30.564       13.160       12.641      934.167      173.191      159.783        0.524        0.063       95.946       13.130        0.019      334.804        5.019      863.006
10/24/2013  06:53:00      -66.204      -38.306        2.578       30.377       19.365       19.998      922.780      374.996      399.917        0.378        0.085       76.487       17.540        0.053      334.752        4.931      863.011
10/24/2013  06:54:00      -79.065      -41.237       -7.914       16.409       15.401       12.567      269.258      237.176      157.934        0.434        0.033       89.173        8.245        0.009      334.798        5.008      863.011
10/24/2013  06:55:00      -79.340      -30.811       -6.775       26.740       20.585       13.950      715.052      423.757      194.602        0.431        0.067       85.113       12.548        0.022      334.789        4.993      863.011
10/24/2013  06:56:00      -76.397      -18.737       -5.343       15.172       13.189       12.448      230.185      173.961      154.947        0.339        0.028       78.661        8.408        0.011      334.754        4.935      863.015
10/24/2013  06:57:00      -85.239      -42.927       -6.794       13.955       17.277       12.705      194.752      298.496      161.427        0.490        0.033       95.438        1.526        0.000      334.728        4.893      863.024
10/24/2013  06:58:00      -96.462      -33.976       -8.843       14.652       21.183       10.220      214.689      448.709      104.451        0.565        0.038      102.271        7.489        0.005      334.758        4.943      863.025
10/24/2013  06:59:00     -103.967      -40.533       -8.113       13.985       16.025       10.248      195.581      256.809      105.023        0.654        0.028      111.589        5.516        0.002      334.748        4.925      863.023
10/24/2013  07:00:00      -97.477      -18.772       -6.639       20.068       19.651       13.286      402.707      386.168      176.519        0.543        0.048       99.268        9.505        0.009      334.672        4.798      863.017
10/24/2013  07:01:00      -72.639      -17.687        1.243       27.468       24.047       17.150      754.472      578.246      294.108        0.361        0.081       74.761       16.704        0.050      334.652        4.765      863.012
10/24/2013  07:02:00      -97.485       -3.032       -0.771       31.199       20.069       19.797      973.355      402.785      391.940        0.564        0.088       97.532       19.109        0.038      334.441        4.415      863.011
10/24/2013  07:03:00      -98.636      -18.801       -1.783       33.308       23.957       15.767     1109.406      573.932      248.589        0.601        0.097      100.412       17.384        0.030      334.485        4.489      863.021
10/24/2013  07:04:00     -103.883      -23.232        0.568       25.382       16.840       14.118      644.250      283.590      199.319        0.623        0.056      106.449       10.563        0.010      334.475        4.471      863.032
10/24/2013  07:05:00      -89.963      -21.315        0.051       39.132       21.123       20.959     1531.308      446.162      439.280        0.548        0.121       92.454       20.554        0.049      334.432        4.402      863.047
10/24/2013  07:06:00     -111.282      -20.907       -3.306       28.765       19.671       14.079      827.428      386.932      198.228        0.712        0.071      113.229       10.283        0.008      334.362        4.285      863.056
10/24/2013  07:07:00     -118.101      -16.455       -3.396       28.570       17.302       19.125      816.243      299.366      365.755        0.786        0.074      119.242       18.259        0.023      334.411        4.364      863.077
10/24/2013  07:08:00      -95.346      -21.421       -4.116       29.087       20.811       14.713      846.075      433.090      216.478        0.553        0.075       97.723       11.798        0.015      334.509        4.529      863.097
10/24/2013  07:09:00      -87.603      -24.137       -2.528       27.598       20.768       15.533      761.626      431.308      241.279        0.485        0.072       90.867       15.456        0.029      334.491        4.499      863.112
10/24/2013  07:10:00      -85.254      -15.794        1.758       27.449       17.731       16.895      753.458      314.377      285.454        0.444        0.068       86.705       15.770        0.033      334.472        4.466      863.131
10/24/2013  07:11:00      -68.977      -14.836       -1.630       20.269       11.653        9.381      410.850      135.785       88.010        0.281        0.032       70.554        8.165        0.013      334.478        4.477      863.144
10/24/2013  07:12:00      -65.631      -22.882       -1.400       10.029       10.115        8.629      100.587      102.312       74.455        0.256        0.014       69.506        3.447        0.002      334.647        4.758      863.154
10/24/2013  07:13:00      -63.853      -28.988       -0.646       27.241       15.014       14.898      742.086      225.432      221.965        0.305        0.059       70.125       15.862        0.051      334.631        4.731      863.162
10/24/2013  07:14:00      -87.623      -40.733       -8.277        9.908        9.229        5.986       98.168       85.173       35.827        0.481        0.011       96.628        3.268        0.001      334.685        4.822      863.166
10/24/2013  07:15:00      -55.560      -24.472        2.296       27.330       18.195       12.180      746.923      331.075      148.353        0.246        0.061       60.711       11.841        0.038      334.572        4.634      863.164
10/24/2013  07:16:00      -57.586      -26.098       -3.479       28.062       14.976       10.747      787.466      224.288      115.493        0.257        0.056       63.224        7.937        0.016      334.496        4.508      863.163
10/24/2013  07:17:00      -41.484      -17.885        3.705       26.894       15.282       12.919      723.262      233.541      166.902        0.159        0.056       45.175       11.459        0.064      334.443        4.420      863.168
10/24/2013  07:18:00      -89.050      -29.878       -6.714       11.926       10.845        6.591      142.237      117.616       43.445        0.459        0.015       93.929        5.205        0.003      334.541        4.581      863.163
10/24/2013  07:19:00      -89.363      -28.137      -10.170       11.198       10.252        7.175      125.399      105.103       51.479        0.458        0.014       93.688        4.214        0.002      334.560        4.612      863.166
10/24/2013  07:20:00      -76.906      -23.546       -1.843       15.834       13.892       10.617      250.715      192.994      112.723        0.351        0.028       80.430        7.588        0.009      334.587        4.657      863.167
10/24/2013  07:21:00      -69.919      -25.289       -5.571       15.830       17.504        9.161      250.597      306.407       83.929        0.310        0.032       74.352        5.561        0.006      334.612        4.699      863.164
10/24/2013  07:22:00      -79.424      -30.575       -7.708       15.020       13.697       10.767      225.593      187.600      115.928        0.392        0.026       85.105        7.652        0.008      334.560        4.612      863.162
10/24/2013  07:23:00      -92.854      -18.231       -9.499       14.528       12.512        9.218      211.063      156.557       84.970        0.475        0.023       94.627        7.216        0.006      334.514        4.536      863.161
10/24/2013  07:24:00      -94.208      -13.825       -9.529       19.775       18.017       12.048      391.058      324.595      145.159        0.501        0.043       95.217        8.331        0.008      334.471        4.465      863.168
10/24/2013  07:25:00     -111.602      -13.476       -8.828       21.520       12.939       10.879      463.091      167.415      118.343        0.673        0.037      112.413       12.214        0.012      334.403        4.354      863.181
10/24/2013  07:26:00     -122.797      -19.620      -11.682       16.346       13.217        9.229      267.186      174.681       85.173        0.806        0.026      124.354        4.452        0.001      334.322        4.219      863.188
10/24/2013  07:27:00      -94.444      -28.949       -7.334       18.276       14.978       13.334      334.026      224.335      177.800        0.527        0.037       98.781       12.420        0.016      334.328        4.228      863.196
10/24/2013  07:28:00      -86.830      -40.042       -8.161       12.616       18.373       11.554      159.157      337.549      133.486        0.492        0.032       95.618        8.081        0.007      334.393        4.338      863.211
10/24/2013  07:29:00      -57.939      -44.564       -6.424       21.276       19.531       16.283      452.651      381.479      265.123        0.324        0.055       73.095       14.910        0.042      334.400        4.347      863.219
10/24/2013  07:30:00      -96.623      -24.796      -15.794       13.510       15.021        8.427      182.510      225.621       71.009        0.534        0.024       99.754        4.762        0.002      334.335        4.240      863.227
10/24/2013  07:31:00     -100.812      -32.258      -25.245       16.331       13.178        9.097      266.692      173.672       82.760        0.618        0.026      105.847        6.107        0.003      334.373        4.303      863.239
10/24/2013  07:32:00      -83.856      -29.477      -15.304       17.068       15.883       11.325      291.321      252.255      128.258        0.440        0.034       88.886        7.551        0.007      334.385        4.323      863.246
10/24/2013  07:33:00      -97.449      -24.702      -19.368       13.106       16.167       12.194      171.758      261.357      148.689        0.553        0.029      100.531        4.272        0.002      334.385        4.322      863.258
10/24/2013  07:34:00      -81.703      -11.404       -7.568       16.344       20.437       15.003      267.141      417.669      225.082        0.389        0.045       82.495        9.505        0.013      334.342        4.252      863.266
10/24/2013  07:35:00      -92.282      -10.339      -11.007       18.711       12.384       11.910      350.092      153.366      141.850        0.469        0.032       92.859        7.694        0.007      334.324        4.223      863.276
10/24/2013  07:36:00      -53.813      -25.118       -3.988       19.239       16.873       14.049      370.145      284.685      197.388        0.220        0.043       59.387        4.358        0.005      334.376        4.307      863.284
10/24/2013  07:37:00      -52.402      -25.358      -11.705       16.106       18.850       11.960      259.401      355.315      143.035        0.214        0.038       58.215        8.157        0.020      334.505        4.523      863.281
10/24/2013  07:38:00      -49.052      -32.593      -12.988       11.338       14.004        9.551      128.556      196.108       91.224        0.203        0.021       58.893        7.092        0.015      334.529        4.561      863.298
10/24/2013  07:39:00      -66.571      -10.255       -8.770       13.346       12.818        8.130      178.127      164.304       66.094        0.251        0.020       67.356        3.017        0.002      334.462        4.449      863.315
10/24/2013  07:40:00      -74.584      -10.399       -8.912        9.994        9.701        8.947       99.882       94.107       80.049        0.301        0.014       75.305        3.728        0.002      334.410        4.363      863.327
10/24/2013  07:41:00      -64.261      -24.527       -4.594        9.515       11.300        8.888       90.539      127.689       79.004        0.252        0.015       68.783        4.891        0.005      334.452        4.436      863.333
10/24/2013  07:42:00      -60.970      -10.437       -7.179       12.067        8.405        8.984      145.602       70.645       80.711        0.209        0.015       61.857        7.422        0.014      334.523        4.552      863.337
10/24/2013  07:43:00      -56.661      -20.540      -13.849        8.279        9.521        6.440       68.540       90.646       41.478        0.201        0.010       60.269        5.278        0.008      334.520        4.548      863.354
10/24/2013  07:44:00      -59.938      -26.474      -11.822        8.736        6.993        9.743       76.313       48.909       94.933        0.233        0.011       65.524        4.739        0.005      334.562        4.617      863.365
10/24/2013  07:45:00      -34.728      -28.048       -5.031       11.232       10.915       11.197      126.147      119.146      125.362        0.119        0.019       44.640        6.417        0.021      334.645        4.754      863.366
10/24/2013  07:46:00      -51.420       -7.333       -8.515        6.042        6.163        5.233       36.500       37.983       27.387        0.144        0.005       51.941        3.459        0.004      334.690        4.831      863.374
10/24/2013  07:47:00      -41.273       -5.335       -2.972        9.881        6.659        8.035       97.634       44.342       64.553        0.097        0.010       41.616        3.173        0.006      334.681        4.815      863.370
10/24/2013  07:48:00      -45.622       -2.336       -5.901        6.942        6.492        5.967       48.185       42.146       35.606        0.112        0.006       45.682        3.655        0.006      334.715        4.872      863.378
10/24/2013  07:49:00      -47.233       -9.085       -7.749        5.378        9.499        6.081       28.925       90.224       36.975        0.126        0.008       48.099        5.273        0.012      334.768        4.959      863.368
10/24/2013  07:50:00      -47.059        0.617       -7.595        5.526        4.092        5.804       30.537       16.748       33.692        0.118        0.004       47.063        2.002        0.002      334.817        5.042      863.376
10/24/2013  07:51:00      -42.950       -1.007       -7.380        7.659        6.427        6.196       58.662       41.302       38.394        0.102        0.007       42.962        4.458        0.011      334.855        5.104      863.378
10/24/2013  07:52:00      -55.560       -6.606       -8.262        5.562        6.212        6.404       30.939       38.591       41.012        0.165        0.006       55.952        3.540        0.004      334.881        5.146      863.394
10/24/2013  07:53:00      -37.491      -12.627       -6.939       13.401        6.228        6.486      179.580       38.791       42.070        0.094        0.013       39.560        2.006        0.003      334.891        5.162      863.407
10/24/2013  07:54:00      -30.142        1.403      -12.034        7.856        5.278        7.238       61.715       27.854       52.388        0.060        0.007       30.174        3.856        0.016      334.909        5.193      863.423
10/24/2013  07:55:00      -24.253       -0.547       -5.614        3.873        3.603        4.124       15.000       12.985       17.007        0.033        0.002       24.259        3.031        0.016      335.019        5.378      863.430
10/24/2013  07:56:00      -29.574        2.971       -9.086        4.932        3.647        4.580       24.323       13.304       20.976        0.051        0.003       29.723        3.875        0.017      335.014        5.367      863.452
10/24/2013  07:57:00      -20.117        1.190       -5.872        6.644        3.789        4.953       44.143       14.358       24.529        0.026        0.004       20.152        3.143        0.024      335.072        5.464      863.466
10/24/2013  07:58:00      -30.478        2.624       -2.433        8.317        6.079        5.000       69.164       36.949       24.999        0.054        0.007       30.590        1.846        0.004      335.037        5.406      863.478
10/24/2013  07:59:00      -21.828       -6.568        7.848       17.534       13.447       11.831      307.442      180.820      139.964        0.060        0.031       22.794       12.765        0.314      335.261        5.778      863.500
10/24/2013  08:00:00      -70.964      -48.898        1.416       47.728       41.613       18.209     2277.993     1731.613      331.565        0.588        0.217       86.180       28.046        0.106      335.142        5.581      863.513
10/24/2013  08:01:00      -44.832      -46.397        2.816       28.166       26.829       19.718      793.314      719.783      388.783        0.304        0.095       64.518       16.272        0.064      335.157        5.605      863.521
10/24/2013  08:02:00      -65.048      -71.415       -0.395       25.933       18.289       18.493      672.513      334.471      341.997        0.534        0.067       96.599       16.819        0.030      335.176        5.637      863.519
10/24/2013  08:03:00      -53.589      -60.837        0.257       31.830       21.747       16.383     1013.152      472.935      268.407        0.416        0.088       81.073       17.458        0.046      335.215        5.700      863.521
10/24/2013  08:04:00      -26.138      -26.652        1.883       27.144       23.646       16.938      736.786      559.150      286.886        0.149        0.079       37.330       18.165        0.237      335.314        5.865      863.528
10/24/2013  08:05:00      -17.872       -8.395        2.492       24.767       17.318       16.531      613.400      299.923      273.277        0.079        0.059       19.746       17.113        0.751      335.416        6.034      863.536
10/24/2013  08:06:00      -20.238      -16.135       -1.988       12.589       14.083        8.582      158.481      198.318       73.658        0.055        0.022       25.883        6.709        0.067      335.311        5.861      863.541
10/24/2013  08:07:00      -27.620       -2.924       -5.510       11.728        6.425        5.398      137.553       41.286       29.135        0.050        0.010       27.774        1.205        0.002      335.310        5.858      863.537
10/24/2013  08:08:00       -4.415        2.575       -1.550        9.167        6.399        7.938       84.040       40.953       63.017        0.011        0.009        5.111        1.298        0.064      335.594        6.331      863.535
10/24/2013  08:09:00       -9.378       -0.557       -3.336        6.817        3.796        3.845       46.465       14.412       14.784        0.009        0.004        9.395        3.556        0.143      335.594        6.333      863.545
10/24/2013  08:10:00      -23.374        5.246       -6.854        7.569        4.630        4.256       57.290       21.440       18.109        0.036        0.005       23.956        2.939        0.015      335.445        6.085      863.552
10/24/2013  08:11:00      -35.299       15.886       -3.809        9.809       11.575        8.924       96.226      133.984       79.637        0.091        0.015       38.709        3.835        0.010      335.435        6.065      863.569
10/24/2013  08:12:00      -53.502       -9.576       -4.454       13.448       17.950        9.269      180.845      322.202       85.918        0.178        0.029       54.352        7.480        0.019      335.407        6.020      863.582
10/24/2013  08:13:00      -36.079      -12.024       -2.448       16.814       19.092        7.844      282.708      364.519       61.524        0.108        0.035       38.030        6.105        0.026      335.420        6.041      863.603
10/24/2013  08:14:00      -11.906        6.245        7.165       12.752       10.798       12.866      162.617      116.605      165.541        0.034        0.022       13.445        7.453        0.307      335.814        6.698      863.619
10/24/2013  08:15:00      -34.754        2.602        5.595       15.028       13.413        8.333      225.833      179.914       69.443        0.086        0.024       34.851        5.424        0.024      335.458        6.105      863.626
10/24/2013  08:16:00      -12.025      -16.590        5.247       16.710       18.030       12.427      279.214      325.079      154.432        0.060        0.038       20.490        8.678        0.179      335.687        6.487      863.638
10/24/2013  08:17:00      -13.182       17.382        3.038       20.044       12.877       16.910      401.743      165.807      285.960        0.067        0.043       21.815       13.689        0.394      335.776        6.635      863.654
10/24/2013  08:18:00        5.859        7.234       12.092       14.531       13.567       11.974      211.153      184.056      143.371        0.039        0.027        9.309        4.633        0.248      335.905        6.852      863.663
10/24/2013  08:19:00      -16.553      -32.363       -3.608       25.698       20.851       12.141      660.364      434.747      147.401        0.129        0.062       36.350        3.716        0.010      335.630        6.392      863.677
10/24/2013  08:20:00      -37.378      -19.097        6.688       17.091       17.559       10.134      292.106      308.322      102.706        0.125        0.035       41.974        7.216        0.030      335.599        6.339      863.684
10/24/2013  08:21:00      -33.146      -12.292        9.073       20.750       20.930       13.940      430.567      438.055      194.321        0.120        0.053       35.352       10.039        0.081      335.735        6.566      863.696
10/24/2013  08:22:00      -11.463        5.784       18.422       14.069       22.568       20.196      197.935      509.303      407.867        0.081        0.056       12.840       19.404        2.284      335.984        6.982      863.694
10/24/2013  08:23:00      -18.378       33.138       41.608       17.440       15.330       14.499      304.150      235.015      210.207        0.196        0.037       37.893        9.724        0.066      336.003        7.013      863.693
10/24/2013  08:24:00      -39.393        3.755       15.486       22.316       15.930       14.332      498.005      253.777      205.400        0.138        0.048       39.571       11.320        0.082      335.748        6.589      863.695
10/24/2013  08:25:00      -13.069      -15.833        1.602       15.917       17.323       16.133      253.337      300.088      260.259        0.062        0.041       20.530       13.518        0.434      335.916        6.868      863.706
10/24/2013  08:26:00      -23.085      -16.113        6.947       25.001       17.616       13.126      625.053      310.333      172.286        0.097        0.055       28.152       15.252        0.294      335.952        6.931      863.711
10/24/2013  08:27:00      -33.974      -13.977        0.113       15.269       12.986       10.477      233.128      168.637      109.772        0.093        0.026       36.737        8.021        0.048      335.760        6.609      863.720
10/24/2013  08:28:00      -42.967      -10.210       -4.539       13.671       13.312       10.052      186.909      177.201      101.043        0.122        0.023       44.164        3.288        0.006      335.757        6.605      863.738
10/24/2013  08:29:00      -21.905      -12.143       -3.940       28.952        9.058        6.369      838.196       82.040       40.563        0.080        0.048       25.046        8.576        0.117      335.853        6.762      863.743
10/24/2013  08:30:00      -13.643       -7.347        8.081       26.499       12.171       13.686      702.197      148.132      187.307        0.067        0.052       15.496       15.616        1.015      336.073        7.130      863.755
10/24/2013  08:31:00      -31.033      -25.354        6.509       21.542       27.954       20.411      464.077      781.436      416.590        0.165        0.083       40.073       13.968        0.122      336.019        7.039      863.766
10/24/2013  08:32:00      -39.063        7.869        4.009       24.991       16.488       15.879      624.557      271.870      252.128        0.138        0.057       39.847       14.976        0.141      336.033        7.063      863.775
10/24/2013  08:33:00      -49.434       -0.564       -2.434       39.492       17.504       19.691     1559.598      306.403      387.731        0.235        0.113       49.437       24.558        0.247      336.204        7.350      863.785
10/24/2013  08:34:00      -18.420       -8.075        8.013       23.073       11.718       18.314      532.367      137.320      335.391        0.074        0.050       20.112       13.160        0.428      336.235        7.402      863.790
10/24/2013  08:35:00        4.112       24.264       -1.054       15.860       18.329       21.007      251.527      335.969      441.276        0.082        0.051       24.610        7.171        0.085      336.209        7.358      863.804
10/24/2013  08:36:00       -8.072        5.607       14.853       33.198       32.733       14.637     1102.109     1071.464      214.236        0.135        0.119        9.828       18.874        3.688      336.297        7.503      863.810
10/24/2013  08:37:00      -53.858      -20.078       -3.689       13.693       17.624       10.412      187.488      310.604      108.405        0.196        0.030       57.479        6.104        0.011      336.033        7.063      863.815
10/24/2013  08:38:00      -29.580      -13.539        2.082       15.317       16.207       10.565      234.618      262.678      111.625        0.084        0.030       32.531        7.616        0.055      336.144        7.247      863.817
10/24/2013  08:39:00      -29.398       -2.640       -4.810        7.097        9.227        7.224       50.368       85.143       52.179        0.054        0.009       29.517        2.993        0.010      336.172        7.294      863.822
10/24/2013  08:40:00      -25.099        5.450       -0.853       10.783       16.522       12.106      116.270      272.965      146.551        0.060        0.027       25.684        8.299        0.104      336.324        7.550      863.827
10/24/2013  08:41:00      -30.982       16.940       -4.550       13.440       11.211       12.585      180.630      125.678      158.370        0.087        0.023       35.311        3.720        0.011      336.376        7.637      863.836
10/24/2013  08:42:00      -16.986       16.111        8.711       12.194       11.920       17.771      148.703      142.082      315.826        0.062        0.030       23.412       14.464        0.382      336.641        8.079      863.850
10/24/2013  08:43:00       -4.235        8.135       14.581       11.959       13.533       12.809      143.023      183.130      164.075        0.039        0.025        9.171        4.819        0.276      336.971        8.631      863.861
10/24/2013  08:44:00        4.864       11.761       25.215       16.190       15.509       12.810      262.113      240.538      164.104        0.073        0.033       12.727        8.108        0.406      336.873        8.467      863.872
10/24/2013  08:45:00        3.378       10.497       20.879       13.889       17.935       16.988      192.910      321.668      288.576        0.068        0.040       11.027       10.647        0.932      337.025        8.722      863.885
10/24/2013  08:46:00        8.641       18.420       25.239       14.173       16.608       19.891      200.862      275.817      395.636        0.096        0.044       20.346       14.900        0.536      336.718        8.208      863.896
10/24/2013  08:47:00       -0.100        6.262       -4.732       20.738       21.419       10.264      430.050      458.773      105.346        0.053        0.050        6.263        9.776        2.436      336.646        8.090      863.908
10/24/2013  08:48:00      -14.340       40.208       -3.772       20.683       23.586       13.674      427.790      556.315      186.973        0.150        0.059       42.689       14.383        0.114      336.704        8.185      863.916
10/24/2013  08:49:00      -23.549       -0.715       27.896       16.086       13.558        9.160      258.758      183.827       83.897        0.093        0.026       23.560        5.862        0.062      336.930        8.562      863.932
10/24/2013  08:50:00       -5.011       -0.124       14.905       17.097       14.886       14.989      292.318      221.596      224.656        0.049        0.037        5.013       10.138        4.090      337.009        8.693      863.929
10/24/2013  08:51:00      -15.430       12.887       20.983       13.083       11.244       10.781      171.169      126.432      116.238        0.063        0.021       20.103        7.056        0.123      337.081        8.815      863.927
10/24/2013  08:52:00      -49.284       16.715       -1.795       10.127        9.165        9.329      102.560       84.003       87.029        0.149        0.014       52.041        5.724        0.012      336.423        7.715      863.924
10/24/2013  08:53:00      -39.507        9.307       -4.720       11.454       11.707        7.284      131.193      137.053       53.061        0.100        0.016       40.589        2.901        0.005      336.476        7.805      863.928
10/24/2013  08:54:00      -49.286       24.644       -4.281       18.504       17.749       16.076      342.390      315.040      258.446        0.199        0.046       55.104        9.173        0.028      336.602        8.012      863.928
10/24/2013  08:55:00      -39.042       20.125       15.428       19.251       12.265       18.421      370.597      150.431      339.327        0.151        0.043       43.924        7.449        0.029      336.845        8.419      863.928
10/24/2013  08:56:00      -14.625       11.146        4.526       11.094       14.297       12.279      123.086      204.403      150.782        0.042        0.024       18.388       11.786        0.411      336.768        8.291      863.944
10/24/2013  08:57:00      -21.330        1.051        1.336       10.205        7.643        8.675      104.145       58.415       75.258        0.035        0.012       21.355        5.357        0.063      336.699        8.176      863.953
10/24/2013  08:58:00        8.626       15.821       18.039       15.012       16.707       13.336      225.370      279.133      177.841        0.067        0.034       18.020       10.327        0.328      337.394        9.337      863.962
10/24/2013  08:59:00       39.374       54.104        7.906       33.063       25.569       25.588     1093.136      653.759      654.755        0.347        0.120       66.915       21.493        0.103      337.123        8.885      863.973
10/24/2013  09:00:00       17.677       43.703       36.899       21.916       25.183       18.175      480.318      634.194      330.345        0.251        0.072       47.142       10.156        0.046      337.360        9.281      863.987
10/24/2013  09:01:00       49.741       39.909       19.296       29.682       18.683       23.490      881.024      349.044      551.787        0.311        0.089       63.772       17.721        0.077      337.166        8.956      863.996
10/24/2013  09:02:00        9.049       44.376        6.612       23.174       33.249       22.477      537.042     1105.523      505.229        0.212        0.107       45.289       12.126        0.072      337.245        9.089      863.997
10/24/2013  09:03:00       53.395       43.845        9.444       22.829       20.707       21.035      521.170      428.781      442.452        0.313        0.070       69.090       16.002        0.054      336.901        8.512      863.997
10/24/2013  09:04:00       18.494       19.895       10.988       22.804       18.808       22.959      520.006      353.749      527.100        0.113        0.070       27.163       15.524        0.327      337.196        9.009      863.997
10/24/2013  09:05:00        2.055        8.066       18.739       16.996       16.294       11.842      288.859      265.486      140.226        0.056        0.035        8.323       11.192        1.808      337.598        9.679      863.994
10/24/2013  09:06:00        1.328       21.981        9.345       28.656       27.487       17.708      821.147      755.532      313.574        0.123        0.095       22.021       11.894        0.292      337.414        9.372      863.992
10/24/2013  09:07:00       16.270       21.823       20.748       15.121       15.153       20.587      228.635      229.623      423.824        0.103        0.044       27.221       11.194        0.169      337.375        9.306      863.987
10/24/2013  09:08:00       -9.938        3.190      -20.659       19.116       10.911        9.488      365.413      119.056       90.023        0.056        0.029       10.438        6.903        0.437      337.221        9.048      863.982
10/24/2013  09:09:00      -11.191       11.026        7.808       11.497        9.532       15.110      132.189       90.858      228.321        0.038        0.023       15.711        6.918        0.194      337.498        9.512      863.982
10/24/2013  09:10:00      -19.977        1.632       -4.601       12.262       14.903       10.718      150.355      222.114      114.871        0.046        0.024       20.043        9.019        0.202      337.286        9.158      863.980
10/24/2013  09:11:00       -4.320       14.216       23.856        9.224       20.704       17.325       85.078      428.655      300.170        0.080        0.041       14.858       15.975        1.156      337.928       10.235      863.982
10/24/2013  09:12:00      -20.850       25.014       38.228       14.557       17.318       14.753      211.914      299.905      217.641        0.163        0.036       32.564       11.852        0.132      337.732        9.905      863.984
10/24/2013  09:13:00      -19.382       16.033        3.541       16.375       20.128       22.383      268.134      405.129      500.998        0.091        0.059       25.154       12.627        0.252      337.639        9.749      863.991
10/24/2013  09:14:00      -12.058       36.916       17.044       21.573       21.100       24.044      465.386      445.227      578.123        0.164        0.074       38.835       13.449        0.120      337.785        9.993      863.996
10/24/2013  09:15:00      -56.219       -6.130       -9.279       33.160       31.338       20.507     1099.596      982.086      420.528        0.289        0.125       56.552       20.692        0.134      337.342        9.251      863.993
10/24/2013  09:16:00      -60.131      -53.209        4.439       36.655       29.323       23.805     1343.623      859.834      566.668        0.462        0.139       80.293       20.404        0.065      337.282        9.151      863.996
10/24/2013  09:17:00      -32.504      -32.415       11.238       42.863       37.150       25.193     1837.260     1380.108      634.682        0.304        0.193       45.905       25.057        0.298      337.500        9.516      863.990
10/24/2013  09:18:00      -57.982      -43.861        1.202       45.951       30.373       23.538     2111.465      922.532      554.035        0.444        0.179       72.703       22.339        0.094      337.361        9.283      863.994
10/24/2013  09:19:00      -33.933      -16.068       13.459       42.717       25.203       21.785     1824.731      635.171      474.601        0.226        0.147       37.545       18.591        0.245      337.550        9.601      863.993
10/24/2013  09:20:00      -52.512      -44.649       -8.689       28.492       25.617       14.501      811.805      656.240      210.288        0.325        0.084       68.928       10.485        0.023      337.329        9.229      863.998
10/24/2013  09:21:00      -36.740       -3.956        9.788       32.448       27.836       19.081     1052.889      774.834      364.084        0.183        0.110       36.953       18.483        0.250      337.688        9.831      863.992
10/24/2013  09:22:00      -15.726        2.040       21.646       31.791       24.660       23.208     1010.676      608.129      538.597        0.144        0.108       15.858       21.975        1.920      337.931       10.240      863.991
10/24/2013  09:23:00      -52.661      -42.651       -0.503       30.445       22.710       17.416      926.913      515.725      303.334        0.317        0.087       67.767       14.938        0.049      337.466        9.458      863.995
10/24/2013  09:24:00      -52.477      -57.383        1.749       32.777       27.771       15.786     1074.321      771.226      249.206        0.407        0.105       77.760       20.270        0.068      337.539        9.580      864.002
10/24/2013  09:25:00      -89.469      -69.123        1.682       36.778       38.656       20.907     1352.611     1494.285      437.118        0.803        0.164      113.061       18.760        0.028      337.454        9.438      863.998
10/24/2013  09:26:00      -95.849      -72.274       -1.009       36.634       26.255       20.703     1342.039      689.320      428.603        0.844        0.123      120.044       17.987        0.022      337.428        9.395      863.994
10/24/2013  09:27:00      -99.302      -75.724       -6.339       28.989       35.602       17.309      840.351     1267.467      299.597        0.902        0.120      124.880        9.415        0.006      337.462        9.451      863.991
10/24/2013  09:28:00     -105.611      -74.384       -5.294       25.514       28.265       16.202      650.959      798.897      262.489        0.921        0.086      129.177       17.618        0.019      337.456        9.441      863.989
10/24/2013  09:29:00      -75.505      -28.743        2.366       35.084       27.950       18.532     1230.909      781.226      343.426        0.444        0.118       80.791       17.683        0.048      337.560        9.615      863.978
10/24/2013  09:30:00      -32.843      -19.088        5.312       35.244       34.705       14.964     1242.133     1204.410      223.931        0.207        0.134       37.986       11.638        0.094      337.676        9.812      863.975
10/24/2013  09:31:00      -89.070      -77.885       -8.319       31.088       22.664       13.925      966.446      513.677      193.899        0.787        0.084      118.319       11.975        0.010      337.573        9.638      863.968
10/24/2013  09:32:00      -76.248      -83.074      -14.547       15.635       14.982       10.603      244.445      224.451      112.433        0.675        0.029      112.761        7.154        0.004      337.562        9.618      863.965
10/24/2013  09:33:00      -71.791      -58.409       -8.178       20.639       18.756       14.820      425.981      351.772      219.636        0.481        0.050       92.550        8.614        0.009      337.697        9.846      863.959
10/24/2013  09:34:00      -77.621      -47.135      -12.885       13.498       28.451       12.161      182.187      809.451      147.894        0.478        0.057       90.812        2.947        0.001      337.703        9.856      863.960
10/24/2013  09:35:00      -56.763      -41.750       -5.330       27.594       16.144       10.502      761.437      260.618      110.290        0.306        0.057       70.463        5.791        0.007      337.742        9.921      863.960
10/24/2013  09:36:00      -44.428      -26.425        2.667       12.465       23.157        7.749      155.366      536.265       60.050        0.172        0.038       51.693        5.786        0.013      337.848       10.098      863.960
10/24/2013  09:37:00      -48.750       13.120       -8.814       11.396       13.262       12.566      129.879      175.890      157.910        0.154        0.023       50.485        6.099        0.015      337.845       10.094      863.964
10/24/2013  09:38:00      -28.091       -6.305      -14.027       13.706       19.249        5.711      187.850      370.519       32.616        0.081        0.030       28.790        2.369        0.007      337.972       10.307      863.970
10/24/2013  09:39:00      -20.180      -32.655       -8.908       21.286       14.747        9.491      453.098      217.488       90.078        0.116        0.038       38.388        7.444        0.038      337.953       10.276      863.969
10/24/2013  09:40:00      -45.003      -26.459        4.363       28.691       20.469       15.137      823.148      418.977      229.116        0.211        0.074       52.205       17.646        0.114      338.167       10.636      863.971
10/24/2013  09:41:00      -52.209      -31.086       -7.882       16.456       11.052       13.018      270.788      122.145      169.469        0.216        0.028       60.763       11.623        0.037      338.055       10.447      863.973
10/24/2013  09:42:00      -39.723      -20.395       -3.692       17.780       11.783       11.581      316.115      138.846      134.124        0.130        0.029       44.653       10.510        0.055      338.171       10.641      863.975
10/24/2013  09:43:00      -54.068      -35.390      -13.125       11.641       10.537        9.971      135.512      111.030       99.430        0.235        0.017       64.621        5.530        0.007      338.095       10.514      863.975
10/24/2013  09:44:00      -55.579      -43.390      -12.418       10.586       14.701        9.540      112.069      216.124       91.004        0.277        0.021       70.510        6.361        0.008      338.106       10.531      863.980
10/24/2013  09:45:00      -73.472      -23.925      -12.165       14.502       20.176       11.185      210.319      407.085      125.096        0.343        0.037       77.269        8.143        0.011      338.117       10.550      863.981
10/24/2013  09:46:00      -69.843      -28.502      -11.204       10.054       10.987        7.460      101.073      120.707       55.647        0.305        0.014       75.434        3.822        0.003      338.137       10.585      863.988
10/24/2013  09:47:00      -62.981      -20.711      -13.872        9.649       12.507       11.926       93.094      156.425      142.233        0.249        0.020       66.299        8.194        0.015      338.158       10.618      863.988
10/24/2013  09:48:00      -33.109      -17.990        1.384       13.683       18.109       11.807      187.220      327.920      139.414        0.104        0.033       37.681       12.154        0.104      338.383       10.998      863.993
10/24/2013  09:49:00      -54.958      -41.704       -4.427       12.144       21.629       13.383      147.476      467.826      179.103        0.279        0.040       68.990        9.378        0.018      338.279       10.822      863.990
10/24/2013  09:50:00      -32.932       -8.510       -2.618       21.275       17.373       12.736      452.626      301.834      162.212        0.104        0.046       34.014        8.006        0.055      338.465       11.136      863.991
10/24/2013  09:51:00      -36.178      -12.109       -5.929       13.391       12.260        8.760      179.323      150.296       76.740        0.095        0.020       38.151        7.416        0.038      338.389       11.007      863.983
10/24/2013  09:52:00      -49.699      -52.951       -1.849       33.460       39.950       11.547     1119.570     1596.014      133.343        0.406        0.142       72.621       14.947        0.042      338.419       11.057      863.982
10/24/2013  09:53:00      -46.068      -45.149        2.056       27.190       27.366       18.395      739.288      748.885      338.384        0.300        0.091       64.503       17.937        0.077      338.501       11.195      863.981
10/24/2013  09:54:00      -52.752      -22.658       -4.424       18.760       20.490       12.899      351.927      419.835      166.396        0.213        0.047       57.413       10.213        0.032      338.451       11.111      863.976
10/24/2013  09:55:00      -44.072      -31.803        6.727       28.241       38.765       18.278      797.547     1502.727      334.070        0.282        0.132       54.349       18.872        0.121      338.612       11.381      863.970
10/24/2013  09:56:00      -43.667      -23.118        9.337       52.751       37.015       23.327     2782.687     1370.090      544.162        0.361        0.235       49.410       15.433        0.098      338.784       11.671      863.968
10/24/2013  09:57:00      -66.713      -17.585        1.875       32.359       28.972       24.580     1047.134      839.364      604.200        0.363        0.125       68.991       20.163        0.085      338.648       11.442      863.960
10/24/2013  09:58:00      -30.030      -50.895       13.511       50.487       26.274       33.178     2548.957      690.340     1100.782        0.401        0.217       59.094       34.979        0.350      338.786       11.674      863.964
10/24/2013  09:59:00      -51.624      -50.873       -8.107       24.926       26.738       15.442      621.301      714.940      238.446        0.345        0.079       72.479       10.789        0.022      338.597       11.356      863.961
10/24/2013  10:00:00      -23.136      -12.525        3.265       30.177       16.312       20.177      910.657      266.094      407.092        0.114        0.079       26.309       18.550        0.497      338.963       11.972      863.968
10/24/2013  10:01:00      -30.002       -8.456       -7.126       11.816        8.228        9.932      139.609       67.701       98.639        0.066        0.015       31.171        9.061        0.085      338.678       11.493      863.968
10/24/2013  10:02:00      -16.506        3.515      -15.536       15.772       17.945        9.944      248.753      322.024       98.884        0.060        0.033       16.877        4.115        0.059      338.896       11.860      863.961
10/24/2013  10:03:00      -12.689       15.540       -1.552       15.923        9.189       12.032      253.552       84.438      144.769        0.044        0.024       20.062        6.131        0.093      338.991       12.019      863.954
10/24/2013  10:04:00      -41.371        5.201       14.901       25.286       13.889       16.288      639.402      192.916      265.310        0.153        0.055       41.696       10.617        0.065      339.138       12.268      863.941
10/24/2013  10:05:00      -32.921      -20.547       -7.523       19.222        8.957        7.783      369.481       80.229       60.573        0.104        0.026       38.807        5.911        0.023      338.750       11.614      863.936
10/24/2013  10:06:00      -46.943      -35.555       -5.956       14.750       11.374        9.741      217.563      129.366       94.884        0.197        0.022       58.888        4.925        0.007      338.766       11.639      863.933
10/24/2013  10:07:00      -37.203      -31.216        1.632       14.106       13.330       11.949      198.985      177.681      142.775        0.144        0.026       48.564       11.364        0.055      338.853       11.786      863.927
10/24/2013  10:08:00        0.152        9.732       25.873       39.250       28.109       25.768     1540.549      790.125      663.985        0.188        0.150        9.733       28.900        8.816      339.405       12.716      863.918
10/24/2013  10:09:00       64.587       58.280       11.655       42.395       35.568       24.937     1797.353     1265.078      621.854        0.569        0.184       86.994       19.141        0.048      339.116       12.227      863.913
10/24/2013  10:10:00       52.136       55.666        5.964       31.322       33.811       23.579      981.059     1143.189      555.957        0.427        0.134       76.269       18.069        0.056      339.263       12.479      863.904
10/24/2013  10:11:00       54.782       54.795       -4.796       21.328       24.708       29.055      454.865      610.504      844.220        0.397        0.095       77.482       22.343        0.083      339.055       12.125      863.897
10/24/2013  10:12:00       55.973       52.122       15.167       21.922       22.186       30.803      480.581      492.234      948.842        0.400        0.096       76.483       11.373        0.022      339.159       12.302      863.893
10/24/2013  10:13:00       45.480       37.816       -6.434       31.197       22.764       23.302      973.237      518.187      542.983        0.279        0.102       59.148       13.229        0.050      339.155       12.294      863.899
10/24/2013  10:14:00       84.435       55.096        3.031       23.996       29.725       32.085      575.793      883.557     1029.428        0.633        0.124      100.820       10.608        0.011      339.299       12.538      863.900
10/24/2013  10:15:00       50.675       29.109       12.261       23.318       24.665       25.429      543.748      608.340      646.643        0.268        0.090       58.441        8.520        0.021      339.404       12.715      863.897
10/24/2013  10:16:00       23.881       46.367      -17.459       32.861       23.290       24.959     1079.878      542.406      622.976        0.263        0.112       52.155       20.375        0.153      339.218       12.401      863.888
10/24/2013  10:17:00       53.749       55.499       29.981       30.887       20.684       28.421      954.005      427.830      807.745        0.453        0.109       77.260       14.709        0.036      339.473       12.832      863.890
10/24/2013  10:18:00       45.293       42.359       38.582       24.164       16.599       14.973      583.917      275.535      224.187        0.321        0.054       62.014        6.491        0.011      339.478       12.839      863.889
10/24/2013  10:19:00      -62.808       35.838       -7.196       24.651       17.672       20.018      607.656      312.317      400.728        0.330        0.066       72.313       14.436        0.040      339.151       12.288      863.890
10/24/2013  10:20:00      -69.486      -17.419      -14.833       21.822       21.103       14.783      476.221      445.337      218.536        0.325        0.057       71.636       15.137        0.045      339.164       12.311      863.888
10/24/2013  10:21:00      -54.607      -34.052        7.101       24.230       26.309       19.721      587.075      692.155      388.918        0.293        0.083       64.355       13.734        0.046      339.360       12.641      863.878
10/24/2013  10:22:00      -64.809      -16.137        1.228       19.936       29.133       12.401      397.431      848.720      153.776        0.293        0.070       66.788       11.088        0.028      339.294       12.529      863.878
10/24/2013  10:23:00      -58.663       27.521      -12.601       11.459       14.787        7.567      131.311      218.655       57.262        0.238        0.020       64.798        6.541        0.010      339.260       12.471      863.883
10/24/2013  10:24:00      -57.068      -19.464       -3.994        8.335       17.290        8.912       69.466      298.959       79.423        0.205        0.022       60.296        4.550        0.006      339.241       12.441      863.881
10/24/2013  10:25:00      -51.984      -32.199       -0.201       23.793       18.103       12.881      566.126      327.728      165.912        0.240        0.053       61.149       12.923        0.045      339.343       12.613      863.875
10/24/2013  10:26:00      -72.400      -59.114      -10.116       20.569       23.906       14.662      423.093      571.482      214.963        0.502        0.060       93.468       10.476        0.013      339.298       12.536      863.869
10/24/2013  10:27:00      -72.134      -26.030      -13.054       18.502       15.669       10.594      342.327      245.532      112.229        0.338        0.035       76.687       10.554        0.019      339.299       12.537      863.867
10/24/2013  10:28:00      -81.266      -35.271      -13.362       17.099       31.743       14.988      292.390     1007.614      224.645        0.478        0.076       88.590        8.473        0.009      339.336       12.598      863.865
10/24/2013  10:29:00      -31.289        5.978       -3.625       17.062       13.570        8.680      291.099      184.153       75.346        0.079        0.028       31.855        4.062        0.016      339.474       12.833      863.857
10/24/2013  10:30:00      -25.398       16.676      -14.069       21.478       25.460       11.977      461.291      648.193      143.443        0.119        0.063       30.383        8.302        0.075      339.632       13.098      863.859
10/24/2013  10:31:00      -10.861       28.140       20.570       25.470       26.295       39.498      648.746      691.442     1560.085        0.212        0.145       30.163       27.535        0.833      340.109       13.904      863.856
10/24/2013  10:32:00       11.056       45.240       69.376       34.685       41.266       23.272     1203.026     1702.918      541.601        0.521        0.172       46.572       18.053        0.150      340.332       14.278      863.841
10/24/2013  10:33:00      -27.869        9.791       34.716       19.296       32.570       19.783      372.344     1060.805      391.384        0.195        0.091       29.539       18.158        0.378      340.170       14.006      863.841
10/24/2013  10:34:00       -6.090       15.805       15.886       19.398       19.990       25.634      376.294      399.619      657.115        0.099        0.072       16.938       12.224        0.521      340.639       14.800      863.838
10/24/2013  10:35:00        1.667       14.030       52.773       19.213       40.383       21.469      369.128     1630.814      460.902        0.272        0.123       14.129       22.049        2.435      340.594       14.721      863.835
10/24/2013  10:36:00        1.613       21.909       61.314       33.704       58.991       45.480     1135.931     3479.972     2068.406        0.546        0.334       21.969       44.034        4.018      340.707       14.914      863.824
10/24/2013  10:37:00       28.274      -25.222       33.207       37.716       55.197       50.591     1422.528     3046.762     2559.479        0.478        0.351       37.889       39.277        1.075      340.543       14.636      863.829
10/24/2013  10:38:00       36.804        1.766       59.177       58.668       83.881       59.924     3441.991     7036.008     3590.852        0.946        0.703       36.847       67.482        3.354      340.078       13.851      863.820
10/24/2013  10:39:00        7.103       62.049       90.426       37.273       49.173       36.330     1389.279     2417.984     1319.854        0.860        0.256       62.455       36.936        0.350      340.297       14.220      863.819
10/24/2013  10:40:00       22.924       -1.557       32.555       25.153       41.521       32.089      632.667     1724.031     1029.718        0.249        0.169       22.977       28.051        1.490      340.392       14.381      863.832
10/24/2013  10:41:00       25.152      -34.063       24.998       43.524       69.326       40.242     1894.380     4806.162     1619.380        0.537        0.416       42.342       50.865        1.443      340.538       14.627      863.818
10/24/2013  10:42:00        0.302       36.262       67.330       18.104       35.754       17.333      327.757     1278.339      300.448        0.388        0.095       36.263       16.109        0.197      340.747       14.981      863.813
10/24/2013  10:43:00      -13.763       20.567       37.184       14.476       34.423       23.164      209.551     1184.937      536.577        0.196        0.097       24.748       20.261        0.670      340.831       15.122      863.808
10/24/2013  10:44:00      -18.463       -7.226       16.569       26.881       21.069       22.268      722.580      443.921      495.843        0.116        0.083       19.826       17.977        0.822      340.398       14.392      863.791
10/24/2013  10:45:00      -10.876       -1.447       25.343       11.000       14.447       16.899      121.004      208.718      285.585        0.069        0.031       10.972       12.097        1.216      340.975       15.366      863.788
10/24/2013  10:46:00       47.609       60.641       28.500       46.839       38.729       32.516     2193.857     1499.912     1057.315        0.575        0.238       77.097       22.592        0.086      340.569       14.680      863.773
10/24/2013  10:47:00       14.405       21.746       30.439       36.875       37.924       30.564     1359.746     1438.246      934.159        0.267        0.187       26.085       21.876        0.703      340.863       15.177      863.772
10/24/2013  10:48:00       44.839      -37.838       48.075       58.672       90.308       56.955     3442.365     8155.608     3243.864        1.030        0.742       58.670       61.693        1.106      340.610       14.748      863.770
10/24/2013  10:49:00       36.356        6.463       49.975       35.360       64.239       33.032     1250.301     4126.641     1091.145        0.516        0.323       36.926       38.602        1.093      340.370       14.343      863.774
10/24/2013  10:50:00        8.867      -11.577       32.581       24.280       41.787       31.632      589.504     1746.177     1000.562        0.230        0.167       14.583       24.512        2.825      340.727       14.949      863.771
10/24/2013  10:51:00        9.675       24.416       39.312       21.998       28.517       38.294      483.894      813.236     1466.447        0.250        0.138       26.263       26.583        1.025      340.678       14.866      863.771
10/24/2013  10:52:00      -16.572       -2.239       44.764       30.357       74.057       44.819      921.555     5484.383     2008.733        0.535        0.421       16.722       46.551        7.749      340.759       15.002      863.775
10/24/2013  10:53:00       36.863      -16.470       55.823       61.419       99.687       49.788     3772.339     9937.595     2478.841        1.046        0.809       40.375       62.804        2.420      340.614       14.755      863.763
10/24/2013  10:54:00       44.045       -7.322       54.633       55.057      104.179       61.659     3031.288    10853.212     3801.836        1.133        0.884       44.650       80.033        3.213      340.501       14.566      863.769
10/24/2013  10:55:00       26.091       40.119       61.484       54.916       64.859       50.112     3015.762     4206.714     2511.257        0.790        0.487       47.856       46.058        0.926      340.504       14.571      863.765
10/24/2013  10:56:00       16.429       57.758       74.412       41.626       45.189       42.891     1732.747     2042.007     1839.607        0.738        0.281       60.049       34.227        0.325      340.685       14.876      863.763
10/24/2013  10:57:00       86.285       76.945       54.311       58.942       39.143       51.529     3474.173     1532.202     2655.221        1.199        0.383      115.610       46.983        0.165      340.299       14.225      863.766
10/24/2013  10:58:00       56.478       56.891       14.894       44.564       29.267       36.210     1985.928      856.576     1311.151        0.540        0.208       80.165       28.490        0.126      340.086       13.863      863.762
10/24/2013  10:59:00       80.016       74.056       -0.339       37.832       33.653       33.835     1431.271     1132.538     1144.786        0.780        0.185      109.027       22.998        0.044      340.174       14.013      863.760
10/24/2013  11:00:00      113.965       62.797        4.594       29.771       29.429       23.509      886.327      866.075      552.688        0.963        0.115      130.121        6.628        0.003      340.271       14.177      863.757
10/24/2013  11:01:00       69.649       47.084       23.171       44.568       27.774       30.876     1986.282      771.418      953.346        0.566        0.186       84.071       24.369        0.084      340.388       14.375      863.756
10/24/2013  11:02:00       36.230       11.872       16.044       34.831       26.311       25.558     1213.230      692.292      653.207        0.213        0.128       38.125       17.463        0.210      340.642       14.805      863.744
10/24/2013  11:03:00       29.658       19.303        5.754       30.247       31.631       18.818      914.854     1000.515      354.124        0.178        0.113       35.387       18.899        0.285      340.860       15.172      863.739
10/24/2013  11:04:00       43.953       44.340        9.328       38.108       30.518       25.147     1452.232      931.344      632.383        0.350        0.151       62.433       14.661        0.055      340.865       15.180      863.729
10/24/2013  11:05:00       37.341       70.499        5.750       43.675       52.052       33.982     1907.469     2709.377     1154.745        0.608        0.289       79.777       32.880        0.170      340.904       15.247      863.720
10/24/2013  11:06:00       16.011       42.869       22.460       38.162       51.655       27.838     1456.363     2668.191      774.932        0.375        0.245       45.761       30.724        0.451      341.257       15.845      863.706
10/24/2013  11:07:00       48.531       61.753       47.550       51.091       32.085       34.953     2610.298     1029.418     1221.721        0.664        0.243       78.541       26.127        0.111      340.819       15.104      863.702
10/24/2013  11:08:00       50.388       25.739        2.955       24.253       26.573       22.243      588.189      706.104      494.748        0.250        0.089       56.582       18.662        0.109      340.447       14.474      863.694
10/24/2013  11:09:00       22.022       23.347       29.121       43.280       50.374       30.188     1873.127     2537.500      911.337        0.360        0.266       32.095       22.948        0.511      340.830       15.121      863.685
10/24/2013  11:10:00       29.656       62.409       16.686       26.181       38.856       27.532      685.439     1509.787      757.999        0.400        0.148       69.097       14.008        0.041      340.774       15.027      863.675
10/24/2013  11:11:00       28.058       32.855       31.645       45.635       39.758       43.423     2082.568     1580.670     1885.544        0.421        0.277       43.206       36.806        0.726      341.121       15.614      863.671
10/24/2013  11:12:00       59.957       77.247       82.324       55.099       43.024       37.249     3035.886     1851.070     1387.459        1.131        0.314       97.785       37.443        0.147      340.805       15.080      863.673
10/24/2013  11:13:00       56.222       53.015       26.656       40.846       27.429       18.995     1668.376      752.324      360.827        0.473        0.139       77.276        5.156        0.004      340.601       14.735      863.672
10/24/2013  11:14:00      -13.941       -3.165       21.145       16.848       14.647       16.049      283.845      214.544      257.564        0.070        0.038       14.296       11.966        0.701      341.221       15.785      863.671
10/24/2013  11:15:00      -20.233       26.126       33.076       23.986       26.116       29.078      575.307      682.040      845.520        0.214        0.105       33.044       26.263        0.632      341.036       15.470      863.674
10/24/2013  11:16:00       11.484       12.835       10.463       21.820       31.667       19.317      476.096     1002.823      373.137        0.113        0.093       17.223       19.781        1.319      341.090       15.560      863.671
10/24/2013  11:17:00       35.749      -79.617        0.072       40.782       51.755       20.666     1663.138     2678.591      427.078        0.619        0.238       87.275       20.934        0.058      341.039       15.475      863.657
10/24/2013  11:18:00       31.445       58.541       77.527       57.166       82.719       43.643     3267.903     6842.408     1904.685        1.122        0.601       66.452       43.693        0.432      341.215       15.773      863.651
10/24/2013  11:19:00      110.436       91.083       26.949       34.913       26.983       30.635     1218.890      728.076      938.511        1.205        0.144      143.151       13.144        0.008      340.793       15.059      863.637
10/24/2013  11:20:00       18.251       15.743       43.946       38.780       57.853       35.934     1503.883     3347.003     1291.219        0.433        0.307       24.102       34.197        2.013      341.419       16.119      863.646
10/24/2013  11:21:00       -9.961       22.577       44.598       25.280       34.341       30.387      639.056     1179.326      923.391        0.267        0.137       24.677       11.417        0.214      341.796       16.759      863.630
10/24/2013  11:22:00        7.423       21.455       53.033       35.146       43.670       21.719     1235.226     1907.061      471.729        0.347        0.181       22.703       17.480        0.593      341.900       16.933      863.636
10/24/2013  11:23:00       25.854       60.816       81.090       57.394       47.805       42.363     3294.059     2285.290     1794.656        0.916        0.369       66.084       38.594        0.341      341.401       16.089      863.627
10/24/2013  11:24:00       25.344       41.098       64.154       35.592       37.176       21.936     1266.820     1382.051      481.177        0.479        0.157       48.285       19.039        0.155      341.501       16.257      863.625
10/24/2013  11:25:00       38.346      -65.971       31.758       36.933       53.868       39.507     1364.047     2901.728     1560.793        0.633        0.291       76.306       36.610        0.230      341.607       16.437      863.608
10/24/2013  11:26:00       40.034       58.485       69.042       52.634       33.914       38.088     2770.317     1150.126     1450.674        0.758        0.269       70.875       18.343        0.067      341.452       16.177      863.610
10/24/2013  11:27:00       25.383       30.269       54.679       31.858       47.397       18.379     1014.934     2246.520      337.801        0.407        0.180       39.503       24.967        0.399      341.385       16.061      863.603
10/24/2013  11:28:00       17.584       -9.398       44.427       31.941       52.681       36.313     1020.247     2775.249     1318.602        0.374        0.256       19.938       37.148        3.471      341.553       16.346      863.614
10/24/2013  11:29:00       49.846      -20.221       22.359       38.500       36.417       28.970     1482.231     1326.168      839.267        0.352        0.182       53.792       28.594        0.283      341.282       15.887      863.611
10/24/2013  11:30:00       50.418      -14.930       28.300       45.897       47.061       40.265     2106.548     2214.777     1621.304        0.475        0.297       52.582       42.139        0.642      341.362       16.021      863.615
10/24/2013  11:31:00       70.522       84.514       86.105       49.311       39.824       30.990     2431.558     1585.965      960.364        1.225        0.249      110.072       20.366        0.034      341.132       15.633      863.608
10/24/2013  11:32:00       77.771      -17.313       14.666       41.872       56.626       38.765     1753.262     3206.525     1502.732        0.651        0.323       79.675       37.667        0.223      341.184       15.720      863.611
10/24/2013  11:33:00        8.863       40.530       37.930       33.266       34.448       33.874     1106.652     1186.646     1147.464        0.330        0.172       41.488       19.297        0.216      341.722       16.632      863.601
10/24/2013  11:34:00       98.028       79.453       36.413       54.440       43.337       43.991     2963.670     1878.102     1935.242        1.201        0.339      126.184       33.183        0.069      341.390       16.069      863.595
10/24/2013  11:35:00      143.495       90.185       21.771       40.661       31.391       36.557     1653.277      985.405     1336.417        1.659        0.199      169.482       17.234        0.010      341.145       15.655      863.591
10/24/2013  11:36:00       59.714       81.103       28.786       29.980       53.063       34.406      898.806     2815.686     1183.746        0.793        0.245      100.714       15.084        0.022      341.639       16.492      863.583
10/24/2013  11:37:00       49.011      -54.492       -8.592       36.872       79.694       30.300     1359.550     6351.174      918.113        0.704        0.431       73.290       13.853        0.036      341.730       16.645      863.585
10/24/2013  11:38:00       61.220       21.349       57.319       67.352       89.982       53.418     4536.348     8096.766     2853.533        1.149        0.774       64.836       56.443        0.758      341.666       16.536      863.576
10/24/2013  11:39:00       49.163       46.274       52.912       41.415       44.863       37.918     1715.223     2012.649     1437.743        0.626        0.258       67.515       27.282        0.163      341.725       16.636      863.577
10/24/2013  11:40:00       25.462       49.627       71.153       47.810       56.976       41.416     2285.778     3246.287     1715.249        0.771        0.362       55.778       33.272        0.356      342.007       17.116      863.569
10/24/2013  11:41:00       39.565      119.031      117.072       49.891       46.062       49.471     2489.106     2121.677     2447.341        1.825        0.353      125.434       42.036        0.112      341.462       16.190      863.557
10/24/2013  11:42:00      113.908       90.355       72.248       46.023       59.736       40.775     2118.077     3568.378     1662.591        1.685        0.367      145.393       27.368        0.035      341.253       15.837      863.564
10/24/2013  11:43:00        5.268       64.245       84.295       42.301       54.748       36.990     1789.388     2997.330     1368.273        0.871        0.308       64.461       41.968        0.424      341.745       16.671      863.554
10/24/2013  11:44:00       54.192       77.732       61.249       56.185       37.850       35.100     3156.799     1432.619     1232.006        0.927        0.291       94.758       30.793        0.106      341.868       16.881      863.556
10/24/2013  11:45:00       55.649       60.905       -3.203       45.472       42.911       29.016     2067.668     1841.373      841.943        0.578        0.238       82.500       18.370        0.050      341.450       16.171      863.551
10/24/2013  11:46:00       36.253       70.645       -1.312       35.346       44.046       25.956     1249.360     1940.012      673.713        0.508        0.193       79.404       18.813        0.056      341.534       16.314      863.542
10/24/2013  11:47:00       22.454       38.286       13.628       26.596       27.637       25.345      707.335      763.828      642.344        0.213        0.106       44.385       19.870        0.200      341.924       16.974      863.540
10/24/2013  11:48:00       62.364       53.029       26.584       35.930       34.526       33.817     1290.991     1192.045     1143.562        0.552        0.181       81.862       17.300        0.045      341.699       16.592      863.522
10/24/2013  11:49:00       29.303       39.296       51.370       30.381       25.973       19.865      923.000      674.596      394.606        0.352        0.100       49.019       15.034        0.094      342.053       17.193      863.507
10/24/2013  11:50:00      112.461       77.703       32.564       49.699       43.722       44.315     2470.027     1911.626     1963.815        1.304        0.317      136.694       33.611        0.060      341.751       16.681      863.496
10/24/2013  11:51:00       37.447       15.687       25.836       35.266       40.523       33.356     1243.697     1642.138     1112.625        0.316        0.200       40.600       24.120        0.353      341.850       16.849      863.484
10/24/2013  11:52:00       81.567       56.860       22.424       74.462       45.842       32.981     5544.624     2101.452     1087.720        0.956        0.437       99.429       23.121        0.054      342.050       17.189      863.482
10/24/2013  11:53:00      129.376       69.400       -1.412       33.865       25.127       30.711     1146.846      631.351      943.153        1.214        0.136      146.814       18.088        0.015      341.570       16.374      863.478
10/24/2013  11:54:00      115.861       77.105       30.992       51.243       45.055       40.287     2625.862     2029.912     1623.075        1.330        0.314      139.172       23.509        0.029      341.699       16.593      863.480
10/24/2013  11:55:00       99.950       71.611       30.840       37.136       42.280       40.409     1379.106     1787.564     1632.914        1.043        0.240      122.955       21.609        0.031      341.743       16.668      863.474
10/24/2013  11:56:00       44.093       22.217       -6.647       30.976       22.116       24.221      959.511      489.137      586.678        0.226        0.102       49.374       13.541        0.075      341.966       17.046      863.478
10/24/2013  11:57:00      -15.238       61.306       -2.783       26.380       30.206       24.295      695.927      912.420      590.242        0.310        0.110       63.172       12.504        0.039      341.939       17.000      863.478
10/24/2013  11:58:00       -7.617       49.895       -7.975       25.484       36.801       20.319      649.423     1354.312      412.860        0.251        0.121       50.473       19.697        0.152      342.343       17.686      863.469
10/24/2013  11:59:00      -55.486       11.402       -5.310       46.045       23.879       37.023     2120.176      570.189     1370.700        0.365        0.203       56.645       33.026        0.340      342.061       17.208      863.467
10/24/2013  12:00:00       11.094       -5.412       23.236       18.953       19.242       17.826      359.223      370.272      317.775        0.087        0.052       12.344        8.013        0.421      342.719       18.325      863.464
10/24/2013  12:01:00       -3.219       30.713        3.447       33.050       29.666       24.353     1092.315      880.091      593.061        0.177        0.128       30.881       18.537        0.360      342.579       18.088      863.457
10/24/2013  12:02:00       45.108       39.716       17.889       35.701       21.344       29.154     1274.559      455.571      849.972        0.326        0.129       60.101       25.874        0.185      342.116       17.302      863.456
10/24/2013  12:03:00        2.210        7.902       34.295       22.344       43.553       29.958      499.247     1896.860      897.496        0.227        0.165        8.205       25.387        9.572      342.841       18.531      863.444
10/24/2013  12:04:00       31.286       -6.091       39.402       45.419       64.722       44.967     2062.911     4188.915     2021.993        0.542        0.414       31.873       49.603        2.422      342.467       17.898      863.443
10/24/2013  12:05:00      -35.493       10.952        2.002       31.313       35.606       24.278      980.491     1267.785      589.424        0.211        0.142       37.145       21.288        0.328      342.170       17.391      863.429
10/24/2013  12:06:00      -18.800       25.960       16.250       26.018       25.162       21.810      676.939      633.115      475.686        0.154        0.089       32.052       17.615        0.302      342.830       18.515      863.420
10/24/2013  12:07:00      -15.281       -9.930       26.414       26.405       39.819       24.935      697.207     1585.575      621.774        0.197        0.145       18.224       25.575        1.969      342.591       18.109      863.407
10/24/2013  12:08:00      -10.927      -61.401       -3.290       44.483       22.759       24.830     1978.739      517.954      616.531        0.351        0.156       62.366       10.816        0.030      342.255       17.537      863.400
10/24/2013  12:09:00      -68.219      -25.269        4.859       38.749       41.077       23.501     1501.496     1687.327      552.284        0.453        0.187       72.749       20.085        0.076      342.276       17.572      863.378
10/24/2013  12:10:00      -27.115      -10.452       17.704       37.732       37.619       20.201     1423.711     1415.214      408.078        0.220        0.162       29.059       20.847        0.515      342.633       18.180      863.376
10/24/2013  12:11:00       -1.612        3.894       25.982       25.634       19.882       17.508      657.112      395.299      306.532        0.103        0.068        4.214       12.823        9.258      343.026       18.847      863.352
10/24/2013  12:12:00        2.463      -43.888       26.345       28.776       40.084       29.138      828.063     1606.690      849.005        0.295        0.164       43.957       20.854        0.225      342.884       18.606      863.348
10/24/2013  12:13:00        1.727      -26.458       41.260       27.757       59.044       40.405      770.438     3486.232     1632.551        0.415        0.294       26.514       46.040        3.015      343.059       18.905      863.334
10/24/2013  12:14:00       24.252       25.327       29.495       37.393       49.027       34.216     1398.246     2403.674     1170.704        0.354        0.249       35.066       32.422        0.855      342.676       18.252      863.331
10/24/2013  12:15:00        3.320       16.171        7.197       63.091       22.002       28.466     3980.438      484.103      810.303        0.280        0.264       16.509       29.052        3.097      342.560       18.055      863.308
10/24/2013  12:16:00       65.482       63.145       38.855       46.425       42.977       33.455     2155.250     1847.064     1119.240        0.745        0.256       90.968       28.481        0.098      342.569       18.071      863.302
10/24/2013  12:17:00       41.338       63.736       48.524       54.064       37.388       49.486     2922.917     1397.831     2448.879        0.745        0.338       75.968       21.153        0.078      342.893       18.622      863.281
10/24/2013  12:18:00       88.861       82.343       44.027       26.291       19.806       33.118      691.230      392.270     1096.822        0.940        0.109      121.147       25.467        0.044      342.025       17.146      863.284
10/24/2013  12:19:00       37.559       -4.824       18.030       38.247       72.247       28.746     1462.809     5219.605      826.348        0.463        0.375       37.868       40.242        1.129      342.409       17.798      863.263
10/24/2013  12:20:00       60.589     -136.041      -15.573       34.329       39.338       20.372     1178.456     1547.495      415.031        1.278        0.157      148.924       14.068        0.009      342.273       17.568      863.251
10/24/2013  12:21:00       29.197     -117.360      -13.972       19.345       34.431       18.714      374.244     1185.519      350.228        0.837        0.095      120.937       13.922        0.013      342.150       17.359      863.237
10/24/2013  12:22:00       24.477      -21.902       45.603       37.788       54.391       36.881     1427.957     2958.398     1360.212        0.445        0.287       32.846       35.898        1.195      342.925       18.678      863.227
10/24/2013  12:23:00       36.852      -52.413        0.798       31.571       28.749       35.847      996.732      826.507     1285.033        0.361        0.155       64.071       24.045        0.141      342.546       18.031      863.211
10/24/2013  12:24:00        4.937      -20.567       29.967       25.743       28.901       18.289      662.727      835.286      334.496        0.159        0.092       21.152       17.460        0.681      343.021       18.840      863.201
10/24/2013  12:25:00       84.854       24.979       15.708       55.848       26.261       30.611     3118.975      689.649      937.037        0.641        0.237       88.454       23.064        0.068      342.861       18.569      863.179
10/24/2013  12:26:00       46.840       67.136        0.134       48.004       44.558       28.764     2304.426     1985.415      827.360        0.591        0.256       81.861       19.910        0.059      342.778       18.426      863.173
10/24/2013  12:27:00       19.018      116.000      -16.794       20.400       25.026       21.319      416.155      626.305      454.486        0.780        0.075      117.549       11.000        0.009      342.438       17.849      863.168
10/24/2013  12:28:00       27.767       46.717       16.073       35.126       34.040       27.320     1233.823     1158.740      746.367        0.317        0.157       54.346       23.860        0.193      342.688       18.273      863.162
10/24/2013  12:29:00       30.170       68.173       -1.258       29.357       33.642       19.940      861.862     1131.776      397.604        0.397        0.120       74.551       15.090        0.041      342.490       17.937      863.156
10/24/2013  12:30:00        3.877       33.485        8.432       21.720       22.970       22.623      471.751      527.640      511.815        0.136        0.076       33.709       17.584        0.272      343.003       18.809      863.145
10/24/2013  12:31:00       -3.516       49.275        2.484       30.834       30.151       22.077      950.726      909.078      487.404        0.240        0.117       49.400       19.722        0.159      342.938       18.698      863.131
10/24/2013  12:32:00       15.310       37.450        9.542       26.083       22.447       26.391      680.333      503.885      696.460        0.180        0.094       40.459       15.927        0.155      342.928       18.681      863.114
10/24/2013  12:33:00       11.731       11.622       10.724       20.690       17.124       20.761      428.078      293.237      431.032        0.077        0.058       16.513        3.961        0.058      343.300       19.314      863.100
10/24/2013  12:34:00       -7.420      -79.871      -10.589       62.657       48.661       28.219     3925.900     2367.849      796.305        0.682        0.355       80.215       31.236        0.152      343.168       19.088      863.085
10/24/2013  12:35:00       31.317      -86.243      -15.381       28.119       45.215       22.923      790.656     2044.354      525.447        0.601        0.168       91.753       14.711        0.026      342.679       18.258      863.080
10/24/2013  12:36:00      -15.694      -18.488       15.549       26.824       25.677       24.200      719.517      659.311      585.639        0.140        0.098       24.251       13.628        0.316      343.314       19.339      863.060
10/24/2013  12:37:00       -1.108       25.223       24.276       28.150       28.725       24.118      792.396      825.107      581.674        0.171        0.110       25.247       17.491        0.480      343.196       19.138      863.056
10/24/2013  12:38:00       24.888       19.944        9.475       41.830       22.402       24.313     1749.708      501.860      591.143        0.197        0.142       31.893       12.794        0.161      343.137       19.038      863.044
10/24/2013  12:39:00       60.973       26.029       18.824       52.317       41.241       41.296     2737.058     1700.819     1705.387        0.545        0.307       66.296       32.104        0.235      343.291       19.299      863.034
10/24/2013  12:40:00       43.983       88.111        2.109       41.338       44.259       33.044     1708.830     1958.825     1091.916        0.723        0.238       98.479       27.572        0.078      342.946       18.712      863.014
10/24/2013  12:41:00       61.735       56.877       13.390       54.754       33.535       26.392     2997.970     1124.602      696.534        0.602        0.241       83.942       22.516        0.072      342.898       18.630      863.002
10/24/2013  12:42:00       26.021       39.589       -4.290       38.156       32.798       18.310     1455.855     1075.734      335.246        0.256        0.143       47.374       14.640        0.095      343.136       19.035      862.996
10/24/2013  12:43:00       38.331       34.506       17.314       41.158       40.472       29.632     1693.961     1637.981      878.033        0.358        0.210       51.574       22.919        0.197      343.496       19.648      862.981
10/24/2013  12:44:00       51.064     -124.268       -3.935       71.404       66.075       33.262     5098.473     4365.941     1106.390        1.432        0.529      134.351       31.833        0.056      343.162       19.080      862.967
10/24/2013  12:45:00       87.635     -100.962      -14.127       46.060       57.110       37.312     2121.561     3261.573     1392.170        1.242        0.339      133.691       37.873        0.080      343.072       18.927      862.953
10/24/2013  12:46:00       29.418      -38.548       37.125       67.343       88.734       57.154     4535.068     7873.728     3266.583        0.970        0.784       48.491       63.007        1.688      343.505       19.664      862.937
10/24/2013  12:47:00       40.621       14.597       44.985       52.959       49.999       41.257     2804.679     2499.894     1702.165        0.545        0.350       43.164       42.149        0.953      343.381       19.454      862.938
10/24/2013  12:48:00       22.273      -96.377       13.688       32.547       38.520       21.664     1059.324     1483.794      469.340        0.649        0.151       98.917       20.353        0.042      343.252       19.232      862.915
10/24/2013  12:49:00       -9.214       17.540       52.998       25.323       46.491       39.555      641.230     2161.382     1564.589        0.378        0.218       19.813       31.938        2.598      343.658       19.926      862.909
10/24/2013  12:50:00        9.066       37.969       52.446       36.976       33.841       29.948     1367.233     1145.224      896.908        0.384        0.170       39.036       25.333        0.421      343.530       19.706      862.898
10/24/2013  12:51:00        6.322       59.186       12.380       24.721       31.735       32.966      611.148     1007.133     1086.743        0.320        0.135       59.523       23.873        0.161      343.345       19.392      862.879
10/24/2013  12:52:00       10.731       36.172       19.864       34.703       43.897       23.789     1204.301     1926.913      565.906        0.276        0.185       37.730       25.032        0.440      343.546       19.735      862.862
10/24/2013  12:53:00      -28.932       35.051      -15.529       23.528       27.633       18.604      553.567      763.557      346.099        0.198        0.083       45.449       14.516        0.102      343.417       19.513      862.844
10/24/2013  12:54:00        1.798       36.624        4.027       37.702       39.313       27.778     1421.408     1545.506      771.627        0.255        0.187       36.668       23.210        0.401      343.803       20.173      862.834
10/24/2013  12:55:00      -14.130       97.664      -14.555       39.873       40.018       25.462     1589.875     1601.404      648.317        0.689        0.192       98.681       18.203        0.034      343.100       18.973      862.815
10/24/2013  12:56:00      -48.264       77.549       -8.109       19.849       36.593       25.945      393.990     1339.055      673.145        0.541        0.120       91.341       25.769        0.080      343.243       19.218      862.805
10/24/2013  12:57:00      -42.195       72.725        3.210       34.393       42.708       35.279     1182.902     1823.991     1244.586        0.566        0.213       84.079       34.988        0.173      343.547       19.737      862.797
10/24/2013  12:58:00      -46.026       51.839       -2.618       39.637       27.603       24.572     1571.116      761.943      603.784        0.387        0.147       69.323       21.419        0.095      343.502       19.659      862.782
10/24/2013  12:59:00      -24.049       33.264       14.127       36.750       30.085       24.266     1350.561      905.114      588.845        0.236        0.142       41.046       16.394        0.160      343.805       20.176      862.770
10/24/2013  13:00:00       -5.050       23.351        7.011       15.413       32.285       18.404      237.547     1042.325      338.700        0.112        0.081       23.890       12.131        0.258      343.769       20.115      862.750
10/24/2013  13:01:00      -21.364      -10.176      -10.356       25.204       21.625       15.809      635.249      467.633      249.934        0.101        0.068       23.664       12.506        0.279      343.394       19.476      862.745
10/24/2013  13:02:00       -6.229      -73.653      -14.189       30.639       41.009       31.079      938.718     1681.745      965.910        0.463        0.179       73.916       21.641        0.086      343.680       19.962      862.727
10/24/2013  13:03:00       59.115      -66.670       15.631       48.050       43.299       39.959     2308.782     1874.804     1596.724        0.698        0.289       89.104       24.831        0.078      343.538       19.722      862.712
10/24/2013  13:04:00        8.096      -12.525        8.445       25.092       27.555       25.783      629.633      759.285      664.738        0.117        0.103       14.914       21.651        2.107      343.473       19.609      862.697
10/24/2013  13:05:00      -10.058       -0.929       41.932       14.444       45.583       37.251      208.629     2077.786     1387.630        0.277        0.184       10.100       33.852       11.233      344.182       20.819      862.675
10/24/2013  13:06:00       19.660       49.359       74.581       44.662       63.363       32.905     1994.681     4014.835     1082.749        0.774        0.355       53.131       32.617        0.377      344.027       20.555      862.664
10/24/2013  13:07:00       36.305       33.423       28.644       41.216       44.564       35.734     1698.746     1985.994     1276.943        0.411        0.248       49.347       31.411        0.405      344.134       20.737      862.644
10/24/2013  13:08:00       19.039       45.188       13.580       37.491       31.515       26.651     1405.591      993.215      710.301        0.285        0.155       49.035       25.570        0.272      344.047       20.589      862.641
10/24/2013  13:09:00        3.092       19.108       18.287       19.883       29.917       20.354      395.333      894.998      414.280        0.121        0.085       19.356       14.101        0.531      344.148       20.761      862.618
10/24/2013  13:10:00       44.787       24.437       23.087       29.351       23.887       30.187      861.453      570.612      911.240        0.274        0.117       51.020       16.028        0.099      343.930       20.389      862.604
10/24/2013  13:11:00       82.885       73.212       16.924       49.340       42.793       33.611     2434.388     1831.233     1129.717        0.895        0.270      110.588       10.740        0.009      343.607       19.839      862.591
10/24/2013  13:12:00      115.409       83.472        7.033       78.046       39.285       38.139     6091.121     1543.322     1454.575        1.471        0.454      142.432        9.281        0.004      343.586       19.802      862.573
10/24/2013  13:13:00      130.163       86.523       17.024       58.848       32.150       42.022     3463.093     1033.601     1765.870        1.549        0.313      156.297       21.250        0.018      343.725       20.038      862.568
10/24/2013  13:14:00       73.483       74.905        1.154       64.013       59.862       52.251     4097.683     3583.445     2730.185        1.071        0.521      104.931       44.296        0.178      343.668       19.941      862.555
10/24/2013  13:15:00      129.776       83.178       11.459       60.186       29.930       28.737     3622.354      895.829      825.818        1.462        0.267      154.144       18.470        0.014      343.476       19.614      862.547
10/24/2013  13:16:00       22.964       59.356        3.821       33.484       47.587       25.001     1121.195     2264.539      625.053        0.404        0.201       63.643       24.937        0.154      343.937       20.402      862.527
10/24/2013  13:17:00       40.148       74.280       -0.087       25.387       52.673       33.121      644.501     2774.460     1096.976        0.582        0.226       84.435       29.562        0.123      343.613       19.848      862.513
10/24/2013  13:18:00       72.812       45.425       18.635       49.958       32.778       28.581     2495.772     1074.377      816.872        0.605        0.219       85.820       18.544        0.047      343.803       20.173      862.500
10/24/2013  13:19:00       43.471      108.848       -6.381       56.782       55.664       38.222     3224.237     3098.536     1460.906        1.078        0.389      117.207        5.640        0.002      343.884       20.309      862.475
10/24/2013  13:20:00       18.590       51.848        0.577       25.521       41.742       23.733      651.324     1742.388      563.266        0.300        0.148       55.080       22.547        0.168      343.886       20.315      862.473
10/24/2013  13:21:00       58.790       36.875       11.038       47.892       34.506       27.471     2293.611     1190.648      754.682        0.459        0.212       69.398       12.533        0.033      343.900       20.337      862.450
10/24/2013  13:22:00       30.377       42.567       20.204       43.592       41.000       30.947     1900.298     1681.014      957.720        0.384        0.227       52.295       21.945        0.176      344.259       20.950      862.434
10/24/2013  13:23:00       24.544      -86.890       -3.893       51.014       73.064       37.486     2602.461     5338.299     1405.234        0.876        0.467       90.290       31.774        0.124      344.004       20.516      862.412
10/24/2013  13:24:00       94.687     -115.579       -9.087       33.526       39.232       21.444     1124.009     1539.131      459.829        1.276        0.156      149.413       19.650        0.017      343.625       19.869      862.397
10/24/2013  13:25:00       70.599      -37.446       19.360       50.549       53.183       35.883     2555.185     2828.388     1287.579        0.672        0.334       79.915       39.349        0.242      343.919       20.370      862.390
10/24/2013  13:26:00       91.225       68.331       38.946       48.844       53.272       47.056     2385.720     2837.903     2214.314        1.097        0.372      113.979       41.803        0.135      343.727       20.043      862.383
10/24/2013  13:27:00       -7.029      -28.739        2.972       25.926       52.100       16.900      672.174     2714.457      285.603        0.228        0.184       29.586       14.880        0.253      343.679       19.958      862.364
10/24/2013  13:28:00      -46.649      -37.577       -2.469       41.422       40.281       22.972     1715.779     1622.590      527.729        0.373        0.193       59.901       17.526        0.086      343.810       20.183      862.345
10/24/2013  13:29:00      -69.280       45.155        2.552       28.940       33.359       27.220      837.547     1112.831      740.940        0.477        0.135       82.697       20.178        0.060      343.827       20.213      862.322
10/24/2013  13:30:00      -42.210       62.072       -2.611       30.946       32.904       30.201      957.629     1082.685      912.124        0.430        0.148       75.064       20.586        0.075      344.026       20.553      862.315
10/24/2013  13:31:00      -15.416      -20.749        1.324       30.034       50.304       30.740      902.065     2530.463      944.947        0.252        0.219       25.849       29.189        1.275      344.404       21.199      862.309
10/24/2013  13:32:00      -36.238      -58.626       -6.312       45.964       33.819       22.644     2112.696     1143.719      512.769        0.428        0.188       68.922       19.946        0.084      344.025       20.552      862.295
10/24/2013  13:33:00      -50.005      -30.205       -4.883       51.268       28.822       14.406     2628.388      830.709      207.546        0.355        0.183       58.419       10.372        0.032      344.110       20.696      862.284
10/24/2013  13:34:00       38.838      -42.714        5.663       72.676       66.553       23.296     5281.737     4429.256      542.700        0.681        0.513       57.731       29.206        0.256      344.401       21.194      862.272
10/24/2013  13:35:00       55.840      -12.012       67.250       83.018      119.669       77.492     6892.026    14320.788     6005.032        1.750        1.361       57.118       82.606        2.092      344.341       21.089      862.235
10/24/2013  13:36:00       67.743      -40.241       36.759       36.618      101.355       54.246     1340.859    10272.874     2942.638        1.106        0.728       78.794       69.198        0.771      344.008       20.523      862.251
10/24/2013  13:37:00       15.728      -56.905        3.807       29.583       24.664       19.938      875.137      608.312      397.542        0.269        0.094       59.039       16.434        0.077      344.029       20.560      862.230
10/24/2013  13:38:00       27.432       42.624        8.716       22.766       19.560       19.391      518.288      382.596      376.022        0.196        0.064       50.688       14.510        0.082      344.265       20.960      862.209
10/24/2013  13:39:00       36.181      -59.756        8.283       74.387       78.131       37.722     5533.411     6104.436     1422.955        0.900        0.653       69.856       57.751        0.683      344.371       21.143      862.197
10/24/2013  13:40:00      109.949     -129.215        7.458       50.048       67.598       43.072     2504.834     4569.436     1855.235        1.888        0.446      169.662       26.033        0.024      344.190       20.831      862.172
10/24/2013  13:41:00       92.202      -85.033       14.120       48.902       81.403       52.322     2391.380     6626.440     2737.563        1.384        0.588      125.427       50.535        0.162      344.370       21.141      862.162
10/24/2013  13:42:00       59.077      -46.931       33.875       56.180       74.789       42.408     3156.205     5593.397     1798.402        0.869        0.527       75.450       39.140        0.269      344.463       21.298      862.163
10/24/2013  13:43:00       59.288      -73.572       20.834       66.258       52.753       35.045     4390.107     2782.928     1228.120        0.888        0.420       94.488       27.868        0.087      344.224       20.891      862.152
10/24/2013  13:44:00       88.253      -71.642       16.979       43.061       53.713       42.936     1854.291     2885.125     1843.470        0.990        0.329      113.671       30.366        0.071      344.347       21.102      862.136
10/24/2013  13:45:00       93.742     -123.499      -22.372       39.091       50.116       21.658     1528.101     2511.605      469.051        1.452        0.225      155.047       20.241        0.017      344.015       20.533      862.129
10/24/2013  13:46:00        3.924       -4.138       15.245       37.303       37.316       24.432     1391.478     1392.505      596.906        0.182        0.169        5.703       29.460       26.685      344.240       20.918      862.119
10/24/2013  13:47:00      -55.276        7.682       -3.329       59.505       52.540       25.312     3540.851     2760.474      640.712        0.503        0.347       55.807       12.972        0.054      344.361       21.127      862.093
10/24/2013  13:48:00       96.087       64.661       24.632       57.794       34.949       31.625     3340.114     1221.414     1000.117        0.979        0.278      115.818       24.226        0.044      344.091       20.664      862.097
10/24/2013  13:49:00      127.469      110.632       20.810       66.023       58.329       45.999     4359.063     3402.232     2115.875        1.940        0.494      168.783       31.057        0.034      344.098       20.674      862.074
10/24/2013  13:50:00      119.916       77.488       15.928       63.477       54.995       44.595     4029.271     3024.432     1988.750        1.484        0.452      142.773       24.996        0.031      344.325       21.062      862.049
10/24/2013  13:51:00      114.839       81.639        8.414       60.226       55.445       33.957     3627.215     3074.185     1153.109        1.389        0.393      140.900       24.152        0.029      344.047       20.589      862.043
10/24/2013  13:52:00       72.188       64.443       14.314       42.051       38.755       26.109     1768.262     1501.974      681.700        0.676        0.198       96.768       13.056        0.018      344.241       20.920      862.035
10/24/2013  13:53:00      130.582       45.391       23.378       46.494       43.316       36.289     2161.656     1876.314     1316.866        1.251        0.268      138.246       24.262        0.031      344.239       20.916      862.008
10/24/2013  13:54:00       58.770       67.494       -3.194       39.312       33.531       26.799     1545.419     1124.340      718.165        0.570        0.169       89.495       23.174        0.067      344.357       21.117      861.997
10/24/2013  13:55:00      -19.239       47.371       -0.071       49.157       42.661       36.366     2416.448     1819.997     1322.512        0.409        0.278       51.129       31.008        0.368      344.499       21.360      861.982
10/24/2013  13:56:00       23.460       26.447       32.652       45.567       49.419       32.210     2076.381     2442.223     1037.469        0.394        0.278       35.353       19.614        0.308      344.893       22.036      861.969
10/24/2013  13:57:00       76.225       70.655       69.650       74.779       60.000       40.932     5591.960     3599.979     1675.429        1.326        0.543      103.934       32.302        0.097      344.840       21.944      861.939
10/24/2013  13:58:00      120.215       89.068       31.564       49.834       53.276       37.179     2483.447     2838.333     1382.243        1.504        0.335      149.615       27.953        0.035      344.493       21.350      861.932
10/24/2013  13:59:00       65.148      -63.641        8.682       48.910       93.583       33.969     2392.198     8757.789     1153.900        1.033        0.615       91.074       34.273        0.142      344.513       21.384      861.935
10/24/2013  14:00:00       71.278     -104.235        6.044       51.438       87.595       49.016     2645.854     7672.963     2402.538        1.435        0.636      126.275       41.346        0.107      344.601       21.536      861.913
10/24/2013  14:01:00      106.731     -146.487       -7.285       50.519       79.021       45.194     2552.146     6244.292     2042.473        2.187        0.542      181.245       52.154        0.083      344.227       20.894      861.900
10/24/2013  14:02:00       57.285     -120.976       -7.345       49.892       66.072       41.520     2489.227     4365.480     1723.916        1.327        0.429      133.853       41.769        0.097      344.368       21.136      861.896
10/24/2013  14:03:00      136.548     -198.786      -22.445       41.857       56.560       28.195     1752.037     3199.072      794.966        3.220        0.287      241.166       18.387        0.006      344.142       20.747      861.882
10/24/2013  14:04:00       69.420      -63.074        4.995       53.013       75.431       43.790     2810.383     5689.858     1917.558        0.962        0.521       93.795       51.143        0.297      344.453       21.281      861.874
10/24/2013  14:05:00       58.271      -10.513       53.344       60.633      110.692       61.226     3676.413    12252.663     3748.580        1.301        0.984       59.211       75.634        1.632      344.632       21.587      861.858
10/24/2013  14:06:00       12.953      -24.312       44.561       62.545      108.330       65.155     3911.923    11735.433     4245.162        1.132        0.995       27.547       80.318        8.501      344.789       21.857      861.847
10/24/2013  14:07:00       95.752     -151.061       -0.858       91.508       91.977       55.283     8373.802     8459.710     3056.186        2.594        0.994      178.852       59.311        0.110      344.608       21.546      861.813
10/24/2013  14:08:00      188.330     -244.567      -25.571       57.541       52.460       38.706     3310.944     2752.050     1498.156        5.175        0.378      308.677       36.363        0.014      344.316       21.046      861.790
10/24/2013  14:09:00      186.748     -231.726      -43.357       49.555       60.919       35.545     2455.657     3711.151     1263.442        4.894        0.372      297.610       11.303        0.001      344.239       20.911      861.782
10/24/2013  14:10:00      169.160     -216.860      -44.794       74.547       94.014       48.352     5557.302     8838.712     2337.908        4.719        0.837      275.033       38.276        0.019      344.372       21.141      861.769
10/24/2013  14:11:00       88.923      -48.450       36.919       60.948       57.223       51.494     3714.618     3274.514     2651.617        1.063        0.482      101.266       43.099        0.181      344.544       21.438      861.769
10/24/2013  14:12:00       14.304      -82.627       25.244       40.236       60.535       28.570     1618.975     3664.535      816.255        0.688        0.305       83.856       23.521        0.079      344.404       21.198      861.753
10/24/2013  14:13:00      120.190       84.145       55.144       87.646       49.029       44.214     7681.821     2403.852     1954.893        1.830        0.602      146.718       37.172        0.064      344.630       21.583      861.736
10/24/2013  14:14:00       -1.158        9.626       64.658       35.289       68.101       43.731     1245.345     4637.744     1912.374        0.603        0.390        9.695       36.605       14.255      345.156       22.486      861.723
10/24/2013  14:15:00       53.026       73.460      112.502       85.058       73.696       52.400     7234.889     5431.106     2745.731        1.814        0.771       90.599       55.120        0.370      344.840       21.944      861.724
10/24/2013  14:16:00       53.329      -15.182       47.808       56.636       68.522       50.259     3207.654     4695.260     2526.004        0.789        0.521       55.448       46.206        0.694      344.708       21.718      861.727
10/24/2013  14:17:00       85.663      -38.029       37.849       81.770      116.546       61.891     6686.398    13583.086     3830.516        1.715        1.205       93.724       80.546        0.739      344.688       21.684      861.710
10/24/2013  14:18:00       66.701      -56.266        7.689       45.051       50.292       33.265     2029.570     2529.285     1106.589        0.667        0.283       87.263       41.571        0.227      344.462       21.299      861.699
10/24/2013  14:19:00       55.046       68.755       41.515       56.699       46.259       40.867     3214.801     2139.856     1670.145        0.825        0.351       88.075       32.684        0.138      344.649       21.618      861.685
10/24/2013  14:20:00       64.416       26.641       16.917       45.870       39.982       33.481     2104.085     1598.588     1121.005        0.498        0.241       69.708       21.074        0.091      344.679       21.670      861.680
10/24/2013  14:21:00       40.311       27.749       -0.650       34.153       18.641       20.963     1166.428      347.475      439.462        0.217        0.098       48.939       20.796        0.181      344.629       21.585      861.668
10/24/2013  14:22:00       72.364       42.765       12.218       46.246       34.767       30.533     2138.672     1208.733      932.279        0.575        0.214       84.056       13.212        0.025      344.688       21.685      861.650
10/24/2013  14:23:00       19.045      -30.860        4.325       37.676       49.212       30.263     1419.507     2421.785      915.867        0.304        0.238       36.264       16.190        0.199      344.881       22.015      861.645
10/24/2013  14:24:00       76.872       57.004       31.390       44.790       28.814       27.071     2006.112      830.238      732.849        0.686        0.178       95.702       15.556        0.026      344.761       21.808      861.634
10/24/2013  14:25:00      118.854       92.278       -1.117       49.144       33.208       36.737     2415.122     1102.792     1349.638        1.375        0.243      150.471       15.628        0.011      344.452       21.281      861.621
10/24/2013  14:26:00       25.831       22.856       -6.382       41.314       21.511       16.538     1706.817      462.730      273.504        0.184        0.122       34.491       15.754        0.209      344.797       21.870      861.616
10/24/2013  14:27:00      -15.993        7.204       18.189       30.017       33.674       29.623      901.024     1133.952      877.533        0.178        0.146       17.540       24.446        1.942      345.136       22.452      861.610
10/24/2013  14:28:00       47.478       38.713       74.481       73.367       72.730       44.150     5382.763     5289.616     1949.228        1.096        0.631       61.261       38.545        0.396      345.134       22.448      861.613
10/24/2013  14:29:00       77.216      -66.105       24.936       65.991       74.055       57.377     4354.791     5484.126     3292.163        1.204        0.657      101.647       41.059        0.163      345.036       22.279      861.611
10/24/2013  14:30:00       66.384     -127.029      -15.625       59.280       64.583       36.625     3514.094     4171.017     1341.425        1.491        0.451      143.329       31.704        0.049      344.734       21.762      861.615
10/24/2013  14:31:00       14.847       -6.946       64.477       44.762       80.597       45.612     2003.644     6495.885     2080.423        0.750        0.529       16.391       51.999       10.064      345.057       22.317      861.609
10/24/2013  14:32:00       82.844     -131.163        0.554       47.440       75.520       41.580     2250.531     5703.286     1728.916        1.687        0.484      155.135       50.772        0.107      344.756       21.800      861.600
10/24/2013  14:33:00       58.340       54.205       81.272       64.111       56.327       48.845     4110.266     3172.783     2385.879        1.131        0.483       79.634       44.278        0.309      344.835       21.937      861.602
10/24/2013  14:34:00       92.374        1.820       24.896       69.264       76.321       49.044     4797.550     5824.968     2405.276        1.109        0.651       92.392       42.718        0.214      344.537       21.425      861.602
10/24/2013  14:35:00       85.189     -102.202      -24.514       72.945       89.806       43.522     5320.996     8065.055     1894.187        1.679        0.764      133.050       46.509        0.122      344.725       21.747      861.591
10/24/2013  14:36:00      184.465     -168.113      -30.941       45.832       65.179       36.347     2100.594     4248.262     1321.108        3.546        0.383      249.578       34.933        0.020      344.481       21.324      861.581
10/24/2013  14:37:00       65.258      -76.145        3.359       53.799       46.381       49.962     2894.319     2151.187     2496.239        0.880        0.377      100.284       41.547        0.172      344.576       21.493      861.576
10/24/2013  14:38:00       53.755     -104.035       -7.675       46.445       69.451       32.125     2157.169     4823.398     1032.016        1.089        0.401      117.102       37.056        0.100      344.781       21.842      861.572
10/24/2013  14:39:00       17.402      -10.790       36.214       48.049       76.469       49.898     2308.737     5847.492     2489.790        0.619        0.532       20.476       51.487        6.323      345.057       22.316      861.569
10/24/2013  14:40:00       60.642       53.705       34.306       37.501       40.489       32.489     1406.321     1639.347     1055.512        0.592        0.205       81.004       16.134        0.040      344.833       21.932      861.556
10/24/2013  14:41:00       70.967       25.780       31.204       70.149       70.354       50.100     4920.915     4949.621     2510.053        0.953        0.619       75.504       39.412        0.272      344.770       21.824      861.554
10/24/2013  14:42:00       43.174       52.175       39.667       61.827       54.922       51.804     3822.605     3016.443     2683.705        0.784        0.476       67.722       45.917        0.460      344.830       21.928      861.550
10/24/2013  14:43:00       -5.899      -48.721       -8.519       27.309       35.146       22.320      745.765     1235.253      498.178        0.248        0.124       49.077       14.004        0.081      344.871       21.997      861.538
10/24/2013  14:44:00        7.352       20.272       38.725       27.817       20.304       16.787      773.802      412.243      281.789        0.172        0.073       21.564       15.795        0.537      345.147       22.469      861.536
10/24/2013  14:45:00       21.602      -20.645       18.843       19.957       38.498       15.401      398.269     1482.092      237.206        0.168        0.106       29.881        6.858        0.053      345.114       22.414      861.538
10/24/2013  14:46:00       17.418      -32.705       10.872       21.223       33.452       21.860      450.426     1119.007      477.861        0.177        0.102       37.054       19.769        0.285      345.253       22.652      861.531
10/24/2013  14:47:00       46.952      -99.244      -11.968       28.764       31.049       23.223      827.394      964.067      539.322        0.726        0.117      109.790       17.228        0.025      344.832       21.931      861.524
10/24/2013  14:48:00       12.136       -6.888        2.128       19.689       19.793       21.158      387.676      391.779      447.648        0.071        0.061       13.954       13.342        0.914      345.105       22.398      861.526
10/24/2013  14:49:00       13.647       19.274       -0.103       25.272       25.367       17.237      638.659      643.481      297.113        0.107        0.079       23.616       13.068        0.306      344.997       22.213      861.533
10/24/2013  14:50:00      102.658      115.250       93.666       84.882       48.758       44.257     7204.940     2377.317     1958.688        2.207        0.577      154.341       28.056        0.033      344.849       21.958      861.534
10/24/2013  14:51:00       79.042       92.530      102.197       77.284       58.777       47.528     5972.758     3454.718     2258.874        1.847        0.584      121.694       45.614        0.140      344.913       22.069      861.522
10/24/2013  14:52:00       13.384      114.609      125.299       38.918       51.532       33.896     1514.621     2655.560     1148.909        1.717        0.266      115.388       38.421        0.111      344.825       21.918      861.536
10/24/2013  14:53:00      127.337       98.308       71.167       89.262       64.313       61.366     7967.676     4136.099     3765.787        2.340        0.793      160.870       50.988        0.100      344.746       21.781      861.554
10/24/2013  14:54:00       38.824        5.606        3.335       29.939       25.125       26.499      896.370      631.255      702.222        0.189        0.111       39.227       21.080        0.289      344.785       21.851      861.571
10/24/2013  14:55:00      -31.486      -35.717      -15.735       57.833       23.280       23.175     3344.643      541.953      537.062        0.347        0.221       47.614       14.232        0.089      344.776       21.836      861.549
10/24/2013  14:56:00      -85.358      -65.087       -6.531       66.968       34.865       33.751     4484.652     1215.554     1139.136        0.920        0.342      107.342       31.471        0.086      344.883       22.017      861.537
10/24/2013  14:57:00       -8.632       -7.638       39.079       20.482       34.671       21.933      419.522     1202.062      481.047        0.188        0.105       11.526        9.307        0.652      345.303       22.738      861.539
10/24/2013  14:58:00       22.481        1.200       47.119       47.573       61.923       34.509     2263.161     3834.512     1190.851        0.501        0.364       22.513       41.261        3.359      345.228       22.609      861.548
10/24/2013  14:59:00       91.765       65.052       17.502       96.775       76.883       51.691     9365.342     5911.060     2671.944        1.545        0.897      112.484       36.279        0.104      345.093       22.374      861.535
10/24/2013  15:00:00      154.032       87.299        6.682       71.198       62.269       39.668     5069.173     3877.425     1573.549        2.095        0.526      177.050       18.377        0.011      344.761       21.807      861.536
10/24/2013  15:01:00      120.024       82.881        6.368       55.080       51.755       43.433     3033.841     2678.565     1886.429        1.446        0.380      145.860       33.144        0.052      344.769       21.823      861.541
10/24/2013  15:02:00      117.851       72.194       13.302       78.837       66.043       52.833     6215.280     4361.683     2791.352        1.632        0.668      138.206       36.659        0.070      344.924       22.086      861.547
10/24/2013  15:03:00      172.522      108.427       31.625       54.645       54.975       42.750     2986.131     3022.238     1827.554        2.518        0.392      203.765       39.946        0.038      344.793       21.861      861.552
10/24/2013  15:04:00       63.824      -37.112       19.372       45.238       63.568       43.335     2046.484     4040.937     1877.893        0.689        0.398       73.829       41.744        0.320      344.885       22.021      861.545
10/24/2013  15:05:00       -2.270       -0.229       43.763       14.777       33.067       22.301      218.352     1093.441      497.314        0.186        0.090        2.282       16.857       54.579      345.296       22.726      861.545
10/24/2013  15:06:00       35.441       29.849       34.031       35.058       23.521       29.795     1229.057      553.233      887.717        0.299        0.134       46.336       23.230        0.251      344.962       22.153      861.542
10/24/2013  15:07:00       25.630       11.280       13.708        9.053        8.430       11.678       81.964       71.065      136.371        0.063        0.014       28.003        6.922        0.061      344.831       21.929      861.528
10/24/2013  15:08:00       67.822      -30.610       -3.740       22.595       31.199       23.699      510.528      973.379      561.656        0.380        0.102       74.410       20.939        0.079      344.778       21.838      861.504
10/24/2013  15:09:00        9.728      -81.003       13.029       35.944       38.949       29.679     1291.997     1517.051      880.849        0.526        0.184       81.585       26.480        0.105      345.020       22.252      861.505
10/24/2013  15:10:00      -10.189      -23.401      -14.309       23.407       31.249       17.770      547.905      976.501      315.774        0.135        0.092       25.523       12.448        0.238      345.064       22.328      861.496
10/24/2013  15:11:00      -19.378      -40.602        3.356       44.602       26.379       16.305     1989.344      695.850      265.845        0.249        0.148       44.989       21.116        0.220      345.012       22.239      861.489
10/24/2013  15:12:00      -34.927       23.658      -10.301       25.546       48.825       26.221      652.594     2383.870      687.564        0.280        0.186       42.186       21.328        0.256      345.219       22.593      861.473
10/24/2013  15:13:00      -57.389       48.229      -11.807       85.564       41.605       22.744     7321.179     1731.000      517.302        0.766        0.478       74.964       29.275        0.153      344.991       22.204      861.467
10/24/2013  15:14:00     -139.914       66.252      -17.849       31.455       31.687       25.264      989.435     1004.051      638.254        1.346        0.132      154.807       11.666        0.006      344.922       22.084      861.472
10/24/2013  15:15:00      -82.825       85.441      -20.737       40.302       34.274       24.960     1624.291     1174.733      622.993        0.901        0.171      118.996       25.474        0.046      344.938       22.114      861.464
10/24/2013  15:16:00      -47.108       70.724       -8.099       19.091       24.339       23.574      364.452      592.364      555.741        0.440        0.076       84.977       17.363        0.042      344.958       22.146      861.456
10/24/2013  15:17:00      -36.681       45.163      -18.040       22.442       32.561       19.915      503.627     1060.204      396.595        0.284        0.098       58.183       21.380        0.135      344.871       21.998      861.457
10/24/2013  15:18:00     -183.414       48.110      -43.274       44.823       43.219       27.195     2009.144     1867.850      739.552        2.122        0.231      189.619       19.607        0.011      344.728       21.752      861.453
10/24/2013  15:19:00     -168.465        5.793      -10.219       55.378       58.598       35.680     3066.696     3433.780     1273.058        1.814        0.389      168.565       19.626        0.014      344.912       22.066      861.436
10/24/2013  15:20:00      -40.678      -60.232        6.071       63.316       50.029       35.167     4008.936     2502.878     1236.738        0.653        0.387       72.681       22.766        0.098      345.106       22.399      861.423
10/24/2013  15:21:00       29.601       -5.898       28.693       31.865       45.220       28.997     1015.403     2044.874      840.825        0.282        0.195       30.183       23.782        0.621      345.315       22.758      861.426
10/24/2013  15:22:00       12.438       67.538       74.113       52.874       38.737       27.639     2795.654     1500.551      763.929        0.763        0.253       68.674       16.272        0.056      345.277       22.692      861.439
10/24/2013  15:23:00       19.347       65.293       63.041       43.786       41.332       36.429     1917.194     1708.348     1327.076        0.678        0.248       68.099       25.803        0.144      345.276       22.690      861.435
10/24/2013  15:24:00      106.785       50.576       40.663       58.648       55.909       41.007     3439.641     3125.863     1681.584        1.193        0.412      118.157       34.595        0.086      345.042       22.289      861.446
10/24/2013  15:25:00       97.816       77.161       14.815       45.234       36.661       41.703     2046.072     1344.050     1739.158        1.043        0.256      124.586       12.074        0.009      345.085       22.363      861.448
10/24/2013  15:26:00       15.254       46.373       -1.427       49.881       27.804       21.730     2488.074      773.038      472.190        0.306        0.187       48.817       18.067        0.137      345.140       22.458      861.448
10/24/2013  15:27:00       31.880       26.824       16.981       31.871       34.864       32.520     1015.752     1215.526     1057.563        0.266        0.164       41.664        9.901        0.056      345.198       22.557      861.432
10/24/2013  15:28:00       17.233      -53.833       31.176       28.860       57.691       36.163      832.927     3328.215     1307.767        0.482        0.273       56.524       29.303        0.269      345.407       22.915      861.425
10/24/2013  15:29:00        9.703       19.510       40.630       30.626       50.809       25.387      937.949     2581.598      644.503        0.314        0.208       21.790       21.173        0.944      345.345       22.808      861.428
10/24/2013  15:30:00       -4.130      -23.031       10.405       33.355       33.191       30.254     1112.546     1101.623      915.331        0.189        0.156       23.398       17.175        0.539      345.413       22.925      861.426
10/24/2013  15:31:00      -56.180      -17.926        4.776       39.855       37.154       22.056     1588.397     1380.442      486.485        0.348        0.173       58.970       22.806        0.150      345.488       23.054      861.416
10/24/2013  15:32:00       37.315       29.436        9.272       29.027       27.043       25.575      842.574      731.344      654.090        0.229        0.111       47.528       13.462        0.080      345.084       22.362      861.407
10/24/2013  15:33:00       40.616       26.590       -8.152       28.920       44.523       24.892      836.392     1982.273      619.629        0.293        0.172       48.546       27.607        0.323      345.122       22.428      861.400
10/24/2013  15:34:00       40.128        5.883        7.861       51.491       30.086       20.953     2651.284      905.150      439.009        0.285        0.200       40.557       14.325        0.125      345.341       22.803      861.393
10/24/2013  15:35:00       69.702       39.884       15.231       43.148       37.601       27.340     1861.773     1413.798      747.494        0.535        0.201       80.306       16.295        0.041      345.170       22.510      861.391
10/24/2013  15:36:00        6.546        0.958       -0.881       33.047       36.985       23.831     1092.110     1367.911      567.909        0.154        0.151        6.616       23.952       13.106      345.392       22.890      861.392
10/24/2013  15:37:00       84.846       69.058       -1.758       75.445       57.964       33.979     5691.909     3359.864     1154.550        1.109        0.510      109.397       40.466        0.137      345.111       22.409      861.401
10/24/2013  15:38:00       32.693       43.329        9.509       54.518       40.953       42.933     2972.222     1677.126     1843.225        0.476        0.325       54.279       20.008        0.136      345.336       22.793      861.413
10/24/2013  15:39:00       32.307       72.142        3.266       63.414       58.534       33.644     4021.276     3426.210     1131.896        0.742        0.429       79.046       20.147        0.065      345.415       22.930      861.403
10/24/2013  15:40:00      146.792       91.795        9.928       76.276       54.305       43.932     5818.033     2948.983     1930.014        2.038        0.535      173.131       27.723        0.026      345.057       22.315      861.400
10/24/2013  15:41:00      180.300      108.945       17.605       65.283       39.197       43.877     4261.833     1536.398     1925.182        2.620        0.386      210.659       30.869        0.021      344.985       22.190      861.396
10/24/2013  15:42:00       59.076       77.875       -6.169       83.334       40.580       29.077     6944.539     1646.720      845.466        0.951        0.472       97.747       18.006        0.034      345.076       22.347      861.403
10/24/2013  15:43:00      152.459      122.215       15.200       68.797       67.813       48.511     4732.987     4598.604     2353.347        2.505        0.584      195.397       39.122        0.040      345.191       22.543      861.394
10/24/2013  15:44:00       68.924      111.595       -4.505       55.215       71.711       50.132     3048.694     5142.493     2513.225        1.396        0.535      131.164       47.657        0.132      345.061       22.321      861.397
10/24/2013  15:45:00      107.966       92.477        0.788       52.544       56.391       38.402     2760.883     3179.894     1474.685        1.381        0.371      142.157       31.465        0.049      345.038       22.283      861.400
10/24/2013  15:46:00        0.461       83.901        2.342       43.719       65.707       27.566     1911.352     4317.423      759.888        0.702        0.349       83.903       24.261        0.084      345.295       22.723      861.402
10/24/2013  15:47:00       17.912      119.489       -8.719       59.003       68.296       30.994     3481.354     4664.294      960.646        1.189        0.455      120.824       34.851        0.083      345.120       22.422      861.414
10/24/2013  15:48:00       85.368       69.438       -8.792       49.312       25.588       24.054     2431.694      654.760      578.601        0.793        0.183      110.043       10.257        0.009      345.066       22.333      861.421
10/24/2013  15:49:00      103.449       68.132       12.770       25.219       35.418       23.837      635.977     1254.437      568.202        0.898        0.123      123.870       15.392        0.015      344.906       22.059      861.417
10/24/2013  15:50:00       87.287       79.468        3.973       26.008       20.927       24.857      676.428      437.927      617.877        0.784        0.087      118.044       11.946        0.010      345.074       22.344      861.420
10/24/2013  15:51:00       35.923       43.334        9.992       31.153       28.130       20.981      970.532      791.314      440.214        0.273        0.110       56.287       13.278        0.056      345.191       22.545      861.418
10/24/2013  15:52:00       16.896       17.195       10.945       20.118       50.734       21.636      404.735     2573.889      468.132        0.207        0.172       24.106       25.473        1.117      345.161       22.494      861.421
10/24/2013  15:53:00       49.651       48.728        1.945       39.150       33.870       35.544     1532.741     1147.210     1263.401        0.439        0.197       69.568       25.631        0.136      345.132       22.445      861.409
10/24/2013  15:54:00       72.696       25.569       15.653       38.843       39.467       27.380     1508.815     1557.640      749.670        0.500        0.191       77.062       19.604        0.065      345.187       22.539      861.403
10/24/2013  15:55:00      120.452       76.643       46.466       49.304       41.161       41.147     2430.894     1694.245     1693.104        1.418        0.291      142.768       31.233        0.048      345.032       22.273      861.403
10/24/2013  15:56:00       46.326       77.611       55.444       31.474       32.468       33.697      990.590     1054.169     1135.499        0.721        0.159       90.385       23.836        0.070      345.034       22.277      861.404
10/24/2013  15:57:00       -5.786       -3.047        4.809       17.189       25.558       26.898      295.457      653.196      723.484        0.087        0.084        6.539       23.920       13.380      345.255       22.655      861.405
10/24/2013  15:58:00      -25.433       16.862       -5.657       13.905       16.016       13.353      193.336      256.499      178.304        0.080        0.031       30.515       12.116        0.158      345.145       22.467      861.390
10/24/2013  15:59:00        9.246       10.765        5.435       11.330       10.711        7.512      128.362      114.724       56.427        0.027        0.015       14.191        6.479        0.208      345.196       22.555      861.383
10/24/2013  16:00:00       42.270       29.082       13.651       12.316       13.802       17.689      151.677      190.483      312.906        0.174        0.033       51.308        9.453        0.034      345.060       22.320      861.383
10/24/2013  16:01:00       31.133       37.937       10.997       21.802       36.223       25.753      475.331     1312.070      663.198        0.249        0.123       49.076       13.421        0.075      345.204       22.568      861.389
10/24/2013  16:02:00       14.665       35.138        1.850       21.250       15.453       21.756      451.563      238.785      473.318        0.131        0.058       38.076        7.827        0.042      345.200       22.561      861.392
10/24/2013  16:03:00       34.057       18.704       13.504       28.274       21.252       20.444      799.427      451.649      417.964        0.168        0.083       38.855       16.976        0.191      345.304       22.739      861.389
10/24/2013  16:04:00       80.111       74.462        9.027       85.828       62.956       37.965     7366.381     3963.403     1441.373        1.241        0.639      109.372       34.157        0.098      345.165       22.499      861.389
10/24/2013  16:05:00       66.820       28.448       -2.133       49.461       48.210       31.489     2446.343     2324.235      991.532        0.552        0.288       72.624       37.432        0.266      345.223       22.600      861.368
10/24/2013  16:06:00       -2.961       -6.611       22.453       39.085       32.021       22.005     1527.659     1025.362      484.198        0.180        0.152        7.244       20.884        8.311      345.382       22.873      861.362
10/24/2013  16:07:00       18.928       82.049        7.771       65.463       68.701       42.318     4285.371     4719.801     1790.840        0.897        0.540       84.204       40.880        0.236      345.310       22.750      861.375
10/24/2013  16:08:00       27.191       63.123        7.779       45.468       59.157       33.018     2067.340     3499.553     1090.185        0.572        0.333       68.731       30.031        0.191      345.272       22.685      861.387
10/24/2013  16:09:00       86.237       76.618       14.935       64.423       57.564       42.022     4150.337     3313.670     1765.812        1.138        0.461      115.356       23.790        0.043      345.223       22.598      861.380
10/24/2013  16:10:00      103.232      122.996        0.472       88.893      105.323       62.857     7901.885    11092.949     3951.004        2.436        1.147      160.576       64.659        0.162      345.157       22.486      861.376
10/24/2013  16:11:00      157.372      137.481       26.670      111.954       75.172       62.839    12533.728     5650.831     3948.783        3.325        1.107      208.966       43.061        0.042      344.997       22.212      861.385
10/24/2013  16:12:00      182.686      131.006       12.892       58.551       58.145       48.939     3428.173     3380.879     2395.058        2.995        0.460      224.804       39.218        0.030      344.917       22.072      861.402
10/24/2013  16:13:00      140.692       87.074       21.721       72.719       46.966       42.467     5288.103     2205.852     1803.416        1.857        0.465      165.457       33.719        0.042      344.965       22.157      861.417
10/24/2013  16:14:00      111.999       79.605       19.114       53.309       38.650       34.349     2841.827     1493.792     1179.887        1.238        0.276      137.407       23.200        0.029      345.002       22.221      861.427
10/24/2013  16:15:00       97.674       67.460       12.175       47.155       38.033       33.345     2223.564     1446.485     1111.874        0.951        0.239      118.705       18.543        0.024      345.042       22.292      861.432
10/24/2013  16:16:00       55.234      118.505      -20.780       39.687       48.010       28.307     1575.040     2304.924      801.302        1.110        0.234      130.745       22.955        0.031      345.011       22.236      861.427
10/24/2013  16:17:00       18.576      135.327      -26.176       33.427       41.459       15.726     1117.351     1718.861      247.312        1.121        0.154      136.596       16.156        0.014      344.927       22.093      861.430
10/24/2013  16:18:00      118.064       66.928        9.480       37.931       26.709       28.411     1438.767      713.388      807.170        1.073        0.148      135.714       17.359        0.016      344.927       22.092      861.441
10/24/2013  16:19:00       19.186       26.014      -16.681       26.450       21.653       17.865      699.601      468.835      319.155        0.141        0.074       32.324       15.079        0.218      345.052       22.308      861.442
10/24/2013  16:20:00      -60.011      -22.383      -11.056       24.609       22.386       17.441      605.620      501.135      304.184        0.282        0.071       64.049        8.412        0.017      344.996       22.211      861.431
10/24/2013  16:21:00      -44.455       15.739        8.609       30.310       27.188       28.082      918.682      739.206      788.612        0.237        0.122       47.159       19.938        0.179      345.235       22.621      861.419
10/24/2013  16:22:00      -75.658       59.668      -15.216       31.035       38.405       22.843      963.152     1474.971      521.789        0.624        0.148       96.355       18.300        0.036      345.202       22.564      861.424
10/24/2013  16:23:00       57.366       30.771        9.256       50.758       32.754       27.231     2576.368     1072.846      741.524        0.436        0.220       65.098       21.843        0.113      345.069       22.336      861.423
10/24/2013  16:24:00       28.984       37.993       10.971       45.388       27.085       22.686     2060.053      733.574      514.654        0.286        0.165       47.787       17.914        0.141      345.027       22.265      861.424
10/24/2013  16:25:00       16.828      101.072      -17.690       33.799       49.695       23.459     1142.397     2469.571      550.327        0.749        0.208      102.463       27.663        0.073      345.009       22.234      861.413
10/24/2013  16:26:00       11.292       32.741        1.993       29.300       26.626       14.237      858.476      708.969      202.701        0.149        0.089       34.633       12.715        0.135      344.929       22.096      861.418
10/24/2013  16:27:00       21.296       74.761      -11.169       26.608       20.318       17.536      707.983      412.822      307.524        0.380        0.071       77.735       10.723        0.019      344.931       22.100      861.418
10/24/2013  16:28:00       -0.249       39.731      -13.897       16.500       30.622       13.326      272.236      937.719      177.572        0.158        0.069       39.732       11.656        0.086      345.041       22.288      861.421
10/24/2013  16:29:00      -26.941       51.656       -1.549       18.110       17.164       18.403      327.961      294.603      338.684        0.218        0.048       58.259        7.443        0.016      345.077       22.351      861.417
10/24/2013  16:30:00      -58.356       48.218       -7.056       22.270       23.950       20.346      495.939      573.594      413.953        0.363        0.074       75.699       17.556        0.054      345.207       22.572      861.413
10/24/2013  16:31:00      -78.404       44.152      -15.876       25.274       36.922       18.220      638.765     1363.206      331.970        0.534        0.117       89.981       14.298        0.025      345.105       22.398      861.417
10/24/2013  16:32:00      -52.903       35.454       -8.302       20.128       25.429       16.378      405.119      646.622      268.250        0.272        0.066       63.684        7.005        0.012      345.134       22.447      861.411
10/24/2013  16:33:00      -62.028       -1.526        1.114       16.854       23.944       14.684      284.053      573.295      215.621        0.246        0.054       62.047       13.643        0.048      345.166       22.501      861.409
10/24/2013  16:34:00      -37.931      -18.156        1.313       30.069       19.251       15.253      904.148      370.591      232.650        0.164        0.075       42.053       11.104        0.070      345.165       22.501      861.412
10/24/2013  16:35:00      -15.448      -27.358        1.013       31.994       18.098       19.219     1023.609      327.553      369.363        0.135        0.086       31.418       16.047        0.261      345.070       22.338      861.411
10/24/2013  16:36:00      -31.317      -48.277        4.762       36.030       23.223       23.641     1298.194      539.304      558.880        0.286        0.120       57.545       21.503        0.140      345.045       22.295      861.411
10/24/2013  16:37:00       13.947      -15.441        1.527       20.347       28.400       18.548      413.982      806.573      344.017        0.100        0.078       20.808       19.255        0.856      344.907       22.060      861.414
10/24/2013  16:38:00       11.530       16.621       17.982       10.964        8.057       10.819      120.215       64.911      117.056        0.052        0.015       20.228        6.812        0.113      344.809       21.890      861.416
10/24/2013  16:39:00       10.065      -12.148        7.854        8.373        9.347       11.387       70.113       87.366      129.673        0.030        0.014       15.776        6.987        0.196      345.043       22.292      861.424
10/24/2013  16:40:00      -23.122        6.083       -0.051       18.142       15.888        9.832      329.144      252.434       96.667        0.062        0.034       23.908        7.057        0.087      344.977       22.178      861.425
10/24/2013  16:41:00      -66.655       21.754       -1.793       16.000       13.136       10.815      256.011      172.565      116.959        0.273        0.027       70.115        9.995        0.020      344.870       21.999      861.432
10/24/2013  16:42:00      -70.527       13.702       -3.623        8.767        9.755        6.717       76.862       95.165       45.120        0.270        0.011       71.846        5.443        0.006      344.975       22.176      861.431
10/24/2013  16:43:00      -55.952        3.420       -4.249       15.048        8.745       10.173      226.444       76.475      103.493        0.178        0.020       56.056        7.133        0.016      345.043       22.291      861.434
10/24/2013  16:44:00       -6.204       12.975        0.096       13.151       13.627        9.706      172.938      185.690       94.216        0.033        0.023       14.382        9.261        0.415      345.022       22.256      861.432
10/24/2013  16:45:00       13.601       23.402        5.967        7.106       11.670        6.547       50.492      136.197       42.863        0.050        0.011       27.067        5.543        0.042      344.898       22.045      861.433
10/24/2013  16:46:00        5.792        2.395       -2.233        7.709        6.203        4.580       59.436       38.472       20.978        0.008        0.006        6.268        4.192        0.447      344.900       22.047      861.438
10/24/2013  16:47:00        1.370        2.228       -4.159        9.146       10.729        6.370       83.653      115.108       40.578        0.013        0.012        2.616        5.084        3.777      344.850       21.962      861.440
10/24/2013  16:48:00       -2.137       -0.681        2.853        5.261        6.956        4.405       27.675       48.386       19.402        0.005        0.005        2.243        2.700        1.449      344.870       21.997      861.437
10/24/2013  16:49:00      -21.233       28.580       -0.482       12.311       19.049       10.125      151.566      362.880      102.524        0.094        0.031       35.604        9.875        0.077      344.944       22.122      861.435
10/24/2013  16:50:00       -8.366       33.956       -2.276       14.069       11.614        9.469      197.949      134.890       89.667        0.083        0.021       34.972        7.485        0.046      344.873       22.000      861.437
10/24/2013  16:51:00      -20.765       17.871       -3.584       13.854        8.259        4.932      191.927       68.210       24.325        0.052        0.014       27.396        2.239        0.007      344.843       21.951      861.442
10/24/2013  16:52:00      -24.928       22.885       -7.348        9.237       14.087        6.009       85.330      198.447       36.113        0.076        0.016       33.840        3.129        0.009      344.802       21.879      861.437
10/24/2013  16:53:00      -21.864       31.606       -8.199        8.067        9.281        6.442       65.073       86.128       41.504        0.087        0.010       38.431        4.090        0.011      344.835       21.937      861.440
10/24/2013  16:54:00      -17.160       18.904       -4.248        9.403       13.926        6.354       88.413      193.941       40.378        0.050        0.016       25.531        5.667        0.049      344.901       22.048      861.443
10/24/2013  16:55:00      -23.528       26.330       -3.259       11.343       10.686        8.024      128.655      114.196       64.388        0.078        0.015       35.310        6.633        0.035      344.873       22.003      861.443
10/24/2013  16:56:00      -22.299       27.480       -4.918        8.627       10.282        7.504       74.422      105.710       56.311        0.076        0.012       35.389        5.942        0.028      344.885       22.021      861.432
10/24/2013  16:57:00      -26.990        7.827       -2.537       12.300       10.288        7.220      151.298      105.843       52.126        0.055        0.015       28.102        5.144        0.034      344.869       21.996      861.434
10/24/2013  16:58:00      -48.088       11.254       -2.648       17.183       15.246        8.224      295.270      232.428       67.636        0.152        0.030       49.387        7.327        0.022      344.889       22.027      861.441
10/24/2013  16:59:00      -50.959      -12.675       -2.714       16.313       11.438        7.987      266.103      130.828       63.793        0.161        0.023       52.511        8.624        0.027      344.826       21.919      861.442
10/24/2013  17:00:00      -20.842       -5.435        4.621       21.214       16.599        7.191      450.017      275.528       51.710        0.063        0.039       21.539        9.973        0.214      344.759       21.805      861.447
10/24/2013  17:01:00      -51.772        9.775       -5.809       11.644       12.768        9.078      135.589      163.025       82.414        0.160        0.019       52.687        1.137        0.000      344.702       21.709      861.446
10/24/2013  17:02:00      -65.323        4.079       -9.571       18.043       12.490        9.033      325.547      155.989       81.595        0.247        0.028       65.451        9.209        0.020      344.719       21.737      861.455
10/24/2013  17:03:00      -53.469        1.155       -7.001       19.818       15.876       10.854      392.734      252.040      117.813        0.184        0.038       53.482       11.625        0.047      344.741       21.774      861.452
10/24/2013  17:04:00      -48.420        3.460       -5.145       19.694        8.188        7.560      387.844       67.036       57.150        0.145        0.026       48.543        8.864        0.033      344.746       21.783      861.451
10/24/2013  17:05:00      -29.576        4.392       -5.245        8.428        7.438        6.709       71.024       55.319       45.005        0.055        0.009       29.900        4.725        0.025      344.751       21.792      861.458
10/24/2013  17:06:00      -47.363       27.717       -9.513       10.153       11.880        7.380      103.079      141.131       54.465        0.170        0.015       54.877        6.846        0.016      344.789       21.856      861.460
10/24/2013  17:07:00      -51.073       36.450      -12.095       13.365       10.354        7.761      178.611      107.206       60.240        0.221        0.017       62.746        5.831        0.009      344.841       21.949      861.461
10/24/2013  17:08:00      -43.749       23.051       -5.108       14.471       14.204        9.597      209.403      201.761       92.098        0.149        0.025       49.450       10.234        0.043      344.824       21.918      861.469
10/24/2013  17:09:00      -33.777       13.810       -3.077       10.864       10.073        5.963      118.020      101.471       35.553        0.080        0.013       36.491        4.031        0.012      344.745       21.781      861.465
10/24/2013  17:10:00      -36.596       18.656       -6.941       10.069       13.703        7.054      101.381      187.777       49.753        0.104        0.017       41.077        7.642        0.035      344.723       21.744      861.472
10/24/2013  17:11:00      -44.421       46.582      -10.992       12.130       15.437        8.198      147.146      238.311       67.204        0.236        0.023       64.367        5.193        0.007      344.793       21.864      861.483
10/24/2013  17:12:00      -12.242       46.365       -4.494       27.629       25.239       10.070      763.336      637.013      101.402        0.191        0.075       47.954        8.002        0.028      344.632       21.588      861.480
10/24/2013  17:13:00      -40.848       36.288      -13.887       12.125       16.437        8.370      147.004      270.186       70.052        0.183        0.024       54.639        6.019        0.012      344.604       21.542      861.480
10/24/2013  17:14:00      -46.984        6.163       -5.483       11.695       12.939        6.464      136.772      167.413       41.779        0.131        0.017       47.386        6.888        0.021      344.655       21.627      861.489
10/24/2013  17:15:00      -30.017        1.943       -4.798        8.057        7.057        6.050       64.922       49.805       36.604        0.054        0.008       30.080        4.224        0.020      344.582       21.504      861.489
10/24/2013  17:16:00      -27.130        2.476       -7.638        6.507        6.217        4.256       42.343       38.656       18.113        0.045        0.005       27.242        3.367        0.015      344.577       21.494      861.488
10/24/2013  17:17:00      -25.018       -7.889      -10.239        9.508        8.498        5.305       90.396       72.218       28.141        0.049        0.010       26.233        2.162        0.007      344.483       21.333      861.501
10/24/2013  17:18:00      -28.077       -6.974       -7.542        6.954        9.292        7.302       48.363       86.341       53.326        0.054        0.009       28.930        4.967        0.029      344.447       21.271      861.502
10/24/2013  17:19:00      -31.749      -10.785       -5.902       10.275        8.562        6.321      105.574       73.305       39.959        0.069        0.011       33.531        3.045        0.008      344.511       21.381      861.506
10/24/2013  17:20:00      -35.788      -11.915       -8.853        5.497        5.796        6.101       30.217       33.594       37.221        0.080        0.005       37.719        2.669        0.005      344.461       21.296      861.513
10/24/2013  17:21:00      -20.175      -10.772      -10.060       12.410        6.369        5.422      154.013       40.570       29.396        0.042        0.011       22.871        6.308        0.076      344.572       21.484      861.517
10/24/2013  17:22:00       -0.186       -3.834        0.898        3.786        3.793        4.373       14.333       14.388       19.121        0.003        0.002        3.838        1.505        0.154      344.768       21.821      861.509
10/24/2013  17:23:00      -10.677       -5.589       -2.983        7.398        5.805        4.645       54.732       33.695       21.576        0.013        0.006       12.051        3.517        0.085      344.649       21.617      861.514
10/24/2013  17:24:00      -10.050       -4.907       -0.448        8.154        4.870        4.229       66.496       23.717       17.885        0.012        0.005       11.184        3.502        0.098      344.712       21.726      861.517
10/24/2013  17:25:00      -16.849       -7.074       -7.420        7.094        5.012        4.502       50.330       25.117       20.266        0.024        0.005       18.273        1.888        0.011      344.658       21.632      861.514
10/24/2013  17:26:00      -15.742       -3.719       -2.686        4.930        4.739        4.040       24.307       22.461       16.318        0.017        0.003       16.175        0.971        0.004      344.699       21.702      861.509
10/24/2013  17:27:00      -24.108      -10.519       -7.759        7.724        6.262        5.192       59.664       39.217       26.953        0.044        0.006       26.303        3.173        0.015      344.554       21.456      861.518
10/24/2013  17:28:00      -29.077       -8.555       -7.289        6.867        6.466        5.039       47.158       41.804       25.393        0.054        0.006       30.310        3.331        0.012      344.542       21.436      861.518
10/24/2013  17:29:00      -30.302      -10.934       -5.834        8.809        7.878        8.043       77.602       62.065       64.682        0.064        0.010       32.215        2.750        0.007      344.519       21.394      861.521
10/24/2013  17:30:00      -25.587      -14.042      -11.229       10.583        9.453        7.651      112.005       89.367       58.543        0.062        0.013       29.187        5.896        0.041      344.517       21.393      861.533
10/24/2013  17:31:00      -19.594      -12.371       -9.384        7.999        7.060        8.318       63.982       49.845       69.183        0.040        0.009       23.173        5.939        0.066      344.484       21.336      861.543
10/24/2013  17:32:00      -28.226      -13.383      -13.309       11.389        8.461        8.840      129.703       71.585       78.141        0.072        0.014       31.238        4.578        0.021      344.459       21.294      861.545
10/24/2013  17:33:00      -37.625      -24.057      -10.039        8.829        8.001        6.685       77.952       64.013       44.685        0.114        0.009       44.658        3.896        0.008      344.385       21.166      861.545
10/24/2013  17:34:00      -48.826      -19.442       -7.598       10.500        9.655        6.769      110.254       93.219       45.815        0.153        0.012       52.554        4.489        0.007      344.537       21.427      861.545
10/24/2013  17:35:00      -55.644      -24.560      -12.571        9.727        7.617        7.494       94.607       58.021       56.159        0.203        0.010       60.823        5.049        0.007      344.488       21.342      861.553
10/24/2013  17:36:00      -50.094      -21.309      -12.907        8.063        8.951        6.789       65.009       80.126       46.088        0.166        0.010       54.438        6.441        0.014      344.396       21.185      861.563
10/24/2013  17:37:00      -57.542      -21.763      -11.469       12.190       12.588        8.124      148.598      158.463       66.005        0.214        0.019       61.520        5.591        0.008      344.313       21.044      861.561
10/24/2013  17:38:00      -62.134      -21.811      -12.704        7.341        6.371        4.736       53.896       40.591       22.426        0.231        0.006       65.851        2.019        0.001      344.315       21.046      861.564
10/24/2013  17:39:00      -54.618      -23.675      -10.015       11.138        7.194        5.641      124.048       51.747       31.819        0.193        0.010       59.529        3.587        0.004      344.410       21.209      861.565
10/24/2013  17:40:00      -40.888      -28.797      -10.339        7.344        8.746        5.015       53.936       76.495       25.155        0.138        0.008       50.011        3.170        0.004      344.346       21.097      861.567
10/24/2013  17:41:00      -28.881      -26.099       -8.379       14.454        9.933        8.574      208.919       98.674       73.509        0.098        0.019       38.926        5.787        0.022      344.298       21.016      861.574
10/24/2013  17:42:00      -47.243      -19.861       -3.653       16.525       10.292        7.597      273.078      105.929       57.707        0.154        0.022       51.248        9.784        0.036      344.272       20.973      861.587
10/24/2013  17:43:00      -70.416      -13.419      -11.372        9.160        7.307        5.445       83.913       53.388       29.644        0.272        0.008       71.683        1.572        0.000      344.030       20.560      861.606
10/24/2013  17:44:00      -72.860      -12.565      -11.951        8.419        8.666        7.667       70.883       75.107       58.784        0.291        0.010       73.936        3.120        0.002      344.060       20.612      861.618
10/24/2013  17:45:00      -64.611      -15.780      -15.669        8.663        8.830        5.979       75.046       77.964       35.752        0.243        0.009       66.510        4.467        0.005      344.020       20.543      861.627
10/24/2013  17:46:00      -57.628      -16.923      -13.995        8.396        7.912        5.385       70.488       62.596       29.000        0.198        0.008       60.062        2.415        0.002      344.113       20.702      861.631
10/24/2013  17:47:00      -71.610      -15.307      -14.702       14.341       10.847        7.327      205.663      117.653       53.679        0.298        0.019       73.228        4.667        0.004      344.131       20.732      861.638
10/24/2013  17:48:00      -74.059      -14.874      -14.345        7.834        7.505        4.807       61.370       56.318       23.111        0.303        0.007       75.538        3.387        0.002      344.001       20.510      861.640
10/24/2013  17:49:00      -82.523      -11.548      -14.677       10.486        8.248        6.560      109.965       68.023       43.037        0.369        0.011       83.327        6.120        0.005      343.811       20.185      861.642
10/24/2013  17:50:00      -89.759       -9.875      -16.136       11.313        8.376        9.355      127.987       70.151       87.511        0.435        0.014       90.301        5.949        0.004      343.670       19.945      861.643
10/24/2013  17:51:00      -94.592      -17.072      -18.062        9.443        8.908        7.446       89.161       79.355       55.447        0.489        0.011       96.120        1.727        0.000      343.835       20.227      861.648
10/24/2013  17:52:00     -121.507      -25.956      -23.140       11.359       11.237        8.359      129.028      126.270       69.865        0.815        0.016      124.248        6.276        0.003      343.922       20.375      861.660
10/24/2013  17:53:00     -129.945      -24.066      -11.899       10.299       10.716        7.199      106.072      114.837       51.828        0.894        0.014      132.154        4.677        0.001      343.772       20.120      861.672
10/24/2013  17:54:00     -126.157      -24.084      -24.511       14.137       10.321       10.405      199.842      106.516      108.256        0.876        0.021      128.435        6.072        0.002      343.846       20.247      861.690
10/24/2013  17:55:00     -139.633      -30.458      -19.048       24.703       20.410       17.780      610.235      416.578      316.129        1.107        0.067      142.916       12.645        0.008      343.731       20.050      861.692
10/24/2013  17:56:00     -106.408      -29.360      -11.826       34.480       27.301       22.681     1188.886      745.369      514.413        0.739        0.122      110.384       20.402        0.034      343.283       19.286      861.703
10/24/2013  17:57:00      -70.778      -25.697       -3.455       37.201       27.416       18.922     1383.922      751.621      358.061        0.409        0.125       75.299       17.068        0.051      342.997       18.800      861.704
10/24/2013  17:58:00      -18.062       -8.047       -0.869       30.874       28.739       15.471      953.189      825.904      239.347        0.120        0.101       19.773        6.962        0.124      343.180       19.110      861.710
10/24/2013  17:59:00      -85.729      -34.430       -3.600       38.876       35.172       22.161     1511.346     1237.098      491.109        0.589        0.162       92.385       17.144        0.034      343.043       18.877      861.719
10/24/2013  18:00:00      -68.689       -9.946       -1.560       33.722       38.555       23.784     1137.192     1486.469      565.701        0.400        0.159       69.406       19.300        0.077      343.333       19.370      861.735
10/24/2013  18:01:00      -85.477      -14.489       -3.654       58.693       37.788       26.602     3444.918     1427.897      707.651        0.655        0.279       86.696       28.083        0.105      343.270       19.264      861.763
10/24/2013  18:02:00      -86.628       -7.652       -8.487       37.650       38.182       19.821     1417.517     1457.839      392.890        0.545        0.163       86.966       12.285        0.020      343.157       19.071      861.776
10/24/2013  18:03:00      -89.062       -0.670       -5.498       45.207       54.615       27.211     2043.699     2982.840      740.461        0.686        0.288       89.064       16.492        0.034      343.214       19.167      861.795
10/24/2013  18:04:00      -76.470       10.843        4.908       42.410       36.205       25.324     1798.644     1310.788      641.294        0.487        0.188       77.235       19.147        0.061      343.399       19.484      861.807
10/24/2013  18:05:00      -52.811        8.228        2.019       51.903       31.468       25.654     2693.928      990.216      658.120        0.360        0.217       53.449       20.516        0.147      343.092       18.961      861.832
10/24/2013  18:06:00      -99.106        5.260       -2.354       57.337       52.547       32.847     3287.490     2761.141     1078.912        0.849        0.356       99.245       32.250        0.106      343.056       18.898      861.858
10/24/2013  18:07:00     -127.311      -22.680       -8.081       46.814       36.593       24.708     2191.578     1339.017      610.474        1.046        0.207      129.315       21.377        0.027      342.827       18.510      861.881
10/24/2013  18:08:00     -132.042      -21.395       -6.124       52.952       40.690       23.578     2803.961     1655.673      555.901        1.147        0.251      133.764       19.295        0.021      342.695       18.283      861.920
10/24/2013  18:09:00     -165.377       -7.006      -21.065       47.498       47.024       20.587     2256.065     2211.270      423.828        1.637        0.245      165.526       22.745        0.019      342.832       18.517      861.945
10/24/2013  18:10:00     -144.275      -18.662      -15.727       53.313       47.559       26.731     2842.275     2261.878      714.573        1.361        0.291      145.477       30.640        0.044      342.669       18.241      861.964
10/24/2013  18:11:00     -144.712      -21.850      -12.844       74.075       59.211       37.297     5487.052     3505.929     1391.035        1.598        0.519      146.353       39.563        0.073      342.706       18.302      861.989
10/24/2013  18:12:00     -192.244      -44.067      -16.073       77.847       67.499       36.684     6060.213     4556.098     1345.717        2.556        0.598      197.230       34.199        0.030      342.672       18.241      862.008
10/24/2013  18:13:00     -128.063      -22.870        1.278       47.620       63.602       34.110     2267.702     4045.210     1163.478        1.220        0.374      130.089       23.182        0.032      342.638       18.188      862.038
10/24/2013  18:14:00     -149.481       -3.122      -19.871       54.955       36.952       28.917     3020.064     1365.422      836.171        1.398        0.261      149.514       20.373        0.019      342.771       18.414      862.074
10/24/2013  18:15:00     -152.005      -16.447      -25.910       47.867       39.533       25.277     2291.211     1562.842      638.949        1.427        0.225      152.892       19.800        0.017      342.604       18.128      862.099
10/24/2013  18:16:00     -142.934      -51.659      -19.513       37.342       37.711       20.074     1394.431     1422.103      402.961        1.335        0.161      151.983        8.623        0.003      342.458       17.881      862.116
10/24/2013  18:17:00     -123.697      -43.082       -8.533       35.816       24.742       22.144     1282.753      612.181      490.374        0.981        0.119      130.984       17.036        0.017      342.513       17.976      862.131
10/24/2013  18:18:00      -87.966      -45.756       -1.940       33.683       33.875       22.771     1134.525     1147.502      518.527        0.632        0.140       99.154       12.936        0.017      342.492       17.938      862.147
10/24/2013  18:19:00      -78.875      -33.244        5.644       47.692       29.085       23.540     2274.573      845.909      554.126        0.552        0.184       85.594       25.080        0.086      342.646       18.202      862.155
10/24/2013  18:20:00     -157.159      -21.986      -18.785       38.128       36.022       19.322     1453.750     1297.590      373.332        1.433        0.156      158.689       17.651        0.012      342.858       18.561      862.174
10/24/2013  18:21:00     -130.459       -2.455      -22.562       53.111       31.847       21.217     2820.726     1014.227      450.169        1.091        0.214      130.482       16.815        0.017      342.865       18.573      862.186
10/24/2013  18:22:00     -109.500      -18.911      -15.545       54.148       39.177       24.651     2932.014     1534.829      607.691        0.883        0.254      111.121       30.556        0.076      342.952       18.723      862.205
10/24/2013  18:23:00      -83.318       27.127      -14.396       42.375       71.906       30.911     1795.655     5170.525      955.513        0.790        0.396       87.623       36.740        0.176      342.951       18.719      862.224
10/24/2013  18:24:00      -56.905       28.813       -4.748       40.871       57.583       24.090     1670.408     3315.841      580.349        0.483        0.278       63.784       25.145        0.155      343.057       18.901      862.244
10/24/2013  18:25:00      -64.334       89.622      -10.247       50.011       79.380       31.780     2501.063     6301.207     1009.944        1.104        0.491      110.322       39.880        0.131      343.288       19.292      862.254
10/24/2013  18:26:00     -112.067       73.487      -14.172       79.735       69.951       39.732     6357.606     4893.144     1578.604        1.549        0.641      134.013       38.685        0.083      343.291       19.299      862.280
10/24/2013  18:27:00     -108.034      125.673      -24.535       67.858       59.960       31.257     4604.692     3595.157      976.970        1.862        0.459      165.726       33.379        0.041      343.273       19.269      862.279
10/24/2013  18:28:00     -132.994      115.511      -30.918       63.401       81.762       35.913     4019.749     6684.960     1289.732        2.199        0.600      176.154       44.357        0.063      343.300       19.313      862.287
10/24/2013  18:29:00      -75.547      -40.544      -14.797       51.393       44.196       30.074     2641.249     1953.268      904.471        0.653        0.275       85.740       24.872        0.084      343.100       18.974      862.307
10/24/2013  18:30:00      -85.568      -58.006      -10.134       37.407       26.008       18.382     1399.248      676.427      337.898        0.660        0.121      103.376       14.097        0.019      342.932       18.688      862.333
10/24/2013  18:31:00      -81.049       -4.290       -9.573       28.604       29.047       15.140      818.181      843.718      229.206        0.428        0.095       81.162       10.605        0.017      343.017       18.831      862.351
10/24/2013  18:32:00      -97.273       11.239      -23.714       27.209       40.728       22.782      740.317     1658.771      519.031        0.653        0.146       97.920       22.746        0.054      343.289       19.295      862.364
10/24/2013  18:33:00     -105.854       50.971      -23.326       47.533       71.908       29.038     2259.399     5170.811      843.197        1.131        0.414      117.487       37.284        0.101      343.336       19.374      862.388
10/24/2013  18:34:00      -52.576       -5.080       -6.005       32.315       24.186       16.105     1044.234      584.981      259.359        0.236        0.094       52.821       16.306        0.095      343.100       18.973      862.411
10/24/2013  18:35:00      -26.142        2.061       -7.583       30.507       17.193       16.551      930.703      295.587      273.951        0.112        0.075       26.223       11.439        0.190      343.061       18.907      862.440
10/24/2013  18:36:00      -37.532        3.994      -14.641       28.432       36.623       15.876      808.364     1341.257      252.049        0.202        0.120       37.744       16.536        0.192      343.241       19.215      862.465
10/24/2013  18:37:00      -34.954      -31.027       -6.298       26.339       16.561       10.471      693.747      274.270      109.648        0.165        0.054       46.738       10.833        0.054      343.173       19.098      862.495
10/24/2013  18:38:00        3.998        8.705        3.697       10.265       10.139        8.996      105.373      102.790       80.925        0.020        0.014        9.579        6.848        0.511      343.138       19.039      862.517
10/24/2013  18:39:00      -33.361       18.444       -4.707       37.836       34.345       18.602     1431.566     1179.561      346.035        0.222        0.148       38.120       14.331        0.141      343.193       19.133      862.542
10/24/2013  18:40:00       -9.994        3.802        2.704       16.401       52.518       19.681      269.005     2758.097      387.334        0.177        0.171       10.693       21.756        4.140      343.213       19.166      862.559
10/24/2013  18:41:00      -59.913      -33.470        4.221       59.510       25.458       23.099     3541.498      648.121      533.555        0.472        0.236       68.628       31.240        0.207      343.051       18.891      862.586
10/24/2013  18:42:00      -92.162      -57.662       -3.781       35.196       29.702       17.581     1238.746      882.226      309.075        0.713        0.122      108.714       15.891        0.021      343.086       18.952      862.610
10/24/2013  18:43:00      -58.917      -61.405       -1.783       42.116       23.941       19.759     1773.739      573.172      390.412        0.499        0.137       85.099       15.697        0.034      343.051       18.890      862.637
10/24/2013  18:44:00      -30.398      -41.146       -4.580       62.187       40.779       21.144     3867.181     1662.894      447.088        0.431        0.299       51.157       15.549        0.092      343.055       18.898      862.650
10/24/2013  18:45:00      -94.184      -65.935      -11.608       34.791       27.356       18.125     1210.383      748.375      328.511        0.782        0.114      114.970        8.504        0.005      343.083       18.945      862.676
10/24/2013  18:46:00      -98.741      -64.793      -10.252       42.881       34.809       24.444     1838.757     1211.688      597.503        0.885        0.182      118.101       20.604        0.030      343.107       18.986      862.703
10/24/2013  18:47:00     -103.645      -48.027      -11.408       42.851       32.485       27.654     1836.214     1055.276      764.738        0.842        0.183      114.232       24.107        0.045      343.088       18.955      862.724
10/24/2013  18:48:00      -64.236      -50.862        3.846       46.548       22.334       19.027     2166.700      498.827      362.033        0.488        0.151       81.934       22.046        0.072      343.027       18.850      862.741
10/24/2013  18:49:00     -100.721      -47.014       -6.393       16.949       18.689       11.777      287.257      349.273      138.697        0.659        0.039      111.153       10.181        0.008      343.264       19.254      862.762
10/24/2013  18:50:00      -78.112      -49.382       -8.252       26.427       22.018       13.269      698.385      484.787      176.061        0.498        0.068       92.412       12.078        0.017      343.203       19.149      862.786
10/24/2013  18:51:00      -11.528       -4.765        9.157       20.708       21.322       12.207      428.815      454.636      149.008        0.064        0.052       12.474        7.114        0.325      343.033       18.859      862.797
10/24/2013  18:52:00      -13.005       -4.933        3.742       22.686       26.505       12.051      514.648      702.512      145.228        0.078        0.068       13.909       11.652        0.702      343.080       18.940      862.806
10/24/2013  18:53:00        5.288       44.888       -0.546       15.204       21.175       17.137      231.176      448.394      293.688        0.151        0.049       45.199        9.169        0.041      343.200       19.144      862.814
10/24/2013  18:54:00       13.030       34.092       -0.773       17.577       20.013       14.831      308.959      400.521      219.955        0.113        0.046       36.497       10.801        0.088      342.988       18.784      862.837
10/24/2013  18:55:00        0.732       51.891       -7.061       19.890       19.688       10.845      395.625      387.628      117.610        0.182        0.045       51.896        9.504        0.034      343.039       18.869      862.849
10/24/2013  18:56:00      -10.279       14.395        1.127       10.560       19.890        9.657      111.521      395.608       93.263        0.046        0.030       17.688       12.449        0.495      343.133       19.030      862.857
10/24/2013  18:57:00      -49.819       51.833       -8.355       18.304       23.439       14.625      335.036      549.394      213.883        0.317        0.055       71.893        7.232        0.010      343.234       19.202      862.864
10/24/2013  18:58:00      -44.231       61.517       -5.708       19.881       18.170       16.187      395.261      330.147      262.012        0.338        0.049       75.767       10.871        0.021      343.196       19.137      862.886
10/24/2013  18:59:00      -21.023       82.747      -18.224        9.609       12.087        7.956       92.328      146.084       63.295        0.396        0.015       85.376        4.336        0.003      343.251       19.232      862.887
10/24/2013  19:00:00      -18.309       70.059      -14.275       14.678       12.555       10.184      215.445      157.618      103.708        0.296        0.024       72.412        4.257        0.003      343.332       19.368      862.897
10/24/2013  19:01:00      -79.893       64.883      -24.536       19.702       24.003       11.766      388.178      576.157      138.436        0.615        0.055      102.921        6.222        0.004      343.230       19.195      862.902
10/24/2013  19:02:00      -67.592       58.157      -13.392       24.095       12.907       11.249      580.554      166.594      126.546        0.450        0.044       89.168        9.267        0.011      343.226       19.188      862.919
10/24/2013  19:03:00      -30.955       71.436      -15.210       21.154       13.786        7.458      447.495      190.064       55.620        0.349        0.035       77.855        4.696        0.004      343.280       19.280      862.926
10/24/2013  19:04:00        7.097       99.656      -19.355       13.664       16.379       10.146      186.705      268.269      102.936        0.546        0.028       99.908        8.691        0.008      343.253       19.234      862.923
10/24/2013  19:05:00        9.926       87.100      -21.722       12.900       17.215        8.228      166.402      296.340       67.703        0.434        0.027       87.663        8.632        0.010      343.232       19.197      862.935
10/24/2013  19:06:00       -7.655       70.929      -11.752       11.787       17.603        5.902      138.939      309.855       34.834        0.286        0.024       71.341        6.363        0.008      343.308       19.327      862.936
10/24/2013  19:07:00      -15.109       34.813       -0.296       21.416       20.506        9.834      458.655      420.482       96.716        0.121        0.049       37.950       10.740        0.080      343.134       19.031      862.961
10/24/2013  19:08:00     -122.085      -67.348      -12.141       41.946       31.886       20.372     1759.450     1016.693      415.005        1.139        0.160      139.429        7.358        0.003      342.013       17.124      862.980
10/24/2013  19:09:00     -105.876      -74.767        9.648       45.865       32.358       24.328     2103.561     1047.015      591.843        1.032        0.187      129.614       25.822        0.040      342.110       17.291      862.991
10/24/2013  19:10:00     -134.267      -57.417       -7.735       34.481       31.318       16.876     1188.974      980.821      284.814        1.192        0.123      146.029       17.947        0.015      342.433       17.840      863.008
10/24/2013  19:11:00     -144.107      -33.868      -13.991       21.505       19.701       13.387      462.452      388.146      179.205        1.157        0.051      148.033        1.601        0.000      342.374       17.739      863.011
10/24/2013  19:12:00      -83.781      -42.098      -12.761       16.368       12.138        8.429      267.913      147.320       71.056        0.472        0.024       93.762        4.530        0.002      342.495       17.945      863.030
10/24/2013  19:13:00     -101.236      -29.449      -15.485       17.262       15.175       10.896      297.979      230.280      118.713        0.600        0.032      105.433        8.658        0.007      342.555       18.046      863.029
10/24/2013  19:14:00     -117.646      -27.296      -17.365       20.285       18.274       12.549      411.501      333.947      157.481        0.789        0.045      120.771        8.071        0.004      342.355       17.707      863.046
10/24/2013  19:15:00      -24.830       -5.006        2.802       23.112       27.390       17.197      534.187      750.209      295.736        0.111        0.079       25.330       13.413        0.280      342.283       17.583      863.052
10/24/2013  19:16:00      -29.818      -17.867       -8.597       24.768       26.418       18.304      613.439      697.919      335.033        0.146        0.082       34.761       15.956        0.211      342.662       18.229      863.048
10/24/2013  19:17:00        8.573        4.956       -4.518        9.818       17.003        7.791       96.402      289.118       60.701        0.028        0.022        9.902        4.826        0.237      342.727       18.340      863.060
10/24/2013  19:18:00       17.191        5.602       11.320       20.302        7.104       11.432      412.162       50.467      130.701        0.052        0.030       18.081       12.491        0.477      342.556       18.048      863.063
10/24/2013  19:19:00      -15.640       46.296       -4.788       16.390       27.753       10.274      268.629      770.245      105.545        0.178        0.057       48.866       10.352        0.045      342.703       18.299      863.096
10/24/2013  19:20:00        1.396       23.133       -7.766       23.249       27.652       12.558      540.523      764.647      157.704        0.103        0.073       23.175        8.470        0.134      342.460       17.885      863.115
10/24/2013  19:21:00     -178.990      -33.819      -17.052       56.617       29.950       22.411     3205.479      896.994      502.263        1.904        0.230      182.157       24.088        0.017      341.578       16.387      863.137
10/24/2013  19:22:00     -151.326      -14.958      -14.724       69.819       35.329       26.481     4874.750     1248.149      701.232        1.508        0.341      152.064       29.695        0.038      341.559       16.354      863.174
10/24/2013  19:23:00     -127.181      -28.993      -12.813       36.818       20.110       18.028     1355.580      404.393      325.007        0.963        0.104      130.444       16.608        0.016      341.796       16.759      863.174
10/24/2013  19:24:00     -135.519      -45.730      -11.200       19.295       16.864       10.879      372.295      284.381      118.356        1.068        0.039      143.027        6.218        0.002      341.894       16.924      863.188
10/24/2013  19:25:00     -129.963      -40.296      -12.207       20.979       17.511       13.413      440.105      306.649      179.918        0.979        0.046      136.067       12.208        0.008      341.928       16.982      863.205
10/24/2013  19:26:00      -88.625      -17.575       -6.233       56.962       25.942       20.624     3244.695      672.974      425.341        0.627        0.217       90.351       30.434        0.113      342.033       17.161      863.219
10/24/2013  19:27:00      -29.898       13.647       -3.295       34.723       28.551       17.580     1205.695      815.168      309.052        0.171        0.116       32.865       19.665        0.358      342.137       17.336      863.227
10/24/2013  19:28:00     -109.643       24.025       -8.522       40.377       49.782       25.969     1630.302     2478.201      674.406        0.873        0.239      112.244       24.208        0.047      342.161       17.377      863.230
10/24/2013  19:29:00      -92.795       -8.678       -9.507       48.328       30.271       23.587     2335.600      916.348      556.345        0.629        0.190       93.200       23.460        0.063      342.086       17.251      863.241
10/24/2013  19:30:00     -110.865      -51.159       -5.798       46.186       31.744       17.442     2133.166     1007.675      304.217        0.919        0.172      122.100       14.365        0.014      341.828       16.812      863.239
10/24/2013  19:31:00     -117.076       -2.574       -9.052       54.421       49.377       29.605     2961.596     2438.115      876.465        1.003        0.314      117.104       26.279        0.050      341.778       16.727      863.254
10/24/2013  19:32:00     -120.079        2.391       -7.836       60.533       47.181       29.918     3664.289     2226.007      895.069        1.063        0.339      120.103       16.976        0.020      341.816       16.792      863.257
10/24/2013  19:33:00      -84.578        4.270       -8.410       58.285       47.197       26.684     3397.137     2227.549      712.048        0.679        0.317       84.686       21.647        0.065      341.822       16.801      863.254
10/24/2013  19:34:00      -78.371      -23.950        3.139       62.909       41.854       28.791     3957.551     1751.749      828.906        0.663        0.327       81.949       26.483        0.104      341.512       16.277      863.256
10/24/2013  19:35:00      -87.090      -33.653       -7.479       42.323       35.527       28.984     1791.259     1262.145      840.067        0.633        0.195       93.366       21.004        0.051      341.417       16.116      863.264
10/24/2013  19:36:00      -52.684      -45.701       -5.405       56.409       38.374       21.394     3181.977     1472.592      457.707        0.500        0.256       69.744       20.368        0.085      341.152       15.666      863.269
10/24/2013  19:37:00     -122.276      -61.426       -6.530       65.667       37.028       23.071     4312.144     1371.059      532.289        1.249        0.311      136.838       30.185        0.049      341.078       15.540      863.270
10/24/2013  19:38:00     -162.489      -75.788       -4.019       66.082       49.996       25.831     4366.806     2499.605      667.229        1.985        0.377      179.294       27.783        0.024      340.986       15.384      863.276
10/24/2013  19:39:00     -181.945      -23.300       -1.132       84.892       56.991       42.351     7206.604     3247.949     1793.576        2.295        0.612      183.431       43.155        0.055      341.194       15.735      863.293
10/24/2013  19:40:00     -182.016      -13.214      -15.818       58.986       54.491       36.625     3479.388     2969.268     1341.421        2.067        0.390      182.495       34.377        0.035      341.148       15.657      863.299
10/24/2013  19:41:00      -91.069      -27.681        3.671       62.994       55.128       28.453     3968.253     3039.076      809.560        0.844        0.391       95.184       33.406        0.123      341.025       15.452      863.309
10/24/2013  19:42:00     -176.112      -38.290      -24.985       44.177       41.668       20.423     1951.620     1736.212      417.083        1.860        0.205      180.227       18.024        0.010      340.965       15.349      863.317
10/24/2013  19:43:00     -123.894      -37.354       -9.517       49.657       48.694       29.488     2465.808     2371.073      869.525        1.127        0.285      129.402       29.692        0.053      341.060       15.510      863.334
10/24/2013  19:44:00     -147.477      -40.708      -12.761       38.941       30.782       25.378     1516.399      947.530      644.028        1.334        0.155      152.992       24.127        0.025      341.083       15.548      863.343
10/24/2013  19:45:00     -100.345      -54.263       -3.027       28.299       19.258       16.322      800.860      370.882      266.404        0.723        0.072      114.077       14.961        0.017      341.033       15.466      863.360
10/24/2013  19:46:00      -94.957      -37.766       -6.378       44.419       13.571        9.330     1973.074      184.167       87.042        0.636        0.112      102.191        2.858        0.001      341.015       15.435      863.354
10/24/2013  19:47:00     -131.126      -60.873       -7.407       33.776       28.648       19.469     1140.799      820.699      379.060        1.165        0.117      144.567       12.028        0.007      341.043       15.481      863.360
10/24/2013  19:48:00     -150.591      -54.563       -8.276       54.315       33.823       27.139     2950.154     1143.997      736.516        1.528        0.242      160.171       21.706        0.018      340.930       15.289      863.370
10/24/2013  19:49:00     -112.692      -19.246       -8.342       37.599       27.417       27.670     1413.716      751.669      765.610        0.803        0.147      114.324       22.616        0.039      341.093       15.566      863.384
10/24/2013  19:50:00      -87.909       12.070       -3.484       48.421       47.505       27.119     2344.583     2256.725      735.465        0.661        0.267       88.734       26.959        0.092      341.337       15.979      863.384
10/24/2013  19:51:00      -99.512        9.658      -14.810       30.148       44.219       26.278      908.911     1955.339      690.543        0.688        0.178       99.979       21.301        0.045      341.325       15.958      863.411
10/24/2013  19:52:00      -65.040      -23.257       -4.618       41.838       38.566       24.003     1750.394     1487.363      576.162        0.430        0.191       69.074       19.181        0.077      340.974       15.365      863.412
10/24/2013  19:53:00     -133.507      -56.029       -7.173       40.104       37.306       25.192     1608.359     1391.702      634.623        1.232        0.182      144.787       20.553        0.020      340.767       15.017      863.428
10/24/2013  19:54:00     -115.219        2.208      -10.543       47.250       46.657       29.936     2232.568     2176.831      896.158        0.935        0.265      115.240       27.062        0.055      341.104       15.586      863.435
10/24/2013  19:55:00      -51.824      -13.895       -7.967       32.605       22.767       13.500     1063.090      518.348      182.248        0.235        0.088       53.654        8.455        0.025      340.967       15.352      863.423
10/24/2013  19:56:00      -18.377       14.292       -3.832       18.537       22.058       12.073      343.618      486.566      145.750        0.077        0.049       23.280       12.391        0.283      341.023       15.449      863.418
10/24/2013  19:57:00      -14.889       27.618       -8.088       16.122       19.375       12.863      259.924      375.376      165.458        0.093        0.040       31.375        8.596        0.075      341.038       15.475      863.418
10/24/2013  19:58:00      -45.439       32.171       -5.796       22.435       13.845       13.221      503.348      191.696      174.791        0.200        0.043       55.675       11.702        0.044      340.987       15.388      863.428
10/24/2013  19:59:00      -53.593       27.506      -13.775       23.901       23.196       15.130      571.247      538.056      228.903        0.258        0.067       60.240       11.157        0.034      341.077       15.540      863.416
10/24/2013  20:00:00      -63.964      -20.337      -16.788       32.288       40.656       16.785     1042.495     1652.871      281.737        0.388        0.149       67.119       14.762        0.048      340.938       15.305      863.404
10/24/2013  20:01:00     -110.928      -34.238      -14.642       15.023       21.780       13.780      225.702      474.364      189.881        0.729        0.044      116.092        8.349        0.005      340.648       14.812      863.405
10/24/2013  20:02:00     -100.891      -28.264      -12.017       33.838       23.153       18.845     1144.991      536.042      355.120        0.658        0.102      104.775       13.908        0.018      340.606       14.743      863.403
10/24/2013  20:03:00      -68.240       -1.166      -17.074       19.838       16.808       12.560      393.563      282.511      157.755        0.289        0.042       68.250        6.459        0.009      340.677       14.863      863.412
10/24/2013  20:04:00      -63.816        4.474      -13.747       16.182       13.150        9.575      261.867      172.935       91.684        0.240        0.026       63.973        8.464        0.018      340.717       14.930      863.402
10/24/2013  20:05:00      -12.262       60.838      -12.247       15.980       31.876       10.515      255.358     1016.053      110.571        0.269        0.069       62.062       15.536        0.063      341.741       16.665      863.401
10/24/2013  20:06:00      -55.600       47.508      -12.120       28.556       46.018        8.281      815.468     2117.660       68.567        0.425        0.150       73.133       11.646        0.025      341.528       16.304      863.397
10/24/2013  20:07:00      -79.297      -23.622      -15.412       13.877       15.605        9.995      192.570      243.515       99.898        0.381        0.027       82.740        8.342        0.010      340.557       14.659      863.411
10/24/2013  20:08:00      -62.764       40.833      -12.480       19.314       48.179       17.819      373.037     2321.174      317.511        0.439        0.151       74.878       24.529        0.107      341.180       15.715      863.412
10/24/2013  20:09:00      -21.665      145.094      -18.501       26.125       32.982       15.867      682.532     1087.794      251.775        1.194        0.101      146.703       10.150        0.005      341.897       16.929      863.418
10/24/2013  20:10:00      -42.256      114.627      -18.707       35.205       75.286       13.976     1239.371     5667.948      195.317        1.119        0.355      122.168       13.320        0.012      341.620       16.461      863.423
10/24/2013  20:11:00     -139.457      -12.041      -17.863       40.223       36.283       24.087     1617.854     1316.478      580.176        1.171        0.176      139.976       21.827        0.024      340.217       14.085      863.449
10/24/2013  20:12:00     -110.587       -3.186      -18.717       28.013       25.075       16.971      784.724      628.746      288.025        0.715        0.085      110.633       10.411        0.009      340.107       13.900      863.459
10/24/2013  20:13:00      -77.367       38.116      -17.396       21.387       19.509       14.269      457.383      380.614      203.599        0.439        0.052       86.247       10.624        0.015      341.052       15.497      863.463
10/24/2013  20:14:00      -69.439       -0.805      -10.768       19.650       18.388       12.119      386.131      338.116      146.873        0.290        0.044       69.444       10.811        0.024      340.674       14.858      863.466
10/24/2013  20:15:00      -59.382      -18.109       -5.743       24.572       26.686       11.378      603.801      712.155      129.448        0.267        0.072       62.082       11.279        0.033      340.563       14.671      863.475
10/24/2013  20:16:00     -144.043      -72.663      -14.133       34.121       28.494       17.417     1164.227      811.917      303.343        1.425        0.114      161.333       17.331        0.012      340.152       13.976      863.486
10/24/2013  20:17:00      -85.482       -9.259      -11.183       18.465       25.039       12.499      340.941      626.937      156.224        0.432        0.056       85.982       10.764        0.016      340.261       14.159      863.497
10/24/2013  20:18:00     -143.309      -24.131      -20.885       51.376       34.686       21.923     2639.517     1203.127      480.611        1.294        0.216      145.326       22.796        0.025      340.282       14.194      863.501
10/24/2013  20:19:00     -131.971      -23.063       -4.511       59.080       47.935       30.712     3490.462     2297.798      943.203        1.235        0.337      133.971       30.269        0.051      340.177       14.018      863.520
10/24/2013  20:20:00     -174.233      -16.325      -20.366       60.500       56.171       28.942     3660.273     3155.168      837.619        1.934        0.383      174.997       24.123        0.019      340.238       14.119      863.534
10/24/2013  20:21:00     -100.964       54.571      -15.729       44.419       36.614       28.227     1973.013     1340.564      796.742        0.876        0.206      114.768       22.933        0.040      340.635       14.791      863.534
10/24/2013  20:22:00      -79.405       71.300      -23.096       20.541       33.301       14.438      421.937     1108.932      208.465        0.683        0.087      106.719       10.057        0.009      341.275       15.876      863.546
10/24/2013  20:23:00      -39.906      -21.146       -7.523       11.647       29.934       10.543      135.661      896.038      111.151        0.162        0.057       45.162       11.696        0.067      340.971       15.360      863.539
10/24/2013  20:24:00      -45.718      -32.543       -2.646       14.943       20.935       11.032      223.297      438.264      121.705        0.197        0.039       56.117        8.212        0.021      340.674       14.857      863.549
10/24/2013  20:25:00      -44.994      -23.409       -5.188       14.635       12.664       13.643      214.198      160.376      186.125        0.158        0.028       50.719       10.245        0.041      340.827       15.117      863.546
10/24/2013  20:26:00      -34.001       10.502       -9.908       17.891       18.795       11.467      320.100      353.233      131.495        0.108        0.040       35.586        9.669        0.074      341.217       15.777      863.558
10/24/2013  20:27:00      -56.082        3.895      -13.375       36.696       16.876        8.847     1346.568      284.811       78.261        0.252        0.085       56.217        7.624        0.018      341.131       15.632      863.562
10/24/2013  20:28:00     -142.673      -23.473      -17.229       27.762       21.373       13.354      770.735      456.792      178.330        1.130        0.070      144.591        8.432        0.003      340.236       14.115      863.575
10/24/2013  20:29:00      -66.101      -22.793       -6.271       36.142       16.760       13.319     1306.247      280.911      177.395        0.335        0.088       69.920       14.897        0.045      340.365       14.335      863.589
10/24/2013  20:30:00      -48.390      -37.550       -0.956       25.179       12.058       11.089      633.965      145.389      122.970        0.233        0.045       61.250       12.627        0.043      340.476       14.523      863.589
10/24/2013  20:31:00     -102.839      -37.071      -14.385       31.161       18.258        9.728      970.988      333.355       94.625        0.678        0.070      109.317       11.266        0.011      340.560       14.664      863.602
10/24/2013  20:32:00     -200.030      -22.371      -18.236       28.208       25.224       15.583      795.697      636.233      242.832        2.126        0.084      201.278       12.892        0.004      340.258       14.152      863.613
10/24/2013  20:33:00     -109.167      -52.210       -1.539       49.823       23.831       15.388     2482.350      567.921      236.798        0.897        0.164      121.009       22.155        0.034      340.163       13.993      863.635
10/24/2013  20:34:00     -118.111      -52.127       -3.040       25.519       30.387       13.710      651.217      923.390      187.974        0.922        0.088      129.102       12.351        0.009      340.223       14.095      863.633
10/24/2013  20:35:00     -154.717      -85.811      -12.558       20.591       17.707       16.015      424.000      313.540      256.476        1.623        0.050      176.920        8.170        0.002      340.146       13.966      863.637
10/24/2013  20:36:00     -184.970     -104.333        0.360       53.011       36.713       31.398     2810.142     1347.833      985.838        2.512        0.257      212.366       20.688        0.009      340.220       14.088      863.634
10/24/2013  20:37:00     -131.118      -62.025        6.687       88.109       55.372       32.500     7763.150     3066.068     1056.279        1.648        0.594      145.048       37.363        0.066      340.417       14.420      863.634
10/24/2013  20:38:00     -168.026     -141.460      -10.552       67.768       45.962       37.979     4592.551     2112.535     1442.372        2.825        0.407      219.645       31.307        0.020      340.342       14.292      863.643
10/24/2013  20:39:00     -157.808     -120.496       -6.359       48.968       52.765       36.890     2397.881     2784.150     1360.839        2.300        0.327      198.551       27.639        0.019      340.413       14.414      863.641
10/24/2013  20:40:00     -216.681     -129.955       -3.875       65.903       64.541       41.551     4343.179     4165.498     1726.457        3.704        0.512      252.663       36.432        0.021      340.411       14.409      863.670
10/24/2013  20:41:00     -221.587     -114.712       -4.556       79.493       63.226       35.596     6319.102     3997.470     1267.092        3.693        0.579      249.519       35.248        0.020      340.437       14.454      863.677
10/24/2013  20:42:00     -140.352      -95.724        3.913       80.208       71.664       38.929     6433.301     5135.784     1515.493        2.098        0.654      169.887       43.790        0.066      340.514       14.586      863.696
10/24/2013  20:43:00     -200.730      -60.161        5.121       84.672       66.388       43.538     7169.339     4407.356     1895.532        2.870        0.674      209.551       38.609        0.034      340.566       14.671      863.704
10/24/2013  20:44:00     -231.010      -52.206        0.570       68.641       61.654       38.510     4711.539     3801.195     1482.993        3.304        0.500      236.835       36.835        0.024      340.716       14.926      863.705
10/24/2013  20:45:00     -246.381      -88.586       -4.881       69.574       66.180       34.292     4840.494     4379.760     1175.922        3.948        0.520      261.823       28.635        0.012      340.903       15.240      863.710
10/24/2013  20:46:00     -237.569     -103.225        0.998       71.532       52.220       38.657     5116.773     2726.891     1494.341        3.822        0.467      259.026       34.789        0.018      340.810       15.083      863.710
10/24/2013  20:47:00     -229.050      -52.050        1.654       79.727       59.683       36.040     6356.384     3562.062     1298.888        3.319        0.561      234.890       37.289        0.025      340.845       15.144      863.723
10/24/2013  20:48:00     -217.784      -64.794      -15.176       67.353       56.217       34.640     4536.418     3160.358     1199.934        3.038        0.445      227.218       34.427        0.023      341.017       15.433      863.737
10/24/2013  20:49:00     -151.757      -45.556        1.255       59.287       50.627       27.549     3515.004     2563.098      758.941        1.597        0.342      158.447       29.548        0.035      341.090       15.561      863.737
10/24/2013  20:50:00     -114.221      -32.001       -1.306       58.695       41.215       29.144     3445.122     1698.697      849.368        1.003        0.300      118.620       27.803        0.055      340.957       15.338      863.760
10/24/2013  20:51:00     -198.975        1.225      -17.610       53.438       26.561       22.086     2855.583      705.478      487.808        2.198        0.202      198.979       22.042        0.012      341.053       15.496      863.771
10/24/2013  20:52:00     -186.010       -5.467      -17.056       53.988       31.404       24.714     2914.674      986.199      610.765        1.972        0.226      186.091       25.294        0.018      340.985       15.383      863.791
10/24/2013  20:53:00     -176.180        4.338      -22.702       40.161       40.110       21.199     1612.880     1608.802      449.414        1.762        0.184      176.233       19.423        0.012      341.112       15.597      863.799
10/24/2013  20:54:00     -141.701      -36.656      -14.202       32.319       29.517       25.431     1044.502      871.276      646.727        1.209        0.128      146.365       23.305        0.025      341.058       15.507      863.815
10/24/2013  20:55:00     -112.266      -38.611       -0.307       45.357       26.762       17.098     2057.244      716.185      292.345        0.858        0.153      118.721       22.111        0.035      341.086       15.555      863.814
10/24/2013  20:56:00     -116.992       -5.716      -13.409       27.385       19.794       12.755      749.928      391.791      162.700        0.760        0.065      117.132        9.831        0.007      341.020       15.444      863.821
10/24/2013  20:57:00     -157.665      -15.558      -15.466       16.331       29.238       13.501      266.701      854.835      182.269        1.332        0.065      158.431       11.672        0.005      340.940       15.308      863.816
10/24/2013  20:58:00     -138.469       -4.251      -12.133       33.400       19.302       15.848     1115.559      372.577      251.161        1.054        0.087      138.534       14.926        0.012      340.799       15.070      863.813
10/24/2013  20:59:00     -117.428       -9.890       -8.391       32.040       26.055       21.236     1026.566      678.845      450.947        0.806        0.108      117.844       20.446        0.030      340.657       14.829      863.801
10/24/2013  21:00:00     -150.062      -23.842      -18.272       28.814       28.884       17.134      830.265      834.300      293.588        1.269        0.098      151.944       15.469        0.010      340.637       14.795      863.793
10/24/2013  21:01:00     -132.282      -38.482        0.446       52.766       38.518       24.745     2784.245     1483.634      612.331        1.193        0.244      137.765       24.322        0.031      340.500       14.563      863.799
10/24/2013  21:02:00     -149.239       -6.763      -10.208       50.543       29.987       21.500     2554.584      899.205      462.251        1.317        0.196      149.392       23.394        0.025      340.617       14.759      863.797
10/24/2013  21:03:00     -151.485       -5.349       -9.502       34.720       36.402       25.945     1205.501     1325.091      673.125        1.313        0.160      151.579       19.043        0.016      340.680       14.868      863.794
10/24/2013  21:04:00     -148.370       58.573       -8.101       60.577       27.040       16.729     3669.562      731.159      279.864        1.509        0.234      159.513       13.008        0.007      340.797       15.064      863.796
10/24/2013  21:05:00      -95.633       20.322      -11.066       32.903       26.454       22.855     1082.633      699.832      522.336        0.599        0.115       97.769       21.787        0.050      340.708       14.914      863.814
10/24/2013  21:06:00      -84.407      -21.438       -6.883       35.773       30.941       16.939     1279.714      957.373      286.939        0.508        0.126       87.086       11.516        0.017      340.441       14.465      863.818
10/24/2013  21:07:00     -110.166      -22.053      -12.150       28.823       25.911       16.061      830.749      671.401      257.959        0.727        0.088      112.352       11.033        0.010      340.265       14.167      863.830
10/24/2013  21:08:00      -56.216       25.104       -3.673       31.076       43.878       26.044      965.726     1925.264      678.311        0.369        0.178       61.566       18.685        0.092      340.392       14.380      863.839
10/24/2013  21:09:00     -111.414      116.172      -20.333       35.744       52.389       25.510     1277.625     2744.571      650.777        1.550        0.234      160.963       20.520        0.016      340.764       15.008      863.839
10/24/2013  21:10:00     -106.915      -25.630      -11.522       31.426       44.607       22.307      987.569     1989.757      497.599        0.785        0.174      109.944       14.852        0.018      340.278       14.189      863.856
10/24/2013  21:11:00     -174.179      -64.345      -19.383       33.683       19.287       16.939     1134.575      371.992      286.917        1.832        0.090      185.684       12.241        0.004      339.895       13.540      863.891
10/24/2013  21:12:00     -137.246       -5.355       -9.362       25.504       29.775       16.017      650.445      886.550      256.547        1.037        0.090      137.351       12.369        0.008      339.935       13.611      863.911
10/24/2013  21:13:00     -115.587       32.211       -3.698       25.430       18.573       13.502      646.706      344.973      182.298        0.779        0.059      119.991        8.063        0.005      340.428       14.443      863.899
10/24/2013  21:14:00      -70.378       12.291       -2.163       24.850       26.874       16.351      617.524      722.189      267.361        0.336        0.080       71.443       10.235        0.021      340.824       15.112      863.894
10/24/2013  21:15:00     -123.327      -59.595       -4.640       47.310       29.161       21.632     2238.205      850.391      467.933        1.117        0.178      136.971        9.711        0.005      340.334       14.282      863.911
10/24/2013  21:16:00     -125.733      -77.236       -1.355       55.638       37.921       26.887     3095.577     1438.036      722.884        1.352        0.263      147.561       16.491        0.012      340.104       13.895      863.935
10/24/2013  21:17:00     -139.065      -38.338       -7.924       45.273       33.607       22.441     2049.615     1129.438      503.594        1.228        0.184      144.253       22.697        0.025      340.122       13.925      863.965
10/24/2013  21:18:00      -92.657      -43.619        4.492       52.289       31.677       22.164     2734.171     1003.406      491.240        0.737        0.211      102.411       21.062        0.042      339.876       13.510      863.981
10/24/2013  21:19:00      -85.046      -54.080        0.379       29.143       29.774       14.946      849.311      886.517      223.391        0.606        0.098      100.784       10.841        0.012      340.018       13.748      863.978
10/24/2013  21:20:00      -92.931      -76.333        2.072       49.731       34.344       25.534     2473.139     1179.536      651.960        0.939        0.215      120.262       20.354        0.029      340.019       13.750      863.987
10/24/2013  21:21:00      -53.897      -58.933       14.335       72.272       59.486       41.953     5223.312     3538.527     1760.016        0.855        0.526       79.862       39.419        0.244      339.957       13.645      864.001
10/24/2013  21:22:00      -81.044      -95.996       12.005       67.122       44.821       31.716     4505.419     2008.894     1005.924        1.172        0.376      125.632       34.853        0.077      340.132       13.942      864.000
10/24/2013  21:23:00      -65.459      -91.132        6.891       41.849       32.175       30.418     1751.329     1035.215      925.278        0.817        0.186      112.205       29.396        0.069      340.277       14.186      863.984
10/24/2013  21:24:00      -89.837      -82.499        1.266       46.325       33.570       26.769     2145.977     1126.956      716.602        0.943        0.199      121.970       22.381        0.034      340.247       14.136      863.997
10/24/2013  21:25:00     -120.399      -45.116       -3.261       37.646       43.548       22.466     1417.250     1896.389      504.721        1.018        0.191      128.575       20.373        0.025      340.213       14.078      863.999
10/24/2013  21:26:00     -208.701      -97.367       -2.544       64.104       56.057       29.466     4109.338     3142.412      868.256        3.058        0.406      230.296       33.646        0.021      339.872       13.499      864.029
10/24/2013  21:27:00      -69.499      -46.131       11.918       57.229       43.017       24.905     3275.174     1850.446      620.244        0.642        0.287       83.416       23.322        0.078      339.870       13.499      864.051
10/24/2013  21:28:00      -50.273      -33.984        9.122       31.007       23.406       17.179      961.404      547.820      295.128        0.278        0.090       60.682       13.920        0.053      339.999       13.718      864.036
10/24/2013  21:29:00     -175.322      -47.690      -10.814       64.304       50.873       21.612     4135.034     2588.082      467.091        2.016        0.360      181.692       24.479        0.018      340.140       13.954      864.028
10/24/2013  21:30:00     -131.799      -54.214       -2.427       56.251       34.856       25.972     3164.178     1214.940      674.522        1.268        0.253      142.514       22.279        0.024      339.982       13.690      864.062
10/24/2013  21:31:00      -44.044       -4.614       -9.730       22.642       24.160       14.064      512.665      583.698      197.794        0.167        0.065       44.285       16.474        0.138      340.099       13.885      864.037
10/24/2013  21:32:00     -170.498      -66.225       -7.196       60.022       32.811       16.129     3602.679     1076.538      260.130        1.922        0.247      182.908       11.864        0.004      339.975       13.674      864.055
10/24/2013  21:33:00     -165.531      -59.762       -8.684       64.791       41.102       22.758     4197.813     1689.352      517.918        1.873        0.320      175.988       24.116        0.019      339.780       13.346      864.092
10/24/2013  21:34:00       -2.028      -17.694        1.012       42.670       34.136       23.206     1820.699     1165.241      538.523        0.192        0.176       17.810       20.619        1.340      339.805       13.389      864.072
10/24/2013  21:35:00     -108.973      -84.758       -6.667       82.711       47.638       23.462     6841.041     2269.402      550.488        1.438        0.483      138.054       36.529        0.070      339.911       13.568      864.102
10/24/2013  21:36:00       -3.209      -27.853       -6.449       43.600       21.333       25.765     1900.965      455.088      663.849        0.192        0.151       28.037       22.055        0.619      339.875       13.509      864.127
10/24/2013  21:37:00      -82.379      -48.792       -5.927       39.067       21.377       14.604     1526.213      456.992      213.270        0.570        0.110       95.744       12.856        0.018      339.889       13.532      864.156
10/24/2013  21:38:00      -13.357       -4.627        0.525       41.613       22.021        8.824     1731.630      484.921       77.868        0.125        0.115       14.136       15.573        1.214      339.902       13.553      864.177
10/24/2013  21:39:00       21.642      -13.604        7.440       30.140       37.291       24.770      908.410     1390.583      613.548        0.181        0.146       25.562       19.372        0.574      339.825       13.427      864.162
10/24/2013  21:40:00       37.017      -63.507       -5.287       26.259       32.422       18.901      689.519     1051.155      357.240        0.376        0.105       73.508       16.846        0.053      339.937       13.613      864.182
10/24/2013  21:41:00       49.772        7.433       23.734       30.775       37.750       25.973      947.109     1425.100      674.621        0.307        0.152       50.324       29.413        0.342      339.861       13.484      864.199
10/24/2013  21:42:00      -10.719       18.164       40.637       14.284       36.226       26.283      204.039     1312.317      690.791        0.215        0.110       21.091       27.677        1.722      339.786       13.358      864.201
10/24/2013  21:43:00      -27.075      -22.621       -3.244       14.199       12.215        9.742      201.610      149.204       94.910        0.085        0.022       35.281        7.792        0.049      339.995       13.711      864.211
10/24/2013  21:44:00      -38.344      -16.213       -2.141       10.776        9.422        5.610      116.121       88.780       31.473        0.099        0.012       41.631        4.188        0.010      339.824       13.424      864.236
10/24/2013  21:45:00      -63.907      -43.824       -6.316       25.370       24.408       11.440      643.626      595.756      130.870        0.371        0.069       77.490        6.676        0.007      340.083       13.858      864.252
10/24/2013  21:46:00      -84.601      -66.811       -1.453       42.562       28.424       19.146     1811.563      807.931      366.573        0.730        0.149      107.801       15.342        0.020      339.838       13.448      864.261
10/24/2013  21:47:00      -62.478      -55.111        8.189       49.822       48.394       24.859     2482.199     2341.981      617.978        0.622        0.272       83.311       28.239        0.115      339.945       13.626      864.282
10/24/2013  21:48:00      -84.144      -58.513        7.627       54.080       40.954       22.047     2924.615     1677.190      486.065        0.782        0.254      102.489       27.161        0.070      339.974       13.676      864.291
10/24/2013  21:49:00     -101.529      -40.941        3.240       35.715       30.292       20.135     1275.589      917.598      405.416        0.730        0.130      109.473       15.443        0.020      339.721       13.249      864.300
10/24/2013  21:50:00      -90.960      -61.711       -1.956       50.263       41.054       20.118     2526.393     1685.470      404.734        0.835        0.231      109.918       18.554        0.028      339.848       13.462      864.305
10/24/2013  21:51:00     -106.621      -42.324       -8.252       29.942       32.335       20.214      896.520     1045.575      408.621        0.779        0.118      114.714       18.216        0.025      339.721       13.248      864.306
10/24/2013  21:52:00      -62.383      -17.273       -1.034       31.542       24.602       15.994      994.921      605.274      255.810        0.302        0.093       64.731       17.661        0.074      339.608       13.059      864.303
10/24/2013  21:53:00      -94.130      -55.443        2.966       32.159       30.250       19.296     1034.188      915.055      372.336        0.713        0.116      109.245       19.144        0.031      339.658       13.141      864.308
10/24/2013  21:54:00      -87.624      -57.330        6.467       47.331       30.596       28.540     2240.194      936.144      814.538        0.750        0.200      104.712       24.769        0.056      339.709       13.228      864.311
10/24/2013  21:55:00      -72.235      -45.853        6.436       52.989       35.465       28.277     2807.840     1257.743      799.568        0.611        0.243       85.560       25.730        0.090      339.712       13.233      864.309
10/24/2013  21:56:00      -98.637      -57.649        1.424       48.755       32.752       21.202     2377.037     1072.687      449.528        0.848        0.195      114.248       21.950        0.037      339.727       13.259      864.316
10/24/2013  21:57:00      -61.514      -32.330        7.644       35.601       29.249       20.635     1267.434      855.512      425.805        0.372        0.127       69.493       16.149        0.054      339.720       13.247      864.317
10/24/2013  21:58:00     -105.537      -59.623        0.753       45.240       28.516       19.575     2046.691      813.178      383.182        0.897        0.162      121.215       19.996        0.027      339.729       13.263      864.321
10/24/2013  21:59:00      -83.560      -22.690       -0.898       32.202       27.168       13.478     1036.974      738.083      181.662        0.473        0.098       86.586       11.528        0.018      339.603       13.050      864.329
10/24/2013  22:00:00      -59.900        0.923       -0.822       35.875       26.137       22.907     1287.009      683.160      524.753        0.304        0.125       59.907       23.440        0.153      339.422       12.744      864.349
10/24/2013  22:01:00      -74.605       39.924       -3.584       32.665       24.842       15.682     1067.024      617.113      245.919        0.455        0.097       84.616       10.415        0.015      339.355       12.630      864.359
10/24/2013  22:02:00      -60.923       31.414       -4.718       27.591       24.160       17.108      761.247      583.683      292.692        0.318        0.082       68.545       11.430        0.028      339.374       12.662      864.375
10/24/2013  22:03:00      -94.842       74.679      -14.987       33.103       32.866       22.650     1095.804     1080.178      513.045        0.874        0.134      120.714       10.840        0.008      339.325       12.581      864.393
10/24/2013  22:04:00      -80.956       55.169      -19.262       28.998       40.044       13.191      840.890     1603.548      174.013        0.629        0.131       97.967        8.113        0.007      339.391       12.693      864.405
10/24/2013  22:05:00      -45.866        6.547       -2.966       19.384       19.325       12.801      375.723      373.466      163.857        0.153        0.046       46.331        6.557        0.020      339.177       12.332      864.418
10/24/2013  22:06:00      -98.889        2.870      -14.070       28.780       28.725       17.621      828.310      825.119      310.496        0.597        0.098       98.931       17.963        0.033      339.088       12.181      864.432
10/24/2013  22:07:00     -123.227       22.476      -16.509       29.479       24.723       16.287      869.028      611.226      265.268        0.885        0.087      125.260        5.527        0.002      339.133       12.258      864.426
10/24/2013  22:08:00     -104.228        6.031       -8.200       37.905       30.177       18.286     1436.755      910.645      334.371        0.682        0.134      104.403       16.274        0.024      339.135       12.261      864.430
10/24/2013  22:09:00     -107.771       -6.518      -11.274       33.610       33.949       21.588     1129.654     1152.518      466.030        0.727        0.137      107.968       22.198        0.042      339.135       12.262      864.439
10/24/2013  22:10:00     -130.089        3.615       -8.200       33.296       31.444       16.734     1108.654      988.703      280.015        0.969        0.119      130.140       15.674        0.015      339.079       12.167      864.444
10/24/2013  22:11:00      -73.640      -10.956       -5.617       39.355       31.009       19.903     1548.844      961.527      396.133        0.424        0.145       74.450       16.720        0.050      338.946       11.943      864.433
10/24/2013  22:12:00     -103.500      -35.286       -9.965       37.719       34.412       19.035     1422.695     1184.163      362.324        0.751        0.148      109.350       20.361        0.035      338.918       11.894      864.441
10/24/2013  22:13:00      -98.295      -40.739        4.679       45.107       34.458       20.836     2034.663     1187.326      434.147        0.750        0.183      106.403       23.148        0.047      338.729       11.578      864.460
10/24/2013  22:14:00      -94.423      -18.661       -7.697       54.731       30.007       22.332     2995.431      900.428      498.740        0.686        0.220       96.249       25.923        0.073      338.693       11.520      864.456
10/24/2013  22:15:00      -72.691      -33.404        3.834       34.606       25.450       20.228     1197.543      647.723      409.190        0.433        0.113       79.999       16.085        0.040      338.731       11.580      864.458
10/24/2013  22:16:00      -62.359      -53.948       -4.734       41.306       34.938       21.315     1706.162     1220.633      454.309        0.510        0.169       82.456       20.868        0.064      338.783       11.669      864.477
10/24/2013  22:17:00      -80.349      -45.037        0.823       45.521       27.730       20.741     2072.124      768.927      430.207        0.588        0.164       92.110       22.733        0.061      338.920       11.898      864.485
10/24/2013  22:18:00     -113.575      -63.596        3.222       42.366       29.704       18.721     1794.862      882.346      350.494        0.999        0.151      130.168        8.872        0.005      338.969       11.982      864.495
10/24/2013  22:19:00      -68.085      -43.155        2.706       40.395       35.582       18.568     1631.726     1266.092      344.770        0.487        0.162       80.609       17.923        0.049      338.898       11.863      864.513
10/24/2013  22:20:00      -51.531      -39.796        9.333       36.171       24.950       18.654     1308.345      622.520      347.962        0.330        0.114       65.109       20.258        0.097      338.837       11.758      864.520
10/24/2013  22:21:00      -61.781      -35.838        4.873       32.360       23.868       17.911     1047.190      569.666      320.809        0.353        0.097       71.424       18.247        0.065      338.774       11.655      864.530
10/24/2013  22:22:00      -36.256      -27.801       16.068       56.686       32.395       21.791     3213.308     1049.445      474.838        0.354        0.237       45.688       28.245        0.382      338.678       11.491      864.551
10/24/2013  22:23:00      -60.949      -40.330        7.357       47.604       32.578       24.177     2266.131     1061.327      584.525        0.465        0.196       73.085       21.847        0.089      338.774       11.654      864.557
10/24/2013  22:24:00      -72.479      -57.687        3.315       48.214       33.921       25.254     2324.550     1150.630      637.788        0.635        0.206       92.634       25.658        0.077      338.768       11.645      864.564
10/24/2013  22:25:00      -41.855      -28.303        5.776       47.941       29.343       25.542     2298.348      860.987      652.389        0.320        0.191       50.526       24.369        0.233      338.714       11.553      864.579
10/24/2013  22:26:00      -66.359      -42.703        5.037       43.561       29.800       23.649     1897.517      888.041      559.287        0.480        0.167       78.911       22.536        0.082      338.683       11.501      864.575
10/24/2013  22:27:00      -44.054      -29.497       15.083       47.085       28.074       24.491     2216.975      788.142      599.822        0.332        0.180       53.018       26.696        0.254      338.649       11.444      864.574
10/24/2013  22:28:00      -40.207      -37.288        6.936       47.840       30.742       24.754     2288.696      945.096      612.744        0.345        0.192       54.836       24.666        0.202      338.702       11.532      864.583
10/24/2013  22:29:00      -45.894      -47.664       12.624       38.772       31.416       22.027     1503.266      986.935      485.198        0.376        0.149       66.167       22.845        0.119      338.663       11.468      864.590
10/24/2013  22:30:00     -104.860      -79.891        6.271       40.950       33.595       27.018     1676.899     1128.605      729.976        1.048        0.177      131.827       21.253        0.026      338.708       11.544      864.606
10/24/2013  22:31:00     -106.450      -60.724       -0.617       44.333       26.825       23.130     1965.450      719.600      535.001        0.912        0.161      122.552       24.511        0.040      338.708       11.544      864.608
10/24/2013  22:32:00      -95.369      -49.424        5.044       42.847       41.796       23.721     1835.903     1746.914      562.680        0.785        0.207      107.415       20.848        0.038      338.594       11.350      864.623
10/24/2013  22:33:00      -92.954      -72.604        2.605       43.121       35.141       20.118     1859.423     1234.883      404.750        0.871        0.175      117.948       17.897        0.023      338.579       11.327      864.635
10/24/2013  22:34:00     -102.681      -46.050        1.203       37.054       38.269       22.322     1373.001     1464.548      498.254        0.800        0.167      112.534       23.042        0.042      338.578       11.327      864.636
10/24/2013  22:35:00     -105.020      -60.391       -0.149       49.157       26.840       20.568     2416.441      720.409      423.050        0.912        0.178      121.146       23.523        0.038      338.537       11.255      864.643
10/24/2013  22:36:00     -116.558      -45.338       -2.880       31.244       31.390       19.367      976.167      985.349      375.062        0.899        0.117      125.065       12.538        0.010      338.590       11.343      864.672
10/24/2013  22:37:00      -68.780      -25.747        1.822       38.844       23.855       16.474     1508.878      569.041      271.395        0.387        0.117       73.441       17.704        0.058      338.592       11.348      864.670
10/24/2013  22:38:00     -116.615       -6.539       -7.844       29.876       22.553       14.654      892.564      508.658      214.726        0.766        0.081      116.798       11.431        0.010      338.516       11.221      864.689
10/24/2013  22:39:00     -137.902        6.751       -9.563       26.394       24.869       16.244      696.640      618.473      263.855        1.037        0.079      138.067       14.018        0.010      338.433       11.082      864.691
10/24/2013  22:40:00     -109.301      -14.762       -4.750       40.024       33.243       21.681     1601.956     1105.078      470.083        0.768        0.159      110.293       17.010        0.024      338.331       10.909      864.706
10/24/2013  22:41:00     -153.842       25.628       -8.014       47.004       30.391       18.241     2209.361      923.595      332.731        1.393        0.173      155.962       16.984        0.012      338.393       11.015      864.710
10/24/2013  22:42:00     -118.714       -3.878       -7.857       38.342       46.703       21.787     1470.124     2181.128      474.685        0.915        0.206      118.777       16.784        0.020      338.602       11.364      864.712
10/24/2013  22:43:00      -62.967      -49.656        1.697       63.151       28.476       24.793     3988.029      810.855      614.706        0.592        0.271       80.191       29.345        0.134      338.447       11.104      864.749
10/24/2013  22:44:00     -131.134      -22.817      -15.261       25.612       24.401       18.989      655.979      595.405      360.568        0.978        0.081      133.104       12.058        0.008      338.454       11.117      864.754
10/24/2013  22:45:00     -123.024      -36.579       -3.764       34.085       23.247       17.946     1161.791      540.428      322.060        0.926        0.101      128.347       19.675        0.023      338.378       10.989      864.780
10/24/2013  22:46:00     -123.317      -69.027       -1.250       50.242       34.433       22.046     2524.256     1185.665      486.025        1.208        0.210      141.321       23.825        0.028      338.622       11.400      864.794
10/24/2013  22:47:00     -100.039      -63.836        1.111       47.860       25.104       22.279     2290.568      630.210      496.349        0.875        0.171      118.671       21.292        0.032      338.609       11.376      864.794
10/24/2013  22:48:00      -64.487      -45.659       15.615       56.311       35.527       27.453     3170.879     1262.142      753.664        0.584        0.259       79.015       28.983        0.135      338.623       11.401      864.800
10/24/2013  22:49:00     -104.683      -19.025        8.384       52.351       36.688       21.774     2740.678     1345.999      474.128        0.798        0.228      106.398       24.555        0.053      338.510       11.211      864.802
10/24/2013  22:50:00     -113.475      -24.846        3.795       44.549       37.635       20.507     1984.622     1416.397      420.525        0.866        0.191      116.163       18.597        0.026      338.536       11.254      864.810
10/24/2013  22:51:00     -154.825      -46.894       -0.822       48.233       40.582       25.059     2326.418     1646.871      627.937        1.539        0.230      161.771       22.133        0.019      338.548       11.273      864.814
10/24/2013  22:52:00     -129.884      -48.734        8.901       72.006       51.011       28.180     5184.875     2602.087      794.109        1.395        0.429      138.726       34.706        0.063      338.688       11.509      864.812
10/24/2013  22:53:00     -150.521      -66.263        1.680       70.964       51.513       34.554     5035.923     2653.575     1193.975        1.797        0.444      164.461       39.203        0.057      338.848       11.777      864.825
10/24/2013  22:54:00      -91.289      -58.703        9.399       60.097       51.295       26.453     3611.605     2631.162      699.769        0.940        0.347      108.534       21.997        0.041      338.913       11.888      864.821
10/24/2013  22:55:00      -89.581      -57.555       -1.024       60.175       37.947       22.307     3621.034     1439.994      497.594        0.845        0.278      106.477        6.018        0.003      338.933       11.922      864.833
10/24/2013  22:56:00      -94.894      -89.717       -3.111       61.842       37.608       25.667     3824.492     1414.389      658.777        1.148        0.295      130.591       20.457        0.025      338.970       11.985      864.844
10/24/2013  22:57:00      -93.320      -79.715        8.581       61.177       50.173       34.924     3742.593     2517.301     1219.711        1.131        0.374      122.732       32.268        0.069      339.132       12.254      864.844
10/24/2013  22:58:00     -137.175     -100.732        4.444       77.386       56.149       36.022     5988.533     3152.657     1297.608        1.971        0.522      170.188       41.564        0.060      339.142       12.269      864.852
10/24/2013  22:59:00     -125.331      -95.902        6.921       69.005       61.262       36.880     4761.757     3753.000     1360.104        1.741        0.494      157.813       35.618        0.051      339.123       12.240      864.856
10/24/2013  23:00:00     -126.406      -99.349        3.277       71.909       66.185       39.701     5170.850     4380.415     1576.170        1.849        0.556      160.775       42.474        0.070      339.140       12.268      864.860
10/24/2013  23:01:00     -140.504     -113.334        5.266       57.050       51.344       34.365     3254.682     2636.164     1180.940        1.984        0.354      180.516       35.031        0.038      339.153       12.289      864.873
10/24/2013  23:02:00     -108.053      -87.198        6.578       62.458       49.291       34.969     3901.045     2429.591     1222.854        1.344        0.378      138.848       30.357        0.048      339.165       12.311      864.869
10/24/2013  23:03:00     -147.080      -94.031        7.257       67.468       50.563       32.961     4551.881     2556.646     1086.395        1.936        0.410      174.569       38.174        0.048      339.061       12.136      864.878
10/24/2013  23:04:00     -130.414      -96.116        5.365       61.080       47.847       28.047     3730.706     2289.290      786.626        1.654        0.340      162.007       29.841        0.034      339.058       12.130      864.879
10/24/2013  23:05:00      -92.859      -68.368       -6.382       44.109       28.267       23.647     1945.565      799.025      559.174        0.832        0.165      115.312       18.328        0.025      338.863       11.804      864.890
10/24/2013  23:06:00      -77.706      -48.092        3.340       56.003       33.881       22.640     3136.308     1147.938      512.564        0.658        0.240       91.384       21.998        0.058      338.888       11.847      864.904
10/24/2013  23:07:00     -115.859      -50.042        0.296       45.927       50.817       22.066     2109.328     2582.364      486.908        1.055        0.259      126.205       15.046        0.014      338.710       11.546      864.904
10/24/2013  23:08:00     -131.683       -8.153       -8.460       39.917       26.711       21.412     1593.343      713.500      458.486        1.012        0.138      131.935       20.799        0.025      338.476       11.153      864.897
10/24/2013  23:09:00     -134.426       -0.545      -14.599       27.091       29.972       15.090      733.949      898.316      227.695        1.007        0.093      134.427       14.373        0.011      338.409       11.040      864.907
10/24/2013  23:10:00     -134.906      -16.653      -12.074       30.276       19.859       14.595      916.613      394.398      213.000        1.007        0.076      135.930       14.916        0.012      338.403       11.032      864.903
10/24/2013  23:11:00     -112.702      -36.770        0.545       46.629       30.469       16.474     2174.247      928.331      271.382        0.871        0.169      118.549       20.870        0.031      338.449       11.108      864.897
10/24/2013  23:12:00     -110.578      -60.734        2.285       30.246       47.086       19.303      914.826     2217.081      372.602        0.971        0.175      126.158       15.493        0.015      338.592       11.347      864.911
10/24/2013  23:13:00      -84.866      -47.752        3.930       33.136       25.549       17.258     1098.008      652.749      297.834        0.577        0.102       97.378       16.113        0.027      338.453       11.116      864.924
10/24/2013  23:14:00      -52.187      -29.779        4.573       41.288       24.595       17.353     1704.724      604.923      301.111        0.312        0.131       60.086       23.392        0.152      338.491       11.178      864.932
10/24/2013  23:15:00      -71.433      -47.767       -1.498       31.002       28.981       19.287      961.112      839.925      371.997        0.478        0.109       85.932       16.119        0.035      338.493       11.181      864.942
10/24/2013  23:16:00     -119.253      -60.108       -9.591       38.161       29.160       20.721     1456.225      850.292      429.356        1.033        0.137      133.545       12.042        0.008      338.499       11.193      864.942
10/24/2013  23:17:00      -96.385      -47.095        1.525       39.717       32.271       21.614     1577.424     1041.419      467.169        0.730        0.154      107.275       19.379        0.033      338.417       11.054      864.962
10/24/2013  23:18:00      -88.718      -47.620       -0.705       41.045       31.834       24.693     1684.659     1013.393      609.753        0.672        0.165      100.690       25.159        0.062      338.487       11.171      864.956
10/24/2013  23:19:00     -123.136      -65.587       -9.368       37.129       20.626       15.496     1378.557      425.433      240.122        1.080        0.102      139.514       12.592        0.008      338.479       11.158      864.945
10/24/2013  23:20:00     -119.474      -31.551        3.832       49.030       30.698       22.177     2403.978      942.393      491.832        0.956        0.192      123.570       24.952        0.041      338.396       11.020      864.960
10/24/2013  23:21:00     -109.958      -42.051       -0.831       33.326       28.672       17.248     1110.628      822.064      297.482        0.804        0.112      117.725       15.235        0.017      338.289       10.839      864.951
10/24/2013  23:22:00      -97.633      -34.133        6.686       42.082       32.230       23.042     1770.898     1038.802      530.941        0.704        0.167      103.428       24.663        0.057      338.199       10.689      864.934
10/24/2013  23:23:00     -103.758      -42.528        2.927       27.724       29.217       19.678      768.603      853.612      387.221        0.730        0.100      112.135       13.762        0.015      338.094       10.511      864.943
10/24/2013  23:24:00     -132.925      -57.319       -3.113       44.055       39.177       24.310     1940.879     1534.839      590.998        1.251        0.203      144.757       24.943        0.030      338.256       10.784      864.938
10/24/2013  23:25:00     -100.355      -32.706        6.896       62.117       41.366       26.058     3858.562     1711.155      679.012        0.872        0.312      105.550       26.916        0.065      338.096       10.514      864.943
10/24/2013  23:26:00     -133.648      -60.550        4.974       57.053       46.996       28.873     3255.021     2208.657      833.654        1.392        0.315      146.725       29.602        0.041      338.255       10.782      864.942
10/24/2013  23:27:00     -131.825      -55.758        1.599       54.386       39.290       22.636     2957.792     1543.709      512.369        1.275        0.251      143.132       21.936        0.023      338.210       10.705      864.951
10/24/2013  23:28:00     -150.237      -83.374       -1.042       53.350       32.537       27.653     2846.180     1058.656      764.677        1.710        0.233      171.821       21.029        0.015      338.412       11.046      864.949
10/24/2013  23:29:00     -103.328      -60.278        5.912       64.365       47.148       30.108     4142.849     2222.964      906.490        1.081        0.364      119.625       32.475        0.074      338.522       11.230      864.967
10/24/2013  23:30:00     -129.341      -87.129        4.016       58.761       43.565       30.894     3452.851     1897.891      954.452        1.532        0.315      155.951       29.245        0.035      338.690       11.513      864.974
10/24/2013  23:31:00      -95.762      -68.003        8.673       62.726       50.232       27.271     3934.539     2523.227      743.711        1.053        0.360      117.451       30.934        0.069      338.671       11.481      864.980
10/24/2013  23:32:00      -95.323      -64.204        0.167       54.751       40.604       30.107     2997.672     1648.686      906.441        0.938        0.278      114.928       27.108        0.056      338.755       11.623      864.995
10/24/2013  23:33:00     -108.209      -82.553        2.807       54.345       55.458       32.170     2953.422     3075.608     1034.930        1.280        0.353      136.104       22.839        0.028      338.905       11.874      864.998
10/24/2013  23:34:00     -111.555      -73.424        7.754       54.147       50.559       31.393     2931.866     2556.201      985.544        1.218        0.324      133.550       31.465        0.056      338.855       11.790      864.995
10/24/2013  23:35:00     -144.904      -73.951        0.255       52.450       46.163       31.084     2750.972     2131.014      966.198        1.616        0.292      162.684       30.732        0.036      338.987       12.010      864.998
10/24/2013  23:36:00     -104.294      -59.603        2.422       62.886       36.583       23.802     3954.663     1338.306      566.558        1.015        0.293      120.124       29.151        0.059      338.786       11.676      865.001
10/24/2013  23:37:00      -51.201      -44.369       12.664       55.315       43.279       27.409     3059.716     1873.114      751.227        0.522        0.284       67.750       26.024        0.148      338.582       11.332      865.001
10/24/2013  23:38:00      -74.163      -50.987        3.565       55.250       44.010       29.773     3052.588     1936.872      886.452        0.699        0.294       89.998       26.006        0.083      338.648       11.441      864.995
10/24/2013  23:39:00      -67.595      -67.330       14.450       63.288       41.589       37.865     4005.401     1729.613     1433.777        0.824        0.358       95.407       35.925        0.142      338.570       11.310      865.004
10/24/2013  23:40:00      -32.614      -60.561       16.281       55.048       41.337       33.501     3030.278     1708.736     1122.290        0.543        0.293       68.785       35.262        0.263      338.597       11.356      865.001
10/24/2013  23:41:00      -78.287      -73.758        9.554       67.026       48.730       34.209     4492.449     2374.656     1170.224        0.985        0.402      107.559       35.988        0.112      338.662       11.466      864.992
10/24/2013  23:42:00      -94.283      -75.899        2.186       59.144       46.358       29.683     3497.980     2149.056      881.068        1.059        0.326      121.037       30.242        0.062      338.626       11.405      864.990
10/24/2013  23:43:00      -78.465      -58.442        8.066       47.685       42.899       30.199     2273.854     1840.336      911.973        0.733        0.251       97.838       28.207        0.083      338.479       11.158      864.997
10/24/2013  23:44:00      -82.955      -51.177        3.050       40.842       40.761       25.425     1668.038     1661.451      646.446        0.674        0.199       97.471       26.974        0.077      338.389       11.009      864.994
10/24/2013  23:45:00      -88.080      -61.253        2.430       49.107       38.355       27.341     2411.501     1471.107      747.516        0.807        0.232      107.284       27.820        0.067      338.300       10.859      864.991
10/24/2013  23:46:00      -95.561      -76.343        1.049       49.763       38.529       25.194     2476.371     1484.461      634.757        0.978        0.230      122.311       24.771        0.041      338.304       10.865      864.996
10/24/2013  23:47:00      -44.939      -47.566       11.636       48.425       41.157       29.257     2345.026     1693.899      855.974        0.466        0.245       65.438       29.046        0.197      338.296       10.850      865.002
10/24/2013  23:48:00      -72.529      -60.977        6.279       57.600       41.246       25.370     3317.741     1701.268      643.625        0.734        0.283       94.755       26.998        0.081      338.156       10.615      865.004
10/24/2013  23:49:00      -71.410      -55.544       10.606       56.951       48.863       29.171     3243.384     2387.545      850.926        0.739        0.324       90.468       32.576        0.130      338.167       10.635      865.003
10/24/2013  23:50:00     -105.802      -68.434        4.290       68.213       36.271       26.149     4653.013     1315.597      683.779        1.127        0.333      126.005       26.088        0.043      338.182       10.661      865.001
10/24/2013  23:51:00      -41.007      -63.578       12.320       53.915       45.333       31.331     2906.832     2055.050      981.647        0.591        0.297       75.656       29.602        0.153      338.179       10.655      865.013
10/24/2013  23:52:00     -111.384      -72.120        3.205       52.587       36.590       22.765     2765.416     1338.810      518.250        1.112        0.231      132.694       15.413        0.013      338.154       10.612      865.005
10/24/2013  23:53:00      -66.107      -97.073        0.523       40.803       36.001       26.523     1664.920     1296.103      703.485        0.873        0.183      117.445       24.638        0.044      338.129       10.570      864.994
10/24/2013  23:54:00     -114.684      -68.605       -3.831       48.768       36.951       24.617     2378.317     1365.356      605.999        1.111        0.217      133.638       20.259        0.023      338.048       10.434      865.002
10/24/2013  23:55:00     -115.860      -78.401       -5.978       58.682       43.030       29.349     3443.619     1851.561      861.390        1.288        0.308      139.894       30.958        0.049      338.119       10.554      864.996
10/24/2013  23:56:00     -102.183      -85.875        1.302       53.298       42.445       24.685     2840.677     1801.556      609.360        1.153        0.263      133.476       26.606        0.040      338.088       10.501      864.995
10/24/2013  23:57:00      -53.843      -47.864        2.851       35.463       37.839       17.365     1257.609     1431.818      301.543        0.409        0.150       72.042       15.153        0.044      338.115       10.547      865.002
10/24/2013  23:58:00      -70.491      -29.175        1.216       42.231       18.847       20.324     1783.424      355.219      413.080        0.419        0.128       76.290       24.304        0.101      338.068       10.468      865.006
10/24/2013  23:59:00     -123.761      -37.575       -3.037       32.595       21.057       19.453     1062.452      443.402      378.419        0.931        0.094      129.339       19.029        0.022      338.085       10.497      865.011
